GFSGBSN_sfc_rhum_000.txt.gz
RH
74 79 87 77 73 76 80 81 83 82 77 79 76 73 70 69 69 68 68 67 67 69 70 74 78 82 83 99 91 56 48 53 58 65 79 84 90 86 84 76 75 82 68 62 59 56 52
69 68 75 79 86 79 76 78 81 84 81 80 78 75 73 71 72 72 72 71 68 68 72 74 77 81 88 92 56 47 56 55 58 67 76 80 86 75 79 76 73 65 65 64 57 53 52
58 60 62 71 79 90 79 79 82 84 82 79 80 79 80 76 73 73 74 75 75 72 71 71 74 77 97 81 51 53 48 56 48 53 72 73 74 85 78 82 65 64 71 63 61 64 56
65 62 60 62 71 81 87 82 84 84 83 82 81 83 84 81 78 78 76 78 75 77 74 73 73 88 92 56 58 56 54 54 45 45 48 46 50 71 70 65 73 83 83 89 65 60 61
60 62 60 63 64 70 80 86 83 84 83 82 84 84 86 83 82 84 84 81 79 75 74 74 88 91 90 55 68 56 56 58 48 49 49 37 50 63 68 84 87 90 96 86 76 61 63
55 53 56 64 62 64 72 83 85 84 82 80 84 86 87 84 85 86 86 82 79 82 79 75 76 91 77 68 60 57 54 53 55 57 56 65 70 85 91 90 90 73 88 75 72 73 66
56 54 53 60 65 64 66 74 81 86 82 81 83 84 87 86 86 87 87 94 91 94 93 85 78 74 51 58 54 62 55 56 61 68 85 73 92 90 82 85 81 82 84 79 74 58 68
54 52 61 62 62 65 67 68 76 88 83 80 80 87 88 87 85 87 91 94 82 75 95 80 76 70 58 58 66 65 54 70 72 91 84 88 88 71 71 73 79 84 84 86 69 55 65
51 48 57 63 57 61 67 67 74 87 87 81 79 85 88 87 86 91 93 87 80 77 96 82 80 80 69 61 67 73 60 69 70 74 71 89 68 56 68 77 82 82 83 78 81 64 54
52 51 47 61 59 60 64 71 74 86 92 84 80 86 89 87 91 97 92 84 82 77 99 78 84 81 73 66 78 56 53 62 74 81 75 76 67 69 68 76 73 87 66 68 69 83 93
54 56 48 58 60 68 69 71 76 78 88 92 83 84 89 78 91 95 79 88 86 85 81 70 84 59 67 76 68 73 54 60 85 85 83 83 82 81 76 69 61 75 57 61 68 77 88
54 54 54 61 60 72 70 71 78 78 85 94 92 88 88 84 92 88 90 83 87 98 93 93 80 87 86 78 69 65 67 62 65 76 76 76 64 70 69 58 54 64 68 68 73 85 93
55 53 55 58 63 73 70 75 80 78 81 93 93 92 85 74 96 89 81 89 98 96 69 88 90 89 83 86 80 75 92 94 99 99 99 97 93 77 75 82 70 64 77 96 98 97 85
56 54 52 50 55 70 73 72 81 79 83 91 94 92 78 72 87 83 88 97 96 68 86 80 81 87 92 74 85 76 90 95 88 97 99 95 98 86 76 74 80 76 72 88 93 97 82
60 56 55 53 56 67 74 76 86 79 85 87 91 95 89 94 83 79 89 98 85 76 78 87 82 93 92 86 77 86 91 88 70 94 96 97 92 77 74 68 63 82 86 61 80 80 94
61 58 52 57 55 68 77 79 84 83 83 89 97 96 92 85 77 84 94 79 84 74 82 80 94 88 92 82 90 88 88 71 81 74 72 82 98 81 72 71 70 74 63 84 84 100 94
58 58 56 52 56 60 76 82 83 89 87 89 97 98 91 82 82 95 97 90 80 79 76 83 92 95 86 83 88 83 85 72 73 66 75 86 94 98 92 90 84 87 84 73 64 79 97
57 57 57 54 59 65 75 87 85 86 86 93 96 99 94 91 99 98 97 76 69 81 79 79 83 92 91 77 90 87 83 61 59 61 90 76 94 97 81 69 74 66 68 64 71 71 75
62 57 56 53 63 66 75 84 79 87 89 98 97 98 95 91 98 98 84 73 70 80 80 77 90 82 79 70 78 72 64 48 54 64 76 78 98 98 97 90 87 95 64 62 56 70 99
65 59 57 54 62 65 72 76 81 86 91 98 98 99 99 98 90 82 82 82 82 74 70 71 83 79 86 79 66 68 65 56 49 53 67 72 94 100 92 100 86 90 81 69 82 79 74
66 60 58 53 57 61 73 77 84 86 91 99 98 95 85 98 98 85 80 80 82 83 78 80 89 90 87 90 77 77 61 50 60 74 80 83 100 100 93 93 98 87 80 78 94 74 77
65 61 60 53 56 58 72 78 81 85 88 100 98 96 86 84 78 91 86 89 83 80 84 92 94 77 82 87 64 64 58 64 63 77 88 91 98 100 97 84 86 92 84 81 82 87 87
63 62 60 53 54 60 71 76 81 86 91 97 99 94 80 85 83 92 89 83 86 81 81 73 82 83 82 82 64 70 67 60 59 76 83 91 99 99 100 88 83 94 79 83 92 88 87
61 62 60 56 54 62 70 76 79 86 91 99 98 97 95 92 88 84 79 81 86 83 81 84 78 85 69 71 66 71 71 81 65 59 59 81 90 90 99 94 84 58 58 72 83 78 81
60 60 61 59 55 62 67 72 79 84 86 98 98 97 96 94 78 78 79 82 81 90 92 82 81 72 66 74 88 90 94 90 84 68 74 67 76 93 94 91 70 53 49 63 64 64 54
61 61 61 62 56 59 68 72 80 88 90 96 99 97 96 95 92 72 78 77 90 92 94 91 88 80 83 88 95 99 96 87 90 92 78 70 74 84 94 88 79 58 54 50 52 67 51
62 64 60 57 58 61 66 71 76 86 88 96 98 94 96 96 81 83 83 84 87 92 94 95 94 96 88 94 97 99 93 85 95 90 93 88 88 92 92 96 81 62 56 54 66 60 58
62 63 62 58 59 61 63 70 74 80 85 95 98 93 92 93 84 70 71 92 97 92 94 93 98 97 99 98 96 97 79 94 93 88 89 89 91 88 85 96 93 64 55 55 52 71 72
60 65 65 59 61 62 63 70 73 76 85 90 99 95 94 95 93 84 75 71 76 79 93 97 97 94 88 93 93 95 88 97 73 97 81 89 80 81 85 81 67 74 71 75 61 67 73

GFSGBSN_sfc_rhum_003.txt.gz
RH
62 60 61 63 66 73 82 80 81 83 78 75 80 78 76 73 67 70 70 71 70 71 72 77 80 82 86 93 89 60 55 59 64 76 84 87 93 88 89 82 78 86 80 65 65 64 60
63 64 63 62 62 66 71 81 83 82 80 77 79 81 78 75 73 74 73 72 70 70 76 76 81 81 88 92 57 52 51 59 63 68 84 85 89 83 88 85 82 73 70 68 65 61 61
54 54 56 62 64 64 66 73 87 84 80 78 77 81 83 81 76 75 76 75 76 74 73 74 78 77 95 78 55 57 48 61 57 70 76 78 82 90 84 86 73 71 80 68 65 64 67
56 60 57 54 61 66 63 70 78 85 82 79 81 82 86 84 82 80 78 76 80 80 77 74 76 90 91 59 62 60 56 58 52 52 51 49 62 79 75 63 73 81 86 92 66 63 62
54 54 53 56 59 66 67 65 72 76 83 84 82 81 83 87 85 84 85 80 79 76 75 77 86 89 88 56 74 60 59 56 52 51 54 40 50 61 65 82 88 88 89 88 78 61 65
53 52 52 52 57 63 62 63 67 69 73 86 84 81 80 88 86 87 86 83 80 82 82 74 76 94 79 70 64 60 61 56 58 61 60 64 71 78 84 89 89 89 96 81 86 71 71
52 52 51 50 50 56 62 61 65 68 68 81 87 82 81 86 88 88 87 91 90 91 92 87 82 77 58 60 56 66 57 61 63 70 85 76 93 94 75 86 80 89 88 81 67 62 72
54 54 52 52 51 49 60 62 63 65 70 75 87 87 81 86 88 87 91 92 84 74 94 82 81 75 63 61 70 67 55 73 81 93 86 89 96 79 70 74 81 84 85 82 66 57 59
54 54 53 55 52 55 62 62 65 67 72 78 87 91 82 88 88 92 88 90 78 80 93 81 84 83 76 65 68 74 62 73 86 95 94 90 72 62 69 79 88 89 92 73 70 67 60
55 54 54 52 52 55 61 69 68 64 70 79 90 90 82 91 93 86 91 83 82 77 98 79 93 84 76 70 78 59 58 70 84 92 83 79 64 70 76 78 79 92 74 73 72 80 86
57 56 57 56 53 50 62 68 74 71 71 80 84 89 83 90 94 94 78 86 84 77 86 73 89 60 69 75 69 76 59 64 80 91 82 85 90 82 79 76 67 75 65 68 78 89 92
62 60 59 57 54 53 63 69 78 70 71 83 82 90 89 93 90 82 84 83 87 91 91 91 84 87 89 79 68 70 72 61 67 76 79 77 71 78 77 64 61 64 74 74 78 85 96
61 62 62 57 55 57 70 74 79 74 78 80 82 86 94 79 91 86 79 89 96 97 75 92 79 86 72 85 77 74 85 92 95 99 97 97 88 83 77 81 72 65 80 97 98 97 83
58 60 63 59 56 58 60 70 78 79 80 80 82 90 91 81 87 78 83 94 97 67 91 79 77 92 85 82 85 84 90 94 86 98 99 97 97 92 79 80 83 80 75 87 86 96 82
64 62 60 59 59 55 59 70 71 81 85 81 83 97 94 93 79 74 82 99 81 71 80 88 80 87 89 78 79 86 88 74 77 81 95 99 95 82 73 61 62 96 97 67 69 64 96
67 66 64 58 59 54 58 68 76 86 91 88 98 97 97 87 74 81 89 82 76 75 81 78 88 73 77 79 90 86 72 76 74 71 68 86 95 82 75 70 66 72 65 94 96 96 94
65 65 64 58 59 55 58 66 80 86 89 87 98 97 95 83 79 92 98 84 78 78 77 86 85 81 76 85 88 73 72 74 75 77 76 86 94 92 91 88 83 82 88 77 70 82 95
66 65 64 59 60 56 58 66 73 83 86 92 97 99 98 86 98 98 94 80 70 88 87 82 77 76 77 86 93 92 92 74 70 74 92 84 95 97 82 72 59 63 70 74 91 87 66
66 63 65 61 60 59 62 65 72 81 86 98 97 98 96 81 98 98 81 72 75 87 93 86 87 75 68 80 89 86 71 53 68 70 81 78 99 96 99 94 93 98 78 64 64 71 76
66 63 64 61 60 60 65 65 72 81 85 98 98 100 99 98 90 80 78 86 82 70 67 67 72 72 83 87 73 77 72 59 61 61 69 80 98 99 86 94 89 95 92 67 65 81 76
66 63 63 61 57 54 63 68 72 82 85 98 98 95 90 98 98 80 78 76 80 88 72 69 85 81 87 86 81 81 72 59 61 69 83 94 100 100 92 84 96 94 81 76 75 64 68
62 62 63 59 61 54 59 71 76 85 90 99 99 97 88 86 79 77 80 80 84 75 84 87 93 77 84 91 70 67 63 60 61 84 86 92 100 100 100 95 95 94 91 85 65 65 61
61 61 60 61 60 55 59 71 76 87 91 99 96 95 80 82 84 84 80 81 82 76 85 76 83 80 83 79 70 64 74 71 64 82 94 98 100 100 96 92 95 98 86 84 71 67 70
61 61 61 59 61 56 57 68 74 83 90 99 98 99 97 94 80 76 79 77 82 78 82 81 79 85 71 67 76 77 76 81 73 72 82 97 99 99 99 98 97 74 67 62 68 75 75
63 61 62 62 57 57 57 64 72 77 81 96 97 99 96 94 73 75 77 81 84 83 88 85 80 76 80 80 87 89 93 87 85 82 83 73 84 99 99 95 70 78 90 88 94 88 76
64 61 63 63 58 59 59 63 72 76 79 93 96 98 98 94 91 72 81 85 94 94 91 90 88 81 89 93 91 99 80 91 91 89 84 80 82 86 87 95 76 59 68 59 72 77 69
64 60 63 64 59 60 61 64 70 74 80 93 97 97 96 95 81 77 83 85 82 91 93 94 90 98 90 92 95 96 84 85 93 93 95 90 88 92 90 91 83 66 57 54 83 65 58
64 62 63 63 63 60 63 64 69 74 80 93 94 93 100 92 84 76 75 89 94 87 93 91 98 99 99 95 97 91 91 93 92 86 90 85 79 96 92 95 90 71 64 58 56 77 68
62 63 62 64 65 63 64 63 66 70 78 87 99 95 97 95 93 87 82 75 72 74 87 96 94 95 94 94 93 92 94 96 88 94 86 90 79 83 76 79 68 73 73 76 66 71 82

GFSGBSN_sfc_rhum_006.txt.gz
RH
57 55 58 56 56 61 66 66 74 77 89 76 78 76 82 77 74 67 68 70 71 71 72 78 81 82 93 94 87 62 60 60 71 77 76 72 92 87 88 86 85 89 86 72 68 67 70
56 55 54 56 58 57 61 69 68 71 79 85 76 79 82 83 77 75 72 72 71 71 75 76 80 78 89 96 57 52 48 59 70 83 92 88 91 87 90 88 85 78 77 74 68 71 68
56 55 55 56 55 57 62 66 69 68 70 86 85 81 82 84 80 76 76 74 74 72 74 72 77 76 94 80 58 60 50 61 60 70 86 87 84 90 86 91 80 79 87 76 72 67 70
54 54 54 54 53 53 59 62 64 66 68 72 84 86 82 83 84 81 78 76 77 81 79 74 77 88 94 60 67 62 56 56 54 63 57 69 74 85 88 76 70 81 86 96 71 68 66
53 54 54 52 52 54 52 52 61 65 66 70 74 85 86 81 85 84 84 79 79 76 76 75 83 85 89 55 74 63 58 56 54 55 56 41 57 71 77 88 90 87 95 92 75 65 67
57 53 53 52 52 53 52 51 60 65 64 66 70 77 84 88 82 87 86 81 80 80 80 72 74 93 77 71 66 60 66 54 59 61 61 66 75 88 85 92 95 90 93 84 73 68 72
54 53 54 54 53 52 52 52 58 65 63 64 70 78 85 89 83 87 86 89 90 96 90 86 83 77 64 64 59 67 62 62 65 71 89 78 96 90 75 81 78 93 95 93 80 62 71
53 56 54 59 58 56 52 51 60 64 66 64 68 74 86 86 87 89 82 86 82 71 94 84 84 80 68 64 73 71 59 74 80 92 87 85 92 78 74 80 83 85 89 87 78 62 67
64 59 60 61 60 57 54 53 53 66 69 71 69 74 79 88 92 93 80 84 79 74 89 78 83 83 78 68 74 77 66 78 89 96 88 89 74 67 75 84 89 92 93 89 84 64 57
65 60 61 61 59 55 56 55 62 68 71 74 71 72 77 89 99 90 90 82 82 68 93 73 96 86 81 71 81 62 62 73 86 90 86 94 75 74 82 84 84 92 79 78 80 88 95
61 58 59 62 58 59 58 64 69 70 73 80 72 73 77 87 97 94 84 84 83 69 91 76 94 66 75 72 68 83 63 66 92 90 85 84 88 87 84 77 74 74 71 80 82 93 95
67 66 66 65 60 60 61 65 69 71 75 75 78 76 78 90 97 84 79 78 82 87 87 91 87 91 90 79 71 78 69 61 63 74 79 79 75 76 79 69 65 67 79 78 82 81 94
68 66 67 67 63 61 60 59 59 71 78 84 76 78 85 81 97 87 77 83 95 92 76 94 83 86 78 85 79 78 82 91 93 99 98 94 89 74 75 84 75 74 90 98 98 98 90
65 67 66 67 66 64 62 57 57 72 76 80 81 81 88 79 92 84 82 89 90 68 84 76 71 76 84 78 73 82 88 94 84 92 99 97 95 89 77 77 85 81 79 92 90 92 88
68 68 67 66 65 61 57 56 58 74 83 89 85 94 97 89 93 83 80 88 78 70 80 88 77 83 86 79 81 87 88 82 68 91 98 97 95 87 81 68 67 97 97 71 76 64 90
62 67 66 64 66 61 56 58 61 69 85 88 98 97 96 89 90 90 83 83 71 70 79 79 89 80 87 85 91 97 85 76 73 75 70 85 96 80 83 75 70 88 76 98 97 96 95
67 68 65 63 65 62 58 57 64 68 79 86 98 98 93 86 94 97 98 85 72 78 73 78 82 84 65 69 81 84 76 70 75 75 74 89 96 90 93 94 82 92 96 97 80 88 93
68 67 64 63 64 61 56 57 65 70 81 89 98 98 97 89 100 99 94 72 68 94 88 78 76 67 72 82 95 89 86 75 70 77 86 79 97 96 84 74 64 65 73 77 87 88 86
68 66 61 64 62 62 55 59 65 73 78 98 97 98 97 87 100 99 85 78 79 96 94 87 85 73 69 78 87 89 81 61 71 80 86 80 98 98 95 89 86 93 77 66 67 79 84
67 66 62 62 64 63 56 60 67 78 80 97 98 100 99 98 93 78 80 82 83 77 84 77 77 77 81 83 80 85 83 64 68 71 69 71 98 98 86 94 96 98 90 79 74 95 76
66 65 60 61 63 62 57 61 71 81 83 98 97 98 91 99 97 74 72 77 81 85 81 76 84 79 91 97 82 89 76 69 68 66 77 92 99 100 93 79 99 98 96 88 94 79 78
65 64 62 63 63 59 56 64 71 85 87 97 99 96 90 87 76 76 83 87 85 76 81 83 86 76 86 92 78 74 79 75 82 73 82 93 98 100 99 96 97 99 95 96 95 75 67
65 63 63 62 64 57 59 67 73 82 89 97 96 94 80 82 81 84 84 86 78 75 70 77 80 86 89 80 73 71 64 73 74 78 96 98 100 100 95 95 96 99 90 80 78 80 63
65 64 61 63 63 58 59 65 70 78 86 98 96 99 96 93 78 77 74 73 86 80 82 86 78 84 71 70 69 76 84 82 81 80 80 97 100 100 98 100 98 81 78 70 73 71 65
64 64 61 61 63 60 61 61 66 73 77 97 98 99 98 92 74 74 81 83 75 84 87 84 76 78 75 78 92 93 88 92 89 87 89 81 98 99 99 99 83 83 84 79 81 78 62
64 61 61 62 63 63 60 64 65 72 75 92 96 98 99 93 85 64 78 85 95 95 93 88 88 89 86 93 94 94 93 83 91 90 91 93 82 97 93 98 81 64 89 83 76 92 69
58 62 62 61 62 64 62 65 64 71 75 90 97 98 99 95 87 74 79 86 86 88 90 93 92 94 89 96 96 97 96 82 95 95 93 94 96 96 89 86 84 70 70 78 90 70 68
65 59 63 63 64 64 63 64 63 68 76 89 95 97 100 97 88 75 75 90 91 88 89 93 93 98 99 99 99 97 98 92 93 84 91 91 91 92 92 96 81 73 69 81 65 71 73
66 66 66 65 64 65 63 64 62 64 73 82 96 88 92 99 92 91 81 80 73 70 85 93 91 93 92 98 96 93 95 95 92 92 89 93 79 84 83 77 67 75 72 72 69 71 82

GFSGBSN_sfc_rhum_009.txt.gz
RH
56 56 56 56 56 55 54 61 64 63 67 72 75 87 77 77 82 76 68 65 70 70 73 73 78 81 88 94 84 58 56 57 71 77 74 72 79 74 77 78 73 83 78 69 64 65 65
56 55 55 56 55 54 55 52 56 60 65 67 71 81 83 80 81 82 75 71 71 70 73 75 78 76 82 96 53 52 47 53 77 78 77 72 81 77 78 80 76 69 73 69 64 62 64
55 56 55 55 54 54 55 53 53 52 61 64 68 77 84 85 81 83 74 75 72 72 74 74 77 74 88 79 56 57 53 52 55 70 86 81 75 78 80 87 72 71 80 69 67 64 62
55 54 53 54 52 53 53 54 53 52 56 65 65 70 84 82 84 84 81 76 74 76 77 73 76 80 91 60 65 60 54 52 51 59 64 75 74 79 82 72 68 76 75 84 62 64 61
53 53 56 53 57 57 57 55 54 52 54 63 65 66 74 86 85 85 86 81 78 78 76 80 79 79 85 54 74 65 53 52 53 52 53 46 57 66 75 84 84 82 83 86 70 58 58
53 53 55 57 60 60 58 57 54 52 53 62 62 65 72 77 85 89 91 83 79 82 77 70 73 88 78 69 66 64 62 52 56 59 59 63 71 80 81 84 84 83 93 80 74 59 63
65 67 64 59 63 60 58 56 54 54 54 60 67 70 71 74 89 90 94 94 97 96 89 85 83 79 67 63 58 68 61 59 61 68 88 75 89 86 75 76 71 83 87 88 76 60 69
63 61 60 59 61 59 60 56 56 57 58 65 67 73 71 72 80 91 89 92 80 70 94 86 85 81 71 65 74 72 60 72 74 88 81 84 90 72 70 75 79 82 86 81 63 63 65
61 61 61 64 63 61 61 59 59 64 67 70 71 76 73 71 75 95 90 83 76 63 80 76 84 85 77 69 73 80 66 76 84 93 89 89 73 66 72 81 83 71 77 69 66 65 60
62 65 65 64 64 65 63 60 61 64 76 75 74 71 70 76 87 92 91 82 80 60 88 70 90 87 80 70 76 64 63 71 83 87 74 75 66 75 85 87 81 82 72 75 78 83 82
66 64 64 65 65 66 66 61 62 65 58 70 72 72 74 76 91 99 92 80 73 65 78 76 93 65 76 74 68 80 64 65 92 90 87 80 84 92 86 76 75 75 68 73 79 89 93
63 64 66 66 67 65 66 63 64 57 60 68 67 75 76 82 93 92 91 86 70 83 83 92 92 92 87 80 76 75 72 61 63 77 77 76 72 71 74 69 68 65 79 76 78 86 96
63 63 65 67 67 65 66 62 57 58 62 79 82 80 77 77 87 91 95 89 96 88 74 96 90 89 75 88 81 77 84 89 91 98 96 78 80 76 72 79 74 73 98 93 96 98 84
60 61 66 68 66 66 65 62 58 57 66 80 85 82 79 81 90 96 90 98 95 67 83 71 65 82 84 72 75 81 83 91 80 90 92 97 88 76 75 74 79 84 84 89 90 82 74
59 60 68 67 64 65 63 61 57 63 73 85 86 98 97 97 90 96 97 98 78 74 80 75 73 85 88 72 72 75 85 84 74 81 97 96 86 80 82 74 65 97 96 67 94 85 95
59 66 68 65 63 66 63 62 55 65 75 84 98 97 95 90 92 97 100 90 72 79 72 72 88 75 82 80 89 86 89 78 74 73 67 80 94 78 80 76 75 85 78 95 97 96 90
66 66 66 64 63 65 65 62 57 62 74 85 96 97 91 91 93 99 100 85 73 78 70 76 82 86 78 84 83 92 79 68 76 84 74 81 94 86 89 91 78 90 98 99 97 96 86
65 65 65 64 64 64 66 61 59 66 77 87 97 100 97 94 99 100 98 71 76 89 85 82 72 71 74 74 84 77 82 70 69 78 94 78 89 97 86 70 64 64 72 74 90 88 87
65 65 64 64 64 65 63 57 61 72 80 98 98 98 96 91 99 100 90 81 85 95 92 82 82 74 71 76 89 86 81 63 76 76 86 81 97 98 89 85 75 93 77 71 71 75 90
66 65 63 63 65 66 61 60 65 76 83 98 98 100 100 97 94 91 83 84 86 82 90 80 81 77 82 80 70 84 85 69 71 72 69 72 90 92 77 77 98 100 86 87 95 92 76
67 66 64 62 65 65 59 67 70 77 89 99 99 98 89 100 98 79 75 78 87 90 82 81 85 74 80 93 86 91 81 73 75 71 75 84 99 98 90 78 92 99 96 94 98 82 82
66 65 65 62 61 63 58 69 72 80 88 96 99 97 93 93 79 72 86 86 82 85 84 89 85 75 80 89 72 81 79 78 75 78 83 87 99 100 97 92 97 99 96 94 88 81 73
66 66 63 63 60 64 59 68 72 77 87 98 96 93 98 80 77 81 88 79 84 76 78 74 77 77 85 78 69 67 71 69 72 76 86 98 100 100 92 74 99 99 93 94 91 81 79
63 62 62 62 62 63 62 65 70 74 82 98 96 99 98 92 77 75 74 77 81 79 89 84 78 85 72 71 77 78 82 88 86 80 74 98 100 100 98 98 98 94 76 73 77 67 70
64 58 59 61 60 63 64 62 66 69 73 96 97 99 99 93 80 76 78 70 80 89 85 84 78 78 77 85 90 95 92 89 92 90 89 82 94 100 99 99 91 64 71 81 80 78 61
64 64 61 63 63 64 65 64 64 65 72 91 98 98 100 95 87 62 81 87 96 94 93 87 88 89 89 95 93 100 94 87 90 89 95 88 89 98 99 98 95 60 79 68 78 81 63
64 64 65 65 65 64 65 64 64 64 69 88 97 97 100 99 89 76 85 92 85 89 90 89 91 93 92 96 98 97 96 86 94 94 93 98 97 98 97 96 81 68 66 77 82 72 68
62 62 63 64 64 65 65 64 66 63 67 84 93 94 99 99 92 79 82 90 90 91 89 88 95 96 99 98 99 97 94 92 96 85 92 90 97 97 88 95 83 71 84 88 68 68 69
61 62 64 66 66 66 65 65 63 62 64 75 95 86 87 99 89 91 82 78 68 70 84 91 88 91 92 91 97 95 92 92 93 93 90 94 78 82 84 76 64 69 67 66 70 72 74

GFSGBSN_sfc_rhum_012.txt.gz
RH
56 56 56 56 55 54 54 56 54 56 54 54 62 65 73 82 81 80 79 71 66 71 71 72 76 78 72 77 71 47 53 54 56 64 64 61 54 49 54 49 52 56 42 44 42 48 45
56 55 54 53 54 54 56 54 54 54 53 52 59 66 68 81 83 85 83 76 70 71 72 76 77 73 61 78 43 41 42 52 58 67 62 62 65 54 54 51 53 48 53 49 46 44 41
54 54 54 56 54 58 58 58 58 55 53 51 56 64 64 70 81 83 83 75 73 72 74 75 76 61 70 50 40 40 41 47 54 61 73 66 60 56 55 60 55 52 58 43 40 39 43
56 54 55 58 61 59 59 59 58 56 55 53 50 63 63 65 79 88 88 83 77 76 76 74 74 60 63 50 46 47 41 43 47 48 59 62 59 58 54 54 49 55 54 54 39 45 39
54 64 68 61 56 62 60 59 57 55 55 53 58 56 64 66 73 87 90 87 80 79 77 76 61 57 63 50 58 46 39 46 45 41 52 53 48 50 56 54 54 51 45 53 46 40 43
65 55 57 60 63 66 60 61 59 57 56 56 58 62 65 69 72 87 88 93 81 78 71 62 66 74 63 59 56 52 44 41 48 49 53 54 56 56 55 60 52 46 58 48 45 40 47
60 58 63 61 65 61 61 62 61 59 56 63 64 64 70 74 70 78 91 99 99 96 73 62 63 59 59 54 49 56 43 45 46 54 68 63 78 74 52 51 45 54 54 52 45 46 50
60 63 62 61 65 61 62 63 63 60 60 68 70 69 73 68 74 73 90 96 66 55 82 67 62 62 60 53 64 61 46 52 54 60 58 71 82 51 49 50 56 57 59 54 43 40 47
64 63 60 67 64 66 66 63 65 62 64 72 72 69 71 70 69 78 88 92 73 64 59 80 67 65 61 57 58 65 52 54 57 67 65 61 57 53 58 61 66 58 60 54 52 45 44
64 54 66 65 67 67 66 64 65 64 65 61 67 69 68 67 76 72 90 82 82 79 96 74 82 70 61 57 64 51 46 52 66 62 62 62 49 62 62 64 57 62 45 50 58 64 63
63 65 62 64 67 67 65 64 66 65 59 62 65 72 70 72 79 77 94 91 83 86 95 66 82 57 59 55 59 71 51 55 64 64 64 64 68 71 76 64 55 60 52 53 55 62 64
62 61 62 66 67 67 64 65 63 61 60 66 65 76 79 80 76 66 88 94 89 95 90 84 83 91 86 65 67 68 66 51 50 62 63 55 53 54 52 53 54 52 58 59 59 67 90
58 60 64 67 67 63 65 66 63 60 58 65 81 85 88 75 78 78 93 95 99 94 60 93 83 81 68 71 76 68 78 85 77 96 95 64 61 55 53 62 57 59 73 78 83 93 66
67 69 66 67 64 62 66 63 60 57 58 67 85 83 79 72 72 80 95 99 97 56 61 62 71 65 69 63 76 70 79 88 67 67 78 80 72 61 57 61 55 66 62 66 66 46 41
66 67 65 64 62 63 65 64 64 60 67 75 86 91 81 73 76 87 98 99 87 54 60 66 75 78 80 60 60 71 75 69 61 65 87 88 76 58 58 53 55 72 92 54 74 55 80
64 64 64 62 62 65 65 64 58 60 71 79 96 93 86 86 78 91 100 98 62 61 56 55 70 57 68 70 66 66 69 54 57 52 47 60 87 55 55 62 61 64 54 87 93 83 68
64 66 62 61 65 66 66 57 60 64 74 84 95 94 93 83 82 98 100 89 76 55 53 59 65 63 55 64 61 62 58 54 53 58 53 57 65 69 76 80 60 79 88 94 73 74 72
65 66 64 62 66 66 64 58 65 70 78 88 97 100 93 88 99 99 99 69 70 68 68 63 53 54 56 60 68 63 62 52 46 60 74 57 69 88 71 44 45 43 52 60 92 80 87
64 66 65 63 64 64 62 61 67 72 82 99 98 97 94 91 99 99 89 72 76 74 73 65 65 55 52 61 71 57 60 49 54 57 58 60 91 92 80 68 56 71 55 54 79 83 90
61 64 65 62 61 65 62 62 68 73 85 94 98 100 97 92 79 75 70 72 80 71 74 64 66 59 59 60 57 66 65 58 51 52 62 60 66 90 69 76 66 100 76 75 96 93 68
63 64 64 62 60 62 63 64 72 77 84 97 98 96 86 100 87 59 59 67 75 75 69 63 67 60 61 68 68 67 62 61 60 64 61 65 100 95 75 66 79 90 85 92 100 78 79
59 59 58 60 61 61 64 66 74 76 82 95 97 98 76 83 67 57 73 67 68 75 66 71 68 62 62 65 63 67 64 64 60 60 64 71 92 98 98 79 78 98 87 93 96 92 68
61 64 59 61 60 62 65 69 72 74 80 98 96 87 90 83 74 62 67 62 63 63 68 64 62 67 76 69 58 58 56 60 62 64 70 90 100 100 91 62 72 96 94 94 94 90 74
63 63 63 60 63 63 64 64 67 70 75 96 96 98 96 85 71 60 60 62 65 60 74 71 65 71 67 60 58 61 61 63 72 76 59 90 100 100 98 91 97 83 78 81 82 78 70
63 61 62 63 65 64 65 64 66 64 68 93 96 98 98 82 62 61 60 61 68 69 68 70 68 62 60 63 76 75 77 80 72 73 72 68 90 100 99 97 68 67 74 84 76 63 52
62 60 60 62 63 64 65 64 66 64 66 87 97 97 99 94 72 53 59 60 66 70 76 72 76 72 72 82 79 93 75 65 68 73 78 78 82 98 99 98 90 64 53 60 58 64 51
62 60 60 62 64 65 65 65 67 63 65 82 96 91 98 99 69 55 67 70 68 70 77 75 77 82 85 84 86 95 82 67 66 68 83 89 95 96 96 93 64 53 53 68 63 55 53
62 61 61 60 59 61 63 63 61 62 63 78 91 90 98 98 84 66 61 72 76 68 72 73 81 86 94 96 95 86 84 63 71 61 65 62 77 85 77 76 80 51 58 57 52 52 54
62 62 62 61 60 59 59 59 59 60 62 67 93 83 86 99 91 80 70 64 58 56 70 82 75 80 82 94 94 94 82 72 66 62 62 72 57 54 58 52 46 49 51 47 54 56 56

GFSGBSN_sfc_rhum_015.txt.gz
RH
54 55 55 55 55 55 56 56 57 57 55 54 53 52 58 64 68 75 81 83 80 68 72 73 72 76 75 90 77 44 56 56 55 59 51 47 45 40 45 37 36 42 36 25 28 33 34
57 56 56 59 58 61 59 59 58 58 58 55 54 52 54 64 64 70 81 84 84 70 73 74 72 78 64 81 46 39 38 43 44 58 61 50 48 40 44 41 43 35 38 36 34 35 34
56 56 62 65 64 58 61 60 60 59 57 56 55 56 54 59 60 66 75 85 85 74 73 76 75 60 58 52 33 35 40 42 48 51 61 54 53 58 54 56 43 44 50 40 35 33 36
62 62 58 59 60 64 68 65 63 60 59 57 56 56 58 59 64 66 73 84 86 83 75 76 73 52 58 42 36 37 35 46 46 46 59 58 53 56 46 45 45 49 43 47 30 33 30
58 55 60 63 62 62 67 65 62 62 62 60 55 60 62 61 64 69 74 82 83 89 76 75 61 55 54 51 49 37 34 45 44 44 48 53 63 55 49 52 44 42 43 39 35 28 33
61 61 63 65 64 66 67 66 61 61 65 64 62 64 66 67 70 73 74 80 83 88 75 63 54 66 49 51 48 42 34 39 43 46 52 50 47 50 49 46 49 40 46 38 35 27 36
66 66 65 63 65 66 69 68 63 63 65 65 64 65 70 66 72 72 80 93 100 100 95 69 61 50 50 47 43 48 37 43 44 47 60 55 70 64 44 41 39 41 41 38 31 28 38
60 60 63 63 62 69 67 63 65 64 66 65 66 70 71 70 69 70 74 89 90 81 91 58 50 51 46 44 59 50 37 51 59 70 58 75 80 47 39 40 44 45 47 45 35 30 36
61 65 62 61 65 64 67 66 65 65 67 65 66 64 71 71 71 68 66 80 83 90 82 74 52 54 58 51 51 60 44 43 56 61 58 64 50 45 46 49 54 47 50 45 42 36 37
65 58 60 61 64 67 67 65 65 66 66 64 61 61 74 72 74 66 68 72 89 93 100 92 79 58 56 51 59 45 41 45 54 57 55 57 42 49 48 55 47 53 36 39 45 51 51
64 65 69 67 67 68 66 65 66 63 60 60 59 65 71 72 87 75 69 95 97 92 98 72 73 46 49 50 56 61 40 52 55 50 52 58 55 56 60 51 44 50 46 47 49 54 56
61 68 67 65 65 64 64 65 64 62 61 62 62 78 81 82 72 65 61 96 93 99 97 85 78 81 68 49 57 58 60 48 42 49 49 44 43 47 46 44 45 46 50 52 53 64 85
65 67 64 64 62 61 64 64 62 61 60 60 66 83 83 81 83 55 86 90 100 98 59 94 74 75 64 64 65 66 73 74 69 93 88 58 53 48 43 55 50 54 67 76 83 92 66
66 68 65 62 63 64 65 64 58 58 63 70 80 84 80 73 59 72 92 91 99 59 59 56 73 66 73 60 58 61 69 74 52 52 65 79 75 53 51 54 52 61 60 62 57 41 35
66 68 67 62 63 65 64 61 58 66 70 77 82 76 86 68 62 78 92 92 97 52 55 70 69 78 74 62 62 60 61 64 49 49 77 70 71 45 46 45 47 62 83 49 69 49 63
68 67 66 62 65 64 66 60 61 67 74 79 97 86 79 70 74 85 94 98 75 48 50 52 67 58 70 62 70 62 59 46 52 43 40 52 77 47 46 50 48 53 45 82 89 83 57
68 64 66 64 62 61 66 60 65 70 77 86 93 96 90 69 74 88 99 98 64 47 47 53 52 53 51 56 52 55 54 47 41 44 44 48 56 67 63 67 50 67 75 84 60 71 75
67 67 64 66 62 62 65 62 66 74 85 86 94 100 90 65 97 90 98 94 61 61 61 52 44 42 44 46 49 48 47 44 39 43 56 47 60 83 64 39 38 41 55 54 88 70 76
63 63 62 65 63 63 64 64 68 73 83 94 96 96 92 93 92 82 94 79 58 70 63 55 53 45 42 46 56 47 46 42 41 49 49 50 75 86 82 56 42 53 47 47 61 78 93
60 63 59 60 62 64 66 65 72 77 78 92 96 100 96 82 76 66 92 67 73 65 60 53 52 44 46 49 46 51 54 53 43 45 66 54 62 89 66 77 57 97 70 62 82 97 71
60 64 62 62 60 62 66 66 72 77 78 93 93 91 78 95 70 72 68 62 70 62 58 49 53 48 45 52 52 54 51 53 51 57 51 55 100 84 64 58 68 76 72 71 99 93 98
61 62 63 60 64 62 65 69 73 76 77 89 97 97 74 62 50 51 58 56 59 62 54 56 52 49 49 50 50 56 52 51 52 55 57 63 91 94 95 67 68 84 63 72 95 93 94
62 60 60 61 65 64 65 71 73 72 73 96 92 84 96 66 52 47 51 51 55 53 61 53 52 57 59 56 52 51 48 46 50 59 66 78 98 99 85 54 62 84 94 95 94 86 91
62 60 59 60 62 64 65 66 68 67 74 93 93 95 96 73 50 46 48 49 52 56 61 60 52 56 64 52 52 51 51 53 52 63 67 85 99 98 100 83 93 68 64 74 84 66 55
61 60 59 60 62 64 65 66 68 64 67 92 96 98 96 76 58 49 48 54 54 49 58 62 59 56 52 55 64 58 71 73 64 62 73 77 86 100 99 80 58 64 57 76 90 73 48
62 61 60 59 60 60 64 65 63 63 64 84 96 94 98 99 57 43 48 48 63 59 65 58 62 60 58 67 72 71 73 58 64 83 73 71 72 96 96 98 81 60 46 52 57 65 48
64 62 61 60 60 60 59 60 60 62 64 76 94 86 96 96 56 51 49 52 47 51 56 65 70 73 65 90 84 75 78 58 62 60 78 88 93 97 96 96 66 48 46 52 68 56 51
62 62 62 62 61 60 59 59 58 60 61 69 87 85 94 98 84 63 45 53 56 54 60 66 73 73 80 83 78 75 74 58 61 46 54 61 70 76 80 95 82 42 44 59 50 47 46
64 66 62 62 62 61 60 59 58 58 58 61 82 80 82 97 88 79 61 54 49 44 57 63 70 67 72 85 94 91 92 63 56 65 47 61 46 55 52 50 38 40 45 42 46 50 47

GFSGBSN_sfc_rhum_018.txt.gz
RH
58 57 57 62 61 64 62 60 60 60 59 59 58 56 56 56 56 59 66 72 80 81 82 72 73 75 75 94 78 55 63 63 59 65 60 49 48 47 52 42 36 42 37 30 29 32 34
56 61 66 62 58 61 62 67 66 64 64 60 60 58 58 57 57 59 61 69 78 85 86 73 74 77 78 88 45 39 40 45 53 68 68 51 45 43 48 40 41 41 40 39 37 34 36
64 60 55 58 62 62 62 68 69 69 65 62 62 60 57 58 61 59 61 67 77 85 87 75 76 68 64 61 36 42 41 41 43 61 64 58 52 56 53 62 47 45 58 49 44 40 42
67 61 63 65 68 65 66 70 71 71 64 60 63 65 64 60 61 62 64 68 76 81 88 82 75 64 63 38 38 36 37 44 44 50 60 64 57 60 56 50 47 59 57 69 37 37 37
62 66 60 60 62 60 64 70 68 62 62 65 65 65 64 63 65 66 69 72 75 76 88 81 71 70 64 53 50 40 34 46 48 48 68 60 62 62 53 58 63 56 64 56 45 37 37
63 60 63 63 64 68 66 68 66 66 65 64 65 65 66 66 68 69 72 72 72 72 92 81 58 75 52 55 46 41 35 40 54 63 68 69 66 63 62 66 75 58 58 48 47 40 42
64 64 60 60 61 62 65 66 67 66 65 64 66 66 68 71 70 70 76 81 96 100 94 83 68 52 46 47 44 47 39 46 46 67 68 60 72 79 59 55 50 47 52 53 41 32 40
58 60 63 68 67 66 66 67 67 63 64 65 67 67 67 69 68 69 74 84 82 98 98 83 54 49 48 47 60 52 40 58 61 73 60 72 83 55 45 41 48 52 58 57 43 35 40
62 61 70 68 66 66 65 66 64 64 66 67 65 64 60 72 72 75 72 75 92 91 98 83 59 56 55 49 57 60 46 51 63 68 73 65 56 46 51 53 55 57 59 56 51 43 42
62 63 69 64 62 63 63 64 65 63 63 63 63 60 68 73 77 76 74 79 94 90 100 98 86 58 56 54 60 46 42 47 60 71 65 65 46 46 54 57 51 63 44 45 47 61 73
65 62 68 64 62 61 63 64 64 62 60 62 62 60 70 79 88 78 68 88 93 94 99 93 82 46 53 57 62 61 44 48 59 56 60 69 59 61 62 52 47 55 51 52 56 67 76
61 64 68 66 66 62 64 65 66 58 58 66 67 71 75 92 92 71 66 88 92 100 98 98 82 74 74 56 58 58 57 52 44 48 52 52 46 53 53 45 48 48 52 60 64 74 98
61 66 70 67 64 64 62 66 60 58 65 70 73 81 81 76 88 67 78 94 100 99 78 95 88 72 63 64 70 67 76 79 79 92 90 64 59 54 49 62 59 56 70 96 97 97 90
62 68 68 67 64 64 61 67 58 62 70 75 80 82 77 74 71 75 90 97 96 91 73 58 70 69 65 60 70 71 77 81 63 63 81 90 86 59 50 60 64 65 67 92 82 87 73
62 68 68 66 66 62 64 64 60 68 78 83 85 78 84 79 75 78 95 91 98 88 58 70 70 77 73 61 63 70 76 72 55 51 86 85 75 48 50 49 54 70 86 62 82 68 91
63 64 65 65 66 65 63 61 64 75 84 87 92 85 88 74 72 85 99 89 99 54 55 53 68 58 73 67 66 68 64 52 51 47 46 59 81 54 53 55 55 60 52 87 92 97 84
63 62 61 62 61 60 63 62 66 76 87 79 84 94 88 74 83 92 100 100 90 50 49 53 56 56 53 66 60 60 56 48 45 46 44 49 69 71 70 72 69 72 76 78 76 87 95
62 62 59 63 63 61 65 64 67 75 84 81 87 99 84 76 97 97 98 97 72 64 60 50 45 43 51 52 55 54 52 47 40 46 58 48 67 94 81 52 50 55 65 64 88 84 83
60 61 64 62 65 65 65 66 69 74 78 94 96 94 87 96 96 93 93 83 59 69 62 54 50 45 41 48 57 49 49 43 49 51 54 52 85 96 91 68 52 62 55 55 61 73 92
61 62 62 62 66 66 69 70 75 74 75 86 96 98 93 94 84 81 96 77 90 70 56 48 48 45 46 49 48 56 58 56 46 51 64 55 67 89 94 84 78 98 80 65 71 98 82
62 62 59 62 66 64 66 72 73 75 78 88 90 88 73 94 74 74 76 79 68 59 56 50 53 47 47 55 54 56 54 58 52 63 56 62 99 88 77 65 68 74 75 72 95 94 98
62 61 60 59 61 63 65 72 74 74 77 83 94 98 87 63 56 67 68 69 66 59 58 55 55 46 49 53 58 53 52 54 60 58 63 65 98 98 90 76 76 84 72 71 75 94 96
62 61 60 60 61 64 66 73 72 72 75 96 93 85 94 64 55 57 56 56 60 61 64 54 52 57 58 64 59 57 55 52 56 62 67 88 100 99 92 67 74 89 78 85 84 78 87
62 62 60 60 60 61 65 65 64 66 74 96 96 97 97 70 56 50 49 52 56 62 68 62 54 56 71 58 58 59 62 56 56 64 62 91 100 100 98 92 95 78 69 69 80 77 71
62 63 61 61 60 61 60 61 61 63 65 91 96 98 98 97 54 51 50 52 56 65 65 66 64 65 60 65 77 69 78 71 68 62 70 74 93 100 100 97 69 69 72 70 88 82 62
65 60 62 61 61 62 61 60 59 61 62 78 96 94 98 100 67 54 52 56 72 68 73 68 69 70 72 80 83 82 77 84 85 89 76 78 84 98 98 98 92 63 57 64 66 95 59
70 62 64 62 62 62 62 60 59 59 60 71 92 84 98 99 70 77 57 60 58 62 71 72 80 86 80 86 92 82 86 73 77 81 93 95 96 97 97 98 80 53 53 57 94 74 64
71 66 63 66 62 63 62 61 59 58 58 69 83 83 92 98 88 70 66 66 61 66 68 78 86 83 87 94 86 84 85 71 79 64 72 76 86 91 91 98 94 55 59 77 68 64 61
73 67 60 67 66 63 64 61 60 58 57 60 80 75 80 98 89 75 73 72 68 68 72 74 80 75 85 92 93 91 91 92 80 84 62 71 62 67 71 72 51 55 57 60 60 65 65

GFSGBSN_sfc_rhum_021.txt.gz
RH
63 65 60 61 61 61 64 66 67 71 68 66 64 61 59 59 58 60 54 58 58 73 79 83 76 77 84 95 85 62 63 56 57 65 73 76 71 64 62 55 49 52 48 40 39 40 39
64 63 60 65 63 65 62 60 68 72 73 72 60 60 60 63 64 59 60 55 58 69 81 88 82 80 90 94 54 50 57 71 74 74 82 75 62 53 59 57 52 46 48 48 45 46 45
62 67 60 57 58 63 67 68 68 68 66 60 63 64 64 64 64 60 60 62 61 68 79 90 82 72 78 71 47 47 43 54 60 70 78 70 56 62 63 67 56 54 63 59 55 51 51
69 62 62 64 61 59 61 62 66 68 67 67 66 65 64 63 63 62 65 66 67 70 78 86 82 76 90 49 46 45 44 48 52 55 65 72 61 62 66 59 56 64 68 87 56 48 49
64 62 62 62 64 67 66 65 66 66 66 66 64 64 65 65 67 68 68 69 68 70 76 81 88 88 78 53 51 42 41 50 55 65 77 67 79 69 61 65 72 75 86 77 62 41 46
66 63 63 70 67 65 63 65 66 65 64 62 63 67 67 67 68 70 71 72 69 70 76 85 76 87 69 64 56 47 43 44 66 72 81 85 90 85 75 69 90 75 81 61 59 46 45
65 61 65 68 62 60 62 62 62 62 63 64 65 67 65 66 66 68 78 92 89 97 95 89 79 69 56 50 47 55 45 55 64 76 85 88 90 90 76 74 62 68 66 68 57 42 47
66 61 64 66 61 59 59 62 61 63 61 62 66 66 63 61 70 70 83 94 92 94 98 86 67 58 54 51 64 56 46 66 68 86 66 76 89 73 60 56 60 64 67 72 55 43 47
64 56 64 65 64 65 61 64 64 63 61 60 60 62 62 69 70 82 84 83 90 76 98 91 81 62 62 57 66 66 55 62 70 75 69 84 63 55 57 60 62 70 72 69 64 53 52
64 58 66 67 64 67 63 62 65 65 59 57 59 62 63 65 76 86 82 91 92 83 99 99 89 64 60 59 71 51 50 56 64 73 72 70 52 53 64 66 61 76 54 56 59 69 81
60 59 66 68 66 68 64 62 66 62 58 65 69 72 73 74 90 88 85 91 92 92 98 97 90 55 63 72 65 61 49 51 69 71 75 85 65 60 65 62 53 65 56 59 64 75 82
59 62 67 70 66 66 63 62 67 60 65 72 74 76 82 90 96 81 73 91 92 98 98 99 82 78 80 67 66 65 59 53 51 58 62 58 52 57 61 52 53 51 61 64 71 82 97
64 62 64 69 65 66 65 62 61 62 71 76 78 82 81 82 88 81 85 96 98 98 94 99 92 78 75 80 75 70 74 78 83 92 99 69 66 58 53 67 63 64 76 97 94 96 91
64 60 60 63 63 62 58 62 62 69 79 83 86 82 81 75 79 84 93 94 98 98 94 75 73 72 80 71 81 70 81 84 76 73 92 92 90 69 58 66 75 78 72 93 93 96 85
64 58 65 62 63 59 63 63 63 76 82 84 82 92 91 93 82 83 97 98 98 98 71 79 68 72 78 66 79 74 77 70 67 71 84 93 82 60 56 55 60 77 88 67 86 84 95
61 59 65 62 62 62 63 64 68 77 83 79 96 94 92 82 80 90 100 94 100 70 67 58 89 68 83 72 81 74 79 63 58 55 60 64 83 63 62 57 59 65 61 89 94 100 96
62 60 60 62 65 64 65 66 68 76 80 74 93 97 87 82 87 95 100 100 86 53 62 67 69 65 61 68 74 72 75 56 53 57 57 55 71 78 66 77 77 78 89 81 80 93 98
61 60 60 62 66 65 66 68 67 75 81 85 92 94 87 91 96 98 100 100 89 70 67 57 48 55 60 67 72 67 68 56 47 46 62 52 74 98 82 64 59 66 74 72 89 83 93
61 62 60 63 66 68 66 70 68 73 76 98 97 95 89 93 99 100 93 79 75 84 69 59 58 51 51 59 65 56 58 50 51 47 63 56 82 95 86 77 66 73 66 66 65 80 86
62 61 60 60 61 65 69 72 73 73 76 92 94 98 94 98 96 89 88 91 86 72 65 57 52 46 52 52 55 59 73 60 55 57 63 56 79 85 89 85 84 90 79 71 74 98 82
64 61 60 61 60 62 67 70 74 77 77 95 97 95 84 97 93 91 92 83 72 73 61 57 57 53 54 62 60 68 68 65 58 68 62 64 92 95 82 77 81 80 78 75 86 80 97
64 62 60 60 61 61 62 64 70 75 76 94 96 97 87 96 78 88 81 81 77 72 72 63 61 56 64 72 68 66 64 70 71 74 70 72 98 97 98 77 82 92 78 72 73 71 77
66 62 61 60 61 62 62 62 66 71 77 96 94 89 96 90 75 78 73 75 73 72 68 66 60 63 81 78 73 70 58 59 57 71 74 84 97 99 97 76 86 94 81 70 79 81 82
68 62 62 61 61 62 62 61 61 63 69 98 96 98 98 93 77 67 57 62 69 74 77 68 60 73 76 65 66 71 77 72 64 64 70 95 99 100 99 91 93 79 76 73 85 74 76
65 67 60 62 62 62 62 61 60 60 62 92 96 98 98 98 93 64 54 62 76 76 76 76 72 74 70 74 85 85 91 73 65 69 76 77 95 100 99 96 77 68 78 82 89 76 72
66 71 61 63 63 62 62 61 60 59 59 88 96 94 98 99 87 75 77 60 82 86 84 84 80 79 79 88 91 88 76 81 91 92 73 82 84 99 98 99 96 66 70 72 75 89 66
65 71 68 61 65 63 61 59 61 60 58 79 95 82 97 99 87 80 82 73 64 75 87 87 92 90 86 92 96 92 91 80 93 90 94 94 99 98 98 97 84 63 59 70 93 73 75
66 69 68 60 63 66 61 62 62 60 59 74 90 88 90 99 92 73 69 86 92 68 73 84 86 87 94 98 94 94 93 85 86 82 88 90 94 96 97 99 94 55 69 79 63 76 72
66 68 74 62 58 61 65 62 62 58 59 62 91 84 86 98 87 77 67 63 66 76 88 80 85 86 87 95 95 93 92 90 91 94 70 76 73 78 80 77 55 60 58 70 67 70 75

GFSGBSN_sfc_rhum_024.txt.gz
RH
59 61 68 57 59 60 60 64 65 68 67 67 69 62 61 61 62 63 64 58 56 53 59 70 78 85 86 93 85 54 63 65 60 67 75 75 79 70 70 65 62 64 58 47 45 47 46
64 67 61 63 61 60 62 64 65 65 64 66 66 66 65 64 64 65 63 58 58 59 57 66 75 90 85 93 51 55 68 66 64 72 80 80 78 65 65 61 60 54 48 49 52 51 51
62 62 62 61 67 70 68 67 66 66 65 65 66 67 65 64 64 63 61 61 62 61 62 69 75 86 81 72 49 58 66 75 78 74 88 84 78 67 61 72 56 57 64 61 56 54 55
62 63 59 66 68 65 60 62 64 62 63 64 63 63 65 67 65 66 67 66 65 66 67 70 80 90 78 52 46 51 48 55 66 68 70 72 65 68 68 63 59 65 70 82 56 52 49
62 62 62 68 68 62 58 60 60 60 59 62 63 63 66 66 65 66 68 68 67 69 66 67 93 88 67 57 60 46 48 58 58 77 79 66 70 72 70 75 80 75 86 83 68 51 50
63 64 63 65 64 65 62 60 62 62 59 62 63 64 66 65 66 66 67 71 71 69 70 70 89 92 67 69 58 48 54 52 68 86 85 84 91 88 84 77 95 78 88 75 67 49 48
64 64 60 66 68 66 65 62 62 64 64 59 59 62 66 67 63 71 81 92 84 92 90 84 86 70 61 54 50 57 46 67 81 81 96 88 92 96 84 77 69 60 62 74 63 48 52
62 63 62 67 70 64 67 64 62 66 65 65 58 59 60 62 66 68 86 96 92 86 97 81 74 70 54 53 67 60 48 77 85 90 76 85 94 75 72 72 68 75 82 80 62 52 52
61 58 63 67 70 65 67 64 60 66 64 59 62 66 65 65 66 81 88 84 86 80 98 87 86 67 63 57 68 72 55 64 79 77 73 81 71 62 69 62 66 76 76 77 71 59 58
62 61 63 66 70 65 67 65 64 66 61 63 68 72 73 75 87 88 86 90 87 78 98 99 94 79 60 64 75 54 52 60 66 76 68 69 55 67 75 71 64 80 60 60 63 70 84
63 65 63 60 69 62 65 61 60 60 64 70 75 75 75 78 93 89 89 91 91 88 98 98 94 59 65 75 69 66 50 55 74 73 73 86 72 64 73 68 57 69 57 60 67 79 82
58 61 64 59 64 62 58 62 62 64 73 81 84 84 78 88 93 89 92 88 97 97 97 99 86 80 79 71 71 66 61 53 54 71 67 65 55 61 62 54 55 56 61 70 80 82 94
64 61 62 60 61 59 60 61 66 73 81 81 79 74 81 81 91 86 88 93 95 98 97 99 94 78 78 83 76 74 74 73 86 98 100 76 69 61 56 68 64 61 72 90 88 98 85
63 60 62 64 61 64 61 65 71 75 79 77 75 78 83 78 84 89 94 97 93 99 99 79 78 72 89 77 79 75 76 84 72 77 87 92 89 70 60 68 75 74 69 84 76 96 89
63 61 60 60 63 65 64 67 67 77 84 80 75 89 89 93 83 88 98 96 98 99 90 89 66 82 84 82 85 74 75 78 73 71 83 92 82 65 60 59 60 79 89 70 86 87 96
62 60 59 62 65 64 65 67 67 75 82 76 94 91 93 87 82 91 98 99 100 91 65 62 95 78 90 87 86 77 73 60 62 60 66 72 88 70 64 59 64 67 64 89 94 97 94
63 62 60 60 61 63 66 68 68 73 81 75 91 94 80 86 88 96 100 100 92 60 66 64 74 67 59 70 83 80 79 63 56 59 58 66 77 79 69 79 80 82 91 85 83 91 98
60 61 61 61 61 64 68 68 68 74 81 87 95 96 84 91 96 98 100 98 89 80 73 68 58 61 60 75 78 80 81 64 54 57 69 62 80 96 86 69 64 71 77 78 93 82 96
64 61 61 62 62 62 65 67 68 74 79 97 97 98 91 90 96 98 92 89 81 82 75 66 63 56 59 74 75 66 61 52 54 55 64 59 82 96 86 76 75 80 73 72 73 80 94
64 62 61 62 62 62 63 65 70 72 78 94 96 94 92 96 94 89 93 92 80 69 66 58 58 52 58 58 59 68 71 59 57 56 64 61 83 83 89 81 84 89 80 75 80 99 90
65 63 60 61 63 63 64 64 67 72 77 94 98 96 95 99 89 89 95 88 78 76 66 58 58 55 59 64 67 77 71 66 63 63 63 65 90 94 85 78 83 83 81 79 90 76 95
63 63 62 60 62 63 64 64 65 71 75 91 95 92 82 97 87 86 84 85 83 77 74 69 69 68 60 75 72 75 70 72 69 78 68 73 97 95 95 84 88 94 82 78 74 68 68
62 68 61 62 61 63 63 63 63 66 76 96 95 88 96 87 88 83 77 80 75 76 68 70 67 78 83 80 76 69 60 60 64 72 82 83 95 99 97 80 90 96 88 80 75 72 77
63 69 61 63 62 63 63 63 62 62 70 99 96 98 96 94 93 78 72 66 73 79 77 75 72 78 77 68 67 69 72 61 62 62 69 90 98 99 98 90 94 75 73 68 71 76 80
64 66 70 60 64 62 62 62 61 61 61 93 96 97 98 91 88 84 81 68 80 79 81 81 78 78 73 73 86 89 91 70 70 67 77 75 90 95 96 91 77 73 80 84 90 78 73
65 67 72 65 61 66 64 61 60 61 60 90 93 95 97 99 94 87 83 69 84 88 85 88 85 82 79 89 91 89 91 81 92 94 77 79 83 98 99 99 96 63 78 74 76 95 75
67 69 70 67 60 61 65 59 61 61 59 82 92 89 98 99 89 92 96 88 78 84 88 89 90 88 85 96 97 95 91 80 96 92 97 99 98 98 99 97 87 63 62 76 91 72 72
73 69 68 76 63 58 59 64 61 61 57 74 86 90 92 98 87 70 75 84 92 84 89 86 87 90 96 97 96 92 93 90 90 86 90 86 94 98 99 99 93 58 78 83 63 77 76
76 69 69 70 75 63 61 65 58 61 60 65 83 82 89 94 88 85 66 64 66 73 96 84 81 89 90 96 96 95 95 90 93 93 82 90 76 83 85 79 56 56 64 68 70 72 76

GFSGBSN_sfc_rhum_027.txt.gz
RH
67 59 57 63 60 68 72 69 67 66 64 64 65 65 67 66 65 65 65 64 62 58 58 58 59 69 94 94 81 53 61 64 64 75 82 79 81 76 76 70 65 67 63 52 49 48 53
66 60 64 58 66 68 68 58 60 63 65 62 63 64 64 65 62 64 64 62 59 59 60 59 62 72 96 90 51 50 59 72 72 78 82 76 77 67 68 67 70 56 54 50 51 49 53
63 60 62 62 67 67 65 61 60 62 58 59 64 65 62 64 65 66 64 64 63 62 62 61 63 75 97 72 50 54 67 70 74 74 87 78 73 68 68 70 56 60 66 66 59 55 56
66 62 63 57 62 68 64 62 64 63 63 56 62 61 62 65 66 65 68 66 66 66 64 62 66 91 92 59 50 49 68 85 86 80 76 79 71 75 70 63 63 69 72 82 60 53 52
64 60 64 59 69 70 67 65 64 63 65 63 62 63 65 66 66 66 67 66 66 67 66 63 80 94 80 58 60 50 51 73 80 85 82 67 76 78 70 76 82 80 90 85 68 54 55
66 61 64 58 69 69 67 66 66 64 65 66 67 62 61 64 68 66 70 70 72 71 71 66 78 91 83 72 59 52 50 65 74 90 88 84 92 91 87 88 89 85 84 82 74 55 58
66 66 58 63 71 69 69 67 67 60 66 68 67 59 58 60 62 67 77 92 82 85 90 86 88 82 74 61 54 65 49 70 82 89 95 90 98 94 87 79 70 66 77 79 65 53 56
62 63 64 62 62 68 64 66 68 66 67 67 62 63 68 65 66 66 87 95 89 84 91 71 77 81 60 61 69 67 60 79 90 94 89 95 95 81 72 80 74 70 81 85 67 58 58
60 60 61 64 59 65 63 58 59 61 63 64 67 71 73 74 72 79 87 85 81 89 95 69 81 84 67 60 73 72 59 68 91 86 80 89 78 85 82 87 84 79 80 80 74 63 62
62 62 58 66 58 58 58 60 64 67 79 81 83 87 81 75 88 88 88 86 85 85 96 97 90 78 65 66 78 56 53 62 76 84 72 71 59 84 84 76 65 83 63 62 66 73 85
62 62 60 66 57 62 60 66 71 75 76 74 76 76 89 74 92 86 82 94 87 91 97 98 93 79 64 74 71 68 58 57 75 80 74 87 66 79 84 72 56 66 59 64 70 80 82
61 62 61 62 60 64 63 67 71 76 74 75 77 77 78 92 90 87 93 90 93 97 98 99 92 87 79 75 75 68 63 54 60 73 62 64 57 60 63 59 59 56 63 71 85 82 92
63 62 62 61 62 63 64 71 70 75 74 73 79 76 82 81 94 87 92 93 96 97 97 99 93 78 74 80 78 75 73 76 90 99 99 78 68 57 58 67 62 62 73 86 78 93 81
63 62 61 61 61 61 64 67 70 73 79 78 75 79 86 82 92 92 93 92 95 99 99 86 74 74 90 77 78 78 79 83 74 80 99 95 94 71 62 69 74 76 70 82 63 90 86
65 63 61 61 62 64 65 66 69 73 80 83 76 91 95 94 84 91 97 97 98 99 87 87 69 93 99 83 86 94 80 81 75 74 84 85 86 68 62 64 63 81 89 72 86 89 95
65 63 62 62 62 64 66 67 69 74 81 80 93 94 90 88 88 95 95 98 100 93 67 69 95 83 85 92 89 90 70 62 60 65 68 73 90 73 67 61 65 70 66 88 94 78 88
65 63 62 63 63 64 65 67 70 74 80 75 93 91 79 87 93 96 99 100 87 64 70 64 83 71 77 79 81 77 78 66 56 63 65 68 78 81 72 79 82 82 91 87 82 88 92
66 64 63 64 64 65 65 67 69 72 81 86 94 93 83 87 96 99 100 98 85 87 79 75 62 62 75 75 79 80 79 68 57 60 68 65 82 97 84 73 66 74 79 82 88 83 98
65 66 63 63 64 65 66 66 68 70 78 96 95 96 89 88 97 92 88 93 90 84 76 65 64 59 67 72 77 74 70 57 59 60 66 62 84 95 89 82 78 83 78 74 75 84 93
66 68 65 63 64 65 65 66 66 68 75 93 95 95 94 95 95 89 96 92 83 72 71 59 62 59 65 67 66 74 69 66 58 57 63 61 80 81 87 79 86 91 84 78 81 99 91
64 68 64 64 63 65 65 65 66 67 75 92 97 97 96 98 91 90 94 87 82 85 72 61 61 59 61 74 74 80 73 70 65 68 70 66 89 93 85 78 83 82 78 82 90 79 90
65 67 66 64 63 64 65 65 65 67 74 95 95 90 81 94 94 88 83 85 82 79 76 70 62 64 64 69 67 80 70 74 71 72 69 74 97 92 94 83 90 94 83 82 80 76 75
66 66 73 65 65 64 64 65 64 64 76 97 96 87 92 85 92 87 80 78 76 79 70 73 71 84 84 82 78 62 61 60 61 73 82 81 94 95 97 82 90 95 87 82 82 75 72
66 65 70 68 66 66 63 64 64 63 73 98 94 98 87 94 96 88 86 84 75 82 77 80 76 82 82 71 69 69 71 67 65 71 68 89 94 96 96 88 96 67 74 70 72 69 71
65 66 69 76 70 67 67 65 64 62 64 92 95 98 97 89 78 88 88 90 82 80 84 85 84 82 78 77 85 87 86 72 69 66 75 72 87 96 93 91 80 75 81 86 86 80 74
68 66 70 76 68 65 65 66 61 64 63 87 89 96 97 99 93 86 98 92 88 88 86 88 86 83 81 90 88 93 97 86 89 93 80 78 81 98 99 98 98 64 81 79 77 89 72
73 69 69 70 78 66 60 61 64 62 63 81 90 90 97 94 77 86 98 94 90 87 88 89 90 86 84 94 95 94 91 86 92 92 98 99 99 98 98 96 87 63 59 77 88 73 77
66 71 71 68 72 79 68 61 66 61 60 74 86 89 91 98 88 74 80 85 85 93 92 84 88 90 96 94 95 94 94 91 92 87 94 92 95 98 92 99 94 66 81 82 68 77 77
66 76 78 72 70 71 74 66 61 59 60 72 89 83 88 97 84 79 62 63 69 74 83 86 84 90 92 95 97 95 97 93 91 94 87 93 89 93 87 78 59 62 70 71 73 76 78

GFSGBSN_sfc_rhum_030.txt.gz
RH
70 64 62 65 66 64 67 66 62 62 62 61 56 64 66 65 64 64 64 63 62 64 60 59 59 61 80 98 82 60 64 65 58 72 78 82 80 76 75 72 65 69 64 57 52 51 54
64 66 67 66 63 62 70 69 64 66 65 63 56 63 61 64 63 64 65 63 62 60 58 55 62 62 90 97 56 53 54 70 65 82 90 78 75 66 68 71 66 62 57 55 52 50 52
64 66 61 65 62 64 70 70 68 65 67 65 62 64 63 64 66 64 63 63 64 60 60 61 64 65 93 83 52 53 62 74 70 81 92 76 69 69 66 70 61 60 68 67 60 58 56
66 66 66 58 64 70 71 70 69 66 65 66 66 66 64 63 64 65 66 66 66 64 61 59 61 74 91 68 80 66 55 88 86 81 74 76 72 71 71 65 66 71 73 85 62 59 56
66 67 65 65 65 63 68 69 67 70 68 66 68 68 68 61 62 68 67 68 66 66 65 61 77 90 83 75 76 58 54 81 90 86 82 67 77 81 72 78 82 83 94 89 69 57 59
66 64 66 62 65 63 66 64 60 62 64 64 66 69 63 59 60 62 68 67 69 71 72 65 66 93 84 81 78 63 70 74 75 78 81 81 82 92 90 76 87 80 86 85 82 60 66
66 64 64 59 65 62 59 55 59 65 66 64 64 65 64 66 63 63 78 87 82 84 91 85 85 76 79 66 62 71 66 83 93 90 91 86 94 90 80 83 74 73 79 81 72 57 63
62 62 64 61 70 60 64 62 66 73 74 73 75 77 80 74 75 68 85 90 89 86 92 68 81 82 76 71 78 78 62 88 89 96 91 96 93 80 75 69 75 77 84 87 72 61 62
63 64 60 62 60 63 63 65 70 71 71 74 75 75 75 79 75 79 88 85 85 87 91 81 79 88 80 75 78 81 71 80 87 92 87 90 80 83 70 75 79 74 82 84 80 65 64
62 66 65 60 62 64 63 67 70 72 74 76 77 77 79 79 85 87 86 88 91 84 94 93 96 88 78 68 80 64 72 78 89 90 81 89 85 82 88 84 71 78 64 66 66 76 84
63 60 63 61 61 61 65 69 67 71 78 77 76 80 79 77 91 86 87 91 87 89 96 96 92 76 66 73 75 73 68 67 87 85 86 88 94 94 92 89 67 71 61 65 72 79 80
64 62 62 62 62 63 66 69 70 74 78 76 79 78 77 85 90 86 94 91 91 90 97 99 91 79 81 77 80 70 69 66 72 79 72 69 57 69 77 70 61 57 62 71 82 82 88
64 64 62 62 62 64 65 67 73 76 77 78 73 78 81 86 94 92 92 93 92 96 98 98 95 80 82 85 78 72 75 78 94 99 100 78 70 61 58 68 62 62 70 91 76 87 80
66 64 62 63 63 65 66 69 72 75 78 82 77 79 83 88 90 90 93 90 92 98 95 82 78 80 93 86 83 76 76 83 73 88 95 95 94 67 61 69 74 80 70 84 62 83 80
66 64 64 64 64 65 66 68 70 74 79 83 72 91 95 91 84 90 98 97 98 100 84 84 71 88 96 85 87 90 90 84 78 79 86 90 87 69 62 67 65 82 89 75 88 90 92
65 66 64 64 65 66 66 67 70 72 76 81 93 93 92 85 92 96 98 96 100 89 68 71 93 86 95 92 89 89 86 74 71 67 70 77 92 74 68 64 67 71 66 85 92 76 76
66 66 65 64 66 67 67 67 68 72 77 78 91 89 81 90 92 96 99 100 82 71 75 68 87 81 87 88 87 86 80 68 62 70 62 70 80 85 72 81 82 80 91 86 82 87 86
66 67 66 66 66 67 67 67 68 69 77 84 94 91 82 87 97 98 100 98 86 88 82 70 62 69 82 82 85 83 83 70 59 61 69 67 84 98 84 77 71 78 81 79 86 83 97
66 67 68 66 67 67 67 67 67 68 76 97 95 94 87 86 98 96 87 89 89 87 78 69 66 61 73 74 79 74 70 62 62 59 64 67 84 95 88 79 79 84 81 74 75 84 96
67 65 70 66 66 67 67 67 67 67 75 94 95 94 93 95 95 85 90 90 83 76 73 63 66 65 68 70 67 74 74 68 63 59 62 61 79 81 84 76 86 94 86 79 80 97 89
67 66 71 67 67 66 66 67 67 66 75 91 98 96 91 98 93 95 93 91 88 88 77 64 67 65 66 80 81 81 75 74 68 69 72 66 91 92 84 76 86 83 82 86 87 82 89
66 67 67 72 68 66 66 66 66 66 74 94 93 92 81 86 96 88 83 86 86 82 86 74 67 66 69 74 70 81 72 76 76 71 75 74 96 91 95 84 90 95 86 81 82 75 76
66 68 67 72 68 68 68 69 65 66 75 91 94 88 96 84 94 88 86 86 82 82 75 80 70 83 86 87 85 69 63 62 65 74 84 79 96 95 94 85 90 94 89 83 77 78 72
67 67 67 70 71 70 67 71 65 65 74 98 95 98 92 94 97 92 89 87 83 84 82 85 81 81 83 76 76 70 71 70 68 78 74 85 92 95 97 89 96 68 74 70 71 68 70
69 68 67 70 75 68 62 65 64 64 69 91 97 97 97 86 77 89 93 94 83 83 86 86 86 83 82 79 84 84 82 73 69 67 76 68 85 96 94 91 78 73 82 77 78 78 68
69 71 68 70 71 78 67 62 66 62 67 87 96 96 96 96 91 80 81 95 92 91 86 89 88 85 82 92 85 92 96 86 90 94 80 79 79 90 94 97 97 63 83 78 79 83 74
70 71 71 71 68 71 80 70 61 67 63 81 88 90 95 98 86 88 91 91 92 92 92 89 90 88 84 93 94 93 92 83 96 96 92 98 99 97 91 94 86 65 61 76 89 74 76
73 66 72 75 71 68 70 79 67 64 60 79 86 88 88 94 84 73 72 75 80 86 94 88 90 90 95 93 93 93 94 92 92 90 93 88 94 90 85 98 96 69 83 79 67 77 78
72 71 75 77 79 70 72 73 83 64 58 74 87 83 86 94 83 71 62 61 68 65 76 81 94 88 91 94 96 96 98 97 91 96 89 94 86 94 86 84 62 61 69 67 72 72 78

GFSGBSN_sfc_rhum_033.txt.gz
RH
61 62 64 63 63 62 64 71 70 69 65 67 66 65 65 60 63 63 62 64 61 58 62 60 55 64 68 89 83 61 64 58 57 64 78 77 80 74 73 68 62 62 60 53 49 49 48
62 64 65 64 65 64 64 67 70 71 68 68 68 68 67 65 64 63 63 61 60 61 62 57 58 65 80 96 66 77 58 60 60 74 80 76 71 63 65 65 62 58 54 51 48 47 46
61 64 65 64 64 64 63 67 68 66 66 69 68 67 68 66 67 63 64 62 62 62 62 62 64 66 78 71 61 82 58 73 61 74 82 76 57 61 60 70 57 56 62 56 54 51 49
65 63 66 62 61 61 65 66 60 58 59 61 65 67 67 70 67 65 65 66 64 63 64 58 58 74 78 54 74 74 58 84 66 72 73 72 61 63 62 58 62 66 63 74 55 57 51
66 64 66 61 58 69 63 63 62 68 69 70 71 70 68 68 64 61 61 67 66 64 63 63 78 82 89 73 78 64 54 80 84 83 84 68 67 74 64 73 80 73 81 79 62 57 54
63 58 64 62 63 61 65 63 67 72 72 68 69 71 76 69 61 59 61 65 66 72 72 67 70 90 78 82 78 59 70 78 82 92 81 77 84 89 82 77 80 88 78 77 65 52 60
62 62 61 63 61 64 63 67 72 71 72 70 72 74 74 71 71 73 76 82 77 81 89 78 76 78 78 75 72 73 78 81 77 82 96 86 92 86 72 68 65 67 72 70 63 53 55
60 63 62 60 63 65 65 72 71 72 72 72 70 73 74 71 77 73 83 87 90 86 88 63 69 74 79 72 81 86 88 84 89 93 86 90 90 73 71 68 66 69 75 75 65 55 55
63 61 60 61 61 62 68 73 72 72 73 72 76 77 76 70 74 82 84 86 87 82 91 76 73 88 79 77 81 90 90 90 83 88 75 78 77 70 69 77 78 78 78 77 70 59 54
64 63 63 62 62 66 70 72 72 71 75 72 73 79 77 73 83 86 85 94 88 81 96 95 89 85 75 73 88 70 91 90 94 93 86 86 83 77 76 78 69 82 59 63 61 67 72
64 63 63 63 62 64 66 72 72 73 76 74 74 74 76 76 92 91 89 92 89 88 96 98 92 85 75 74 83 78 78 65 84 91 93 95 92 94 84 82 66 75 59 62 64 70 66
64 64 64 64 63 64 65 70 75 72 77 82 72 75 73 88 92 98 93 86 86 88 97 99 91 85 85 78 84 84 83 75 75 82 73 81 78 86 92 86 76 56 58 66 71 70 80
64 64 64 64 64 64 65 66 73 72 78 81 74 73 81 85 96 94 93 92 91 95 96 98 93 78 85 86 83 76 88 90 94 99 100 93 68 59 81 86 65 58 72 90 76 87 76
66 67 65 65 65 66 65 66 68 71 74 80 80 78 83 84 87 88 95 94 90 99 99 83 82 79 93 88 84 73 74 86 72 81 97 92 96 67 58 68 79 67 70 82 67 60 59
65 66 65 65 66 66 66 66 68 71 75 77 76 90 92 90 84 93 97 94 97 99 79 78 73 80 88 88 84 85 85 83 72 68 83 86 90 63 63 63 63 75 86 61 84 82 80
67 65 65 66 66 67 67 67 68 69 79 82 93 93 89 87 94 93 97 98 100 88 69 72 88 84 95 94 91 87 82 73 72 66 66 74 96 71 67 62 64 68 64 81 87 79 63
66 65 66 66 68 68 68 68 68 68 75 74 91 85 78 92 93 96 99 100 90 79 77 72 86 84 90 92 91 94 82 64 62 66 61 67 79 83 71 76 77 75 83 78 73 77 70
66 65 71 67 68 68 68 68 68 67 74 87 93 90 82 87 94 97 100 96 86 88 82 66 64 73 83 80 83 82 79 70 58 59 68 67 81 97 81 71 66 69 73 66 76 80 88
67 66 68 70 68 68 67 68 67 66 74 97 96 93 85 86 94 96 86 80 87 85 81 69 67 64 73 76 79 74 69 62 60 58 66 63 81 95 86 75 75 79 76 69 69 78 97
67 66 68 73 70 69 68 68 67 65 74 93 95 91 92 95 95 90 93 91 86 80 78 64 67 68 68 72 71 75 73 74 63 60 65 59 74 80 76 74 84 94 82 72 76 91 80
66 67 67 68 70 69 69 69 67 67 72 90 97 93 88 98 94 94 95 92 89 86 81 66 69 67 68 82 84 84 79 76 70 69 70 66 90 90 79 71 83 80 79 82 86 76 83
67 66 67 68 72 70 68 71 66 69 71 94 95 89 72 81 95 93 82 88 88 86 88 77 68 68 73 75 68 80 75 80 78 75 74 74 96 90 94 80 85 93 82 80 78 72 73
69 65 68 68 74 71 66 70 66 70 72 94 92 87 92 80 95 93 88 88 84 84 82 85 69 79 85 85 84 75 67 65 67 76 82 77 95 94 90 78 86 95 88 81 77 77 68
65 69 69 68 73 70 68 64 66 68 72 97 97 97 94 87 96 94 91 91 90 84 83 86 82 79 82 73 72 66 71 71 69 78 72 82 87 90 93 85 96 64 71 70 72 66 68
68 70 70 70 70 72 77 69 62 66 69 92 97 97 94 94 83 90 87 97 91 85 87 86 87 80 80 79 83 84 84 71 70 69 72 65 82 94 94 95 73 67 77 78 76 75 63
69 71 70 73 70 70 77 79 70 67 69 84 96 96 95 96 84 73 75 82 98 94 87 90 90 86 83 89 82 91 96 86 92 93 79 76 74 83 88 92 96 58 81 72 71 81 68
70 72 70 70 74 70 70 71 83 66 66 80 88 88 93 93 82 91 92 85 88 94 96 90 93 90 85 92 89 88 93 82 95 86 95 98 99 94 89 90 84 63 72 74 92 75 68
74 74 70 73 76 80 76 70 75 85 64 77 87 88 85 90 79 68 66 90 83 79 97 91 93 92 95 91 92 89 93 92 92 88 78 80 92 86 80 94 93 67 79 81 67 71 71
76 77 73 74 77 87 76 69 68 79 72 75 93 84 84 94 81 65 58 55 59 58 64 66 92 94 92 93 95 95 98 97 92 98 91 94 82 88 81 77 62 70 72 69 68 67 73

GFSGBSN_sfc_rhum_036.txt.gz
RH
62 65 66 65 65 62 62 64 72 68 68 63 65 68 69 68 64 62 64 61 59 57 56 59 59 60 51 64 49 61 85 56 61 54 57 60 60 70 61 52 50 44 43 36 33 41 38
61 66 67 64 66 61 68 59 62 61 59 60 61 66 68 67 67 63 64 68 60 56 58 61 58 60 57 78 30 67 81 54 62 53 58 59 49 51 54 54 49 42 44 37 37 38 39
64 65 66 65 63 66 67 60 68 64 71 71 70 70 69 67 68 68 63 63 62 60 61 64 57 52 64 54 51 66 80 62 60 49 62 54 43 50 48 59 44 46 49 45 43 38 38
65 60 60 66 65 65 64 67 64 70 72 69 68 68 70 70 69 72 69 64 66 63 62 64 58 58 65 36 34 60 66 66 54 48 54 57 46 49 47 44 49 49 46 59 36 38 39
62 61 66 59 63 65 64 63 73 70 70 65 68 71 70 76 62 57 60 59 64 63 63 59 60 64 59 50 64 64 73 72 58 59 62 58 49 49 50 49 56 47 42 42 44 41 35
61 61 59 62 60 62 63 69 68 73 67 66 69 70 70 76 64 62 60 64 63 69 61 55 55 72 54 60 64 78 74 70 69 78 76 73 70 64 48 44 44 48 40 44 37 42 48
63 63 62 61 61 65 67 69 72 74 69 68 72 75 74 70 70 69 63 60 63 66 65 51 49 74 62 57 61 84 67 87 70 74 84 78 76 77 54 41 36 40 41 43 40 43 44
63 63 63 62 61 64 66 69 75 74 68 68 76 76 76 74 73 71 62 67 71 72 64 54 62 71 65 63 66 77 71 92 75 84 71 88 86 47 46 48 46 44 44 45 51 44 43
63 63 63 63 62 63 65 70 75 72 74 72 74 73 70 73 72 65 68 77 66 68 74 75 82 84 82 56 63 82 72 93 75 85 79 83 65 48 53 55 52 51 50 57 48 48 42
63 64 63 64 62 64 66 68 74 75 76 75 73 74 74 72 66 66 75 77 71 66 99 94 91 89 74 66 89 76 86 82 89 89 75 80 68 51 53 55 45 60 55 54 53 52 44
64 64 64 64 64 64 66 66 70 74 74 80 72 69 69 69 70 74 87 75 71 73 91 97 92 74 66 80 83 92 88 91 89 91 83 96 83 67 60 56 47 50 49 50 52 53 54
64 67 65 64 65 65 66 67 70 70 74 76 77 71 69 71 70 78 76 71 74 97 97 99 89 83 74 88 84 83 82 74 78 86 81 93 80 88 81 76 53 46 48 51 52 53 80
65 66 66 66 66 66 66 67 68 71 72 76 76 72 68 67 63 69 74 76 99 96 96 97 93 78 80 87 82 77 84 87 93 100 100 98 93 92 82 87 66 54 59 86 83 93 65
66 66 66 67 66 67 67 67 68 69 73 78 79 74 71 62 64 73 79 85 94 90 80 73 66 62 85 82 86 83 89 86 64 70 94 85 96 89 87 90 94 71 61 66 64 50 40
66 64 66 65 68 68 68 68 68 68 75 77 77 66 72 69 70 75 84 99 99 97 64 62 57 63 70 68 62 64 65 63 60 57 71 74 89 55 58 58 72 84 83 45 62 55 57
65 64 69 68 69 69 69 68 68 68 75 80 76 67 68 71 76 81 90 97 94 78 63 53 63 60 64 69 63 58 58 56 58 51 47 59 92 62 56 53 51 55 47 69 79 76 55
65 65 68 69 68 68 69 69 69 67 72 78 65 67 69 71 81 73 99 100 79 66 61 53 60 62 66 65 67 62 58 56 50 52 44 49 59 77 60 64 58 59 61 57 51 55 47
67 67 66 74 71 70 69 69 69 67 74 81 76 89 69 69 85 84 94 85 82 68 60 49 49 56 60 62 65 62 53 53 46 44 50 51 62 86 72 58 53 52 52 42 53 72 60
66 68 67 69 73 71 70 70 69 68 70 89 85 78 67 76 80 76 70 67 70 62 60 53 50 49 52 56 61 56 58 50 49 47 49 48 66 91 86 66 61 65 55 51 50 59 81
68 69 67 66 71 71 70 70 69 68 68 76 82 86 71 69 70 65 68 67 66 65 61 51 49 50 48 51 50 56 54 59 50 49 62 51 57 74 55 77 65 86 64 56 58 77 54
69 68 66 68 72 72 69 70 68 69 66 72 83 88 78 88 71 71 75 74 70 66 64 50 52 48 46 54 55 55 57 58 54 62 53 50 96 86 59 58 71 68 64 65 83 56 67
69 67 65 68 68 73 69 68 68 70 69 68 85 80 63 73 80 71 69 69 72 68 68 55 53 49 48 51 43 55 53 54 54 59 54 57 93 87 87 67 69 80 63 61 62 56 53
67 67 69 69 70 74 73 70 68 70 64 74 78 73 83 68 75 67 64 69 69 69 62 64 47 55 59 55 53 47 42 42 46 53 58 62 92 90 79 64 66 74 65 61 58 56 53
68 69 68 72 70 72 75 78 70 69 69 82 82 90 82 70 69 71 74 76 73 72 77 64 56 53 60 47 46 44 46 49 48 53 47 64 81 82 87 72 83 52 53 53 54 48 50
68 69 71 70 71 71 71 76 78 70 69 76 83 86 83 67 66 61 72 80 75 66 72 69 64 63 54 57 59 62 61 58 60 61 53 49 58 83 84 69 50 41 58 60 61 63 47
69 70 72 69 69 74 70 70 76 76 68 70 84 86 84 80 51 73 65 64 82 73 67 72 71 66 62 63 70 70 75 57 73 74 65 59 51 64 76 83 70 46 58 50 51 68 53
76 74 74 70 72 74 76 74 71 82 79 70 82 77 81 74 46 72 65 72 78 89 83 72 78 75 68 71 69 62 67 59 73 69 82 78 81 83 72 70 54 42 57 57 81 63 52
77 78 74 72 73 77 83 75 73 81 79 75 76 76 75 80 60 56 50 56 56 44 90 81 85 86 85 85 76 74 58 61 67 56 62 62 70 83 72 80 76 47 60 62 54 54 55
75 74 76 75 74 80 79 74 70 73 80 77 84 74 73 86 72 58 50 44 44 45 51 50 91 82 73 80 76 69 70 66 62 74 62 68 52 54 54 51 40 50 55 52 51 51 57

GFSGBSN_sfc_rhum_039.txt.gz
RH
61 64 63 66 65 62 66 60 66 64 65 67 71 71 70 68 66 67 65 63 59 58 55 56 60 58 52 55 42 59 71 65 68 53 50 51 42 53 54 41 35 42 28 26 26 34 32
62 63 63 65 64 64 63 68 63 70 72 72 69 68 70 71 66 68 66 68 62 58 55 58 57 60 52 62 24 44 71 53 70 62 47 40 37 43 46 41 38 37 33 32 28 36 34
62 62 63 65 59 64 68 62 69 70 72 68 62 67 70 69 70 69 67 69 62 61 60 60 58 45 54 47 29 59 72 55 57 62 43 35 31 43 42 55 36 38 38 37 32 33 34
63 61 61 61 61 63 66 67 68 72 73 66 67 68 68 70 73 65 64 64 62 63 61 60 59 50 60 30 27 41 71 66 52 56 36 37 35 38 43 40 45 47 42 49 37 38 33
65 62 62 62 61 66 66 66 68 73 73 66 71 71 69 70 61 56 60 58 60 62 61 60 56 57 48 39 39 34 57 74 65 62 39 47 57 44 43 49 55 45 45 43 37 34 36
64 63 64 62 62 64 68 67 70 72 73 70 74 74 73 68 67 64 61 62 63 68 59 50 47 62 42 46 46 59 60 72 82 59 72 81 77 57 50 42 50 42 44 31 33 40 37
64 64 64 64 62 64 67 70 70 73 72 70 74 73 70 68 67 67 61 54 63 64 52 49 52 52 59 41 58 72 60 86 61 75 81 86 81 71 47 33 26 24 34 28 26 35 41
64 65 64 64 64 63 65 70 72 73 75 71 72 69 72 70 69 65 51 55 70 74 60 44 54 60 60 61 77 72 71 94 67 87 50 92 92 44 35 30 29 34 32 33 33 34 39
64 65 65 64 65 64 66 67 72 74 77 77 72 73 71 70 67 54 61 69 58 58 95 76 77 82 69 78 83 88 80 87 62 73 64 76 72 43 44 41 41 34 36 34 40 43 37
65 66 66 65 66 66 66 66 68 73 73 76 77 69 69 70 68 55 69 66 65 66 100 99 93 77 72 80 89 77 82 92 83 68 62 77 56 49 53 50 35 39 34 41 50 47 35
65 67 66 66 66 67 67 67 67 68 73 76 78 74 69 63 57 61 66 61 59 72 96 97 92 64 60 67 78 86 82 82 88 92 90 93 79 59 52 44 34 45 44 45 49 50 50
65 65 67 66 68 69 68 68 68 68 69 74 77 78 72 60 57 54 61 60 69 99 97 98 77 75 71 66 78 82 86 74 86 84 79 88 79 71 52 55 40 42 46 48 48 50 78
65 65 69 68 70 72 70 69 68 68 69 74 77 79 74 54 59 56 63 72 100 95 89 90 82 78 79 83 88 86 88 93 97 100 100 95 96 88 75 63 50 46 53 80 80 92 62
65 68 67 69 69 70 70 70 70 69 69 76 80 81 67 50 50 62 74 88 94 86 68 63 58 69 90 84 86 82 86 95 85 80 99 99 98 96 85 74 69 56 52 72 65 59 48
65 66 66 71 68 68 70 71 70 72 75 77 82 54 59 55 60 70 86 99 99 98 57 54 47 63 67 59 78 72 58 77 73 59 89 86 97 91 90 80 64 86 86 42 50 37 47
66 68 67 70 71 71 68 69 70 72 74 78 65 53 54 57 63 78 81 91 88 62 51 45 53 50 54 52 55 54 50 49 54 44 42 52 90 66 74 78 82 87 50 73 75 80 47
66 66 68 68 73 72 71 70 70 69 72 77 61 57 63 56 69 66 98 99 62 53 50 46 48 49 45 50 49 46 48 50 43 43 38 42 54 73 57 69 74 80 92 62 51 52 56
67 68 68 68 69 73 71 70 70 69 71 72 70 89 64 59 76 60 76 64 73 53 48 42 42 46 44 45 48 46 44 45 40 38 42 45 57 80 69 52 47 47 46 45 56 69 49
69 68 67 68 70 74 71 70 70 69 64 83 68 57 58 64 74 63 56 53 55 52 48 44 43 43 44 46 53 48 46 44 43 41 43 40 65 87 79 60 53 60 50 46 42 54 76
68 67 67 69 69 73 71 70 70 69 63 71 62 85 54 51 50 50 50 49 54 57 51 45 43 41 42 44 40 49 50 51 44 43 61 49 49 71 59 75 55 74 55 50 56 78 50
67 69 66 69 70 72 73 72 70 69 64 65 57 71 69 82 55 56 59 57 55 56 55 45 47 43 40 45 43 44 45 52 49 60 46 46 94 81 49 49 61 64 57 54 76 59 62
68 67 69 70 70 73 74 75 71 71 67 52 80 89 66 57 64 59 64 57 59 56 57 49 50 42 39 41 37 42 43 43 46 48 48 50 87 81 91 56 57 69 55 50 56 52 48
66 68 69 71 71 71 72 75 73 73 57 46 57 57 80 58 60 56 52 57 60 61 54 53 43 43 47 44 44 37 33 33 38 46 49 55 88 92 76 55 59 70 58 52 50 46 45
68 69 71 70 70 72 72 74 77 74 61 51 60 81 69 52 57 62 62 64 63 62 70 54 41 47 50 39 38 37 38 39 40 41 39 52 75 76 87 68 84 53 45 45 47 44 43
69 69 71 73 69 73 73 72 70 73 68 58 67 68 63 52 35 37 54 59 60 55 63 62 51 55 40 48 51 58 58 55 50 46 44 39 48 72 80 65 45 36 44 52 55 55 40
72 71 73 73 70 74 73 73 74 78 75 60 69 76 69 67 47 56 50 42 66 61 59 59 61 56 54 55 58 64 64 48 66 61 51 45 43 58 64 75 62 47 51 41 44 63 47
74 76 77 73 72 74 75 77 73 80 74 64 70 69 72 76 40 46 44 60 55 77 79 64 71 70 60 65 67 64 60 49 60 59 69 68 62 75 67 67 49 33 52 47 71 68 51
74 74 76 74 74 75 77 77 71 74 78 82 68 71 67 65 53 47 45 45 43 40 68 74 72 80 84 78 78 60 52 47 50 45 52 60 67 67 61 71 73 40 58 61 52 48 51
72 73 74 76 76 75 77 78 79 76 70 84 86 70 68 87 61 48 47 45 50 42 51 47 76 75 92 86 65 54 49 43 47 55 42 57 44 47 47 48 38 39 41 47 45 47 51

GFSGBSN_sfc_rhum_042.txt.gz
RH
64 63 61 61 62 65 66 63 66 72 70 71 66 63 67 69 69 68 65 63 63 58 63 59 68 74 69 66 54 43 48 56 57 70 56 63 48 57 62 53 42 51 38 30 30 38 39
63 62 62 62 61 65 65 68 68 70 72 67 65 66 68 70 69 69 67 65 59 64 55 57 58 59 60 67 26 38 56 61 76 76 53 62 42 45 51 43 46 40 40 36 30 39 39
65 63 63 62 62 64 67 68 68 71 71 67 68 68 70 70 73 70 66 61 67 67 60 58 59 53 61 52 29 54 66 64 69 70 54 43 35 41 50 57 42 38 46 41 39 41 41
66 64 64 62 62 64 66 69 69 70 70 67 71 71 70 70 67 64 62 62 60 62 60 59 59 55 63 31 30 34 70 66 54 67 59 46 37 41 48 50 50 47 53 59 41 39 38
65 64 64 63 63 62 68 69 69 71 73 66 71 71 70 66 63 59 60 58 58 60 60 59 56 55 56 40 38 30 55 70 57 72 78 43 58 54 48 67 70 61 64 58 48 37 40
65 65 65 64 64 63 67 68 69 72 72 68 67 71 70 68 68 67 64 60 59 66 61 47 44 64 47 41 38 33 53 69 77 81 83 64 73 74 68 71 85 71 65 46 48 44 44
66 66 65 65 64 64 63 66 69 71 72 78 70 72 71 70 69 66 70 65 74 67 56 62 67 56 52 51 42 63 71 83 86 96 84 80 89 83 68 52 50 43 46 46 39 39 46
65 66 66 66 65 65 65 65 66 69 73 76 77 70 71 71 66 63 69 62 68 69 74 44 49 51 49 55 71 84 81 99 89 89 74 93 90 58 47 42 40 35 42 43 37 41 45
65 67 66 67 67 67 66 66 66 66 67 74 76 77 70 70 70 67 72 80 67 63 97 73 68 80 72 81 78 84 90 87 79 73 75 75 66 48 45 47 42 37 44 40 45 45 46
65 66 67 67 69 71 70 68 67 67 68 68 72 76 76 70 80 58 66 63 65 67 100 93 84 78 75 78 91 79 80 88 80 77 62 72 61 62 57 49 35 45 35 37 46 59 64
65 66 68 69 69 70 68 70 70 68 69 70 72 74 78 72 75 63 63 60 63 79 98 98 88 88 75 89 88 95 79 84 75 70 81 91 81 84 76 54 40 45 47 51 56 66 69
66 67 69 68 70 67 70 70 69 70 70 71 72 76 77 68 70 58 61 63 76 99 96 97 85 88 95 79 76 85 84 79 73 83 79 90 81 82 73 60 46 46 53 55 61 63 95
66 68 66 71 67 69 68 69 70 70 72 73 73 77 79 58 68 60 70 88 100 95 86 84 90 74 73 83 83 84 90 95 97 99 100 97 96 86 82 75 59 52 64 95 97 97 90
66 68 68 70 70 68 70 70 70 71 72 76 80 82 74 59 56 65 88 99 92 88 69 61 67 69 80 74 88 85 94 98 90 85 100 100 99 95 87 79 87 66 62 89 78 93 79
66 69 69 69 69 70 71 70 69 73 76 75 82 68 67 66 63 75 97 93 96 97 52 54 58 68 71 71 74 89 93 95 88 81 97 99 98 92 89 78 74 80 93 53 74 49 84
67 68 69 69 68 70 71 70 70 72 75 74 80 66 64 65 66 83 99 90 88 58 48 44 58 53 55 57 61 68 77 76 62 60 55 66 98 95 93 85 80 86 64 82 94 92 70
68 68 69 68 69 74 71 71 70 70 72 73 81 70 74 64 75 92 98 98 57 49 49 50 49 48 47 53 52 50 53 52 46 45 42 50 70 96 96 97 97 92 96 84 67 80 91
69 67 68 69 70 71 73 72 71 70 70 69 85 93 74 71 94 84 93 67 64 49 50 44 47 49 47 49 54 52 51 52 43 44 51 55 72 93 78 57 55 70 75 73 93 83 76
68 65 68 69 70 72 73 72 73 71 67 77 78 68 73 76 95 67 61 54 53 52 50 47 46 46 48 50 58 50 54 49 50 50 56 51 82 90 86 73 61 69 56 71 70 76 86
67 69 68 70 71 73 73 74 73 73 66 80 74 91 77 76 61 63 60 54 58 64 54 45 44 44 49 52 45 54 56 58 50 50 61 53 62 82 89 82 76 83 64 59 71 94 71
68 68 70 70 70 72 72 74 75 72 68 76 67 78 71 93 72 70 62 61 55 60 57 50 52 48 45 51 48 53 55 60 57 63 58 61 93 83 64 56 76 78 68 63 80 73 84
66 68 70 69 69 71 73 75 76 72 70 63 76 80 69 71 62 66 71 61 61 57 58 53 55 46 44 49 45 48 50 54 58 60 58 62 95 89 89 60 64 79 66 60 62 62 62
68 69 70 71 70 72 73 73 75 73 66 57 56 59 76 66 61 67 69 67 64 63 59 54 54 49 50 59 54 50 43 42 48 59 62 68 94 95 89 63 71 86 70 63 59 57 57
68 70 70 72 70 73 74 74 72 75 71 64 68 74 72 58 49 58 58 61 64 63 73 63 48 55 57 48 49 49 50 47 46 51 48 67 89 95 95 86 97 60 54 53 54 50 51
69 70 71 73 71 74 74 74 75 77 74 72 69 76 66 57 41 50 51 47 52 59 67 65 63 65 49 58 59 69 69 64 50 53 54 50 69 77 83 91 64 54 61 60 59 59 44
70 73 76 75 72 75 76 76 73 77 73 74 74 81 76 66 53 37 42 47 74 77 72 68 66 66 67 76 72 74 80 64 74 68 60 47 52 72 77 82 87 67 53 47 52 78 58
72 73 76 74 72 75 76 77 73 74 77 82 82 78 79 79 55 51 55 63 53 70 77 76 72 76 74 85 82 74 74 59 69 65 82 81 78 88 82 82 66 52 52 54 89 83 62
72 71 73 74 74 76 76 77 78 74 75 83 86 79 83 77 65 51 47 55 54 50 60 60 77 83 93 93 92 94 74 64 65 56 67 71 84 80 73 84 86 64 70 80 68 66 64
70 72 74 77 76 76 75 75 73 71 68 82 94 83 79 96 75 62 59 53 53 57 61 58 68 63 96 98 91 85 73 54 60 73 55 72 62 67 62 69 52 53 64 61 59 62 69

GFSGBSN_sfc_rhum_045.txt.gz
RH
63 63 64 62 62 64 66 66 66 70 70 64 71 66 67 67 67 67 66 62 60 61 61 62 66 71 74 86 77 41 47 48 63 78 78 75 73 87 80 75 57 65 51 44 44 50 64
65 64 64 62 62 66 67 66 68 70 69 64 68 66 70 70 68 71 64 61 59 58 56 57 62 69 79 84 40 59 64 46 66 74 73 71 49 62 73 65 60 53 52 46 39 41 38
65 64 65 63 63 62 65 69 67 68 70 62 72 68 68 68 67 65 64 61 63 61 59 58 58 56 70 67 44 62 64 71 69 71 79 64 58 58 58 62 51 47 56 49 55 47 43
65 64 65 64 63 62 64 71 69 69 68 66 65 66 68 67 63 64 64 63 60 62 60 58 57 67 78 41 42 39 59 68 73 78 69 59 53 51 60 56 52 54 55 70 51 46 42
65 65 66 64 64 63 61 63 71 68 70 72 68 69 71 69 68 66 62 60 59 60 60 60 74 79 75 41 46 37 53 63 81 87 87 52 61 55 61 77 83 65 80 70 54 43 45
65 65 66 65 64 64 63 63 62 69 69 72 73 70 70 70 67 65 65 64 64 65 64 56 50 75 59 57 57 46 64 54 88 88 90 78 81 79 74 88 88 86 70 60 60 48 46
66 66 66 66 67 67 64 64 65 64 65 71 73 76 70 70 69 68 74 83 84 82 71 60 63 74 56 50 54 71 63 75 78 85 92 86 86 78 72 75 66 62 64 59 53 43 54
66 67 67 67 66 70 69 68 66 66 66 64 69 76 75 70 71 71 75 78 83 83 87 59 58 62 55 53 78 76 77 90 90 93 86 93 90 72 64 57 60 60 63 60 49 45 50
66 66 68 68 68 69 66 66 67 69 68 69 68 70 76 71 71 78 83 83 74 74 96 80 73 80 76 73 79 81 83 87 78 92 84 78 74 59 61 65 60 58 52 55 53 51 48
66 67 68 68 68 66 68 70 69 68 69 71 71 68 76 76 84 73 78 76 76 80 99 93 84 81 82 82 84 78 87 93 90 92 70 76 73 62 62 63 55 63 42 45 57 63 71
67 67 68 69 67 69 70 69 70 70 71 73 72 70 78 74 87 80 76 70 74 85 96 91 90 85 85 89 82 92 86 86 83 84 73 94 85 84 74 70 54 52 50 58 63 71 74
68 68 68 68 71 71 70 70 70 70 74 75 71 72 76 84 89 71 68 74 80 95 96 99 91 90 92 88 84 82 82 73 76 80 84 90 79 88 91 74 62 53 58 62 70 78 94
68 69 69 69 68 72 71 69 69 70 74 76 76 75 75 70 83 71 79 90 97 94 81 91 82 82 79 86 86 80 87 92 93 99 100 94 95 85 82 82 71 58 65 96 96 97 92
67 69 69 68 69 68 73 70 69 70 72 77 76 81 85 76 73 74 88 97 90 83 83 71 72 74 84 76 85 86 94 97 86 91 96 95 100 96 90 85 90 78 68 89 90 97 89
67 69 68 68 69 68 67 67 70 72 77 75 77 95 93 83 73 82 95 94 92 96 57 67 70 80 79 77 82 90 94 89 86 88 92 97 99 90 86 83 80 92 97 66 75 71 87
67 68 68 66 70 70 69 70 70 72 75 76 96 95 89 81 79 88 99 90 93 68 60 56 72 62 64 74 84 95 95 80 85 72 77 83 98 95 90 90 82 80 68 86 95 100 76
68 68 65 67 70 71 71 71 72 72 75 71 97 93 86 81 80 97 96 95 76 57 58 60 62 58 55 60 58 69 71 76 67 69 62 64 81 98 96 98 96 89 95 86 77 88 92
69 67 67 69 71 73 72 72 73 73 73 82 97 97 87 92 99 93 97 83 69 59 58 57 56 57 61 58 60 60 67 59 47 52 62 56 80 99 88 75 75 74 83 76 93 85 82
68 69 68 71 71 72 72 73 74 72 68 88 99 92 86 91 97 88 70 68 66 64 60 58 55 55 56 59 63 62 65 53 51 58 56 58 84 97 98 75 78 97 83 78 80 81 86
67 68 69 69 69 71 72 74 74 72 70 92 99 97 86 96 86 74 78 66 72 69 66 53 55 53 56 60 52 66 70 63 55 57 65 58 77 81 86 78 81 88 78 74 86 97 80
67 68 69 69 69 72 73 74 74 77 76 90 95 87 88 96 86 81 76 65 66 73 68 60 62 56 60 60 55 62 70 71 62 65 62 66 85 81 70 70 78 77 74 70 96 72 84
66 68 70 70 70 72 74 74 74 76 70 76 95 95 86 86 80 82 77 77 77 67 68 60 65 56 56 66 60 60 63 66 68 74 67 73 95 90 85 67 74 82 72 70 68 63 68
67 69 70 72 70 73 74 75 75 76 76 85 85 84 94 83 71 80 72 74 70 72 66 65 65 66 59 69 68 63 53 51 56 68 72 79 91 94 92 72 80 82 74 68 67 64 60
68 68 70 72 72 74 76 75 76 77 80 88 90 96 90 78 46 55 50 48 57 63 76 72 68 62 56 53 54 53 52 52 55 64 60 84 87 94 95 86 96 56 61 58 57 57 58
68 70 74 74 72 75 76 75 75 75 74 92 91 97 95 89 61 45 42 46 61 74 80 76 80 82 79 69 69 74 77 68 60 56 58 61 73 90 90 84 67 64 65 61 66 65 53
69 72 75 74 72 75 77 77 74 75 76 93 94 94 96 95 78 46 53 59 73 90 84 77 70 69 76 87 84 81 80 72 83 76 64 56 60 79 88 86 92 69 59 54 59 84 59
71 72 73 73 73 75 75 77 77 75 74 92 91 82 93 96 76 64 70 71 65 68 68 80 63 79 84 94 89 85 76 63 86 85 88 80 78 92 89 89 71 50 60 58 88 76 65
72 70 73 73 74 76 74 75 73 71 75 90 93 83 85 96 90 67 67 68 64 63 68 67 77 86 94 96 93 92 87 72 74 70 82 86 90 94 89 86 89 64 73 78 68 76 74
72 72 74 77 76 74 74 74 73 69 70 77 96 86 83 98 90 77 70 69 66 66 76 70 74 66 99 99 99 98 88 74 75 82 73 78 70 81 74 73 54 70 68 68 66 70 74

GFSGBSN_sfc_rhum_048.txt.gz
RH
66 64 66 62 62 61 68 65 67 72 66 62 69 65 65 68 68 69 63 63 57 60 60 67 64 67 66 80 72 46 53 60 50 69 71 68 89 85 90 81 76 69 58 51 62 78 80
65 64 62 63 63 62 67 67 69 68 71 64 63 64 65 64 66 66 64 61 59 60 58 58 66 67 70 95 47 54 53 55 53 76 76 73 77 78 77 75 77 65 54 60 63 64 66
64 63 62 64 63 63 61 66 68 72 67 70 66 68 68 66 62 65 63 61 62 60 59 58 58 64 73 75 64 54 62 74 59 79 74 67 60 72 70 74 64 58 67 62 54 49 47
66 65 64 65 63 64 63 63 61 70 73 68 71 67 69 68 67 64 62 62 59 61 60 58 57 71 84 45 48 44 57 77 82 86 69 65 57 70 71 62 62 62 61 75 57 50 43
66 64 64 65 65 68 66 64 64 62 66 70 70 72 69 69 67 65 65 63 60 60 59 59 77 81 81 43 51 44 58 71 82 89 86 63 71 68 66 81 82 78 86 71 61 48 48
66 65 65 66 66 69 66 70 66 65 64 63 69 75 74 69 69 71 67 64 62 68 66 60 64 76 61 56 56 59 60 71 82 90 97 87 86 86 82 86 84 80 81 59 65 55 52
66 66 66 64 64 72 66 64 63 68 67 67 66 69 75 74 71 70 75 78 83 82 75 74 65 69 60 52 58 71 64 79 79 89 97 92 90 89 77 76 67 66 67 65 60 49 53
68 66 66 66 67 65 65 68 67 67 64 71 68 69 70 75 72 71 78 87 90 80 86 67 63 71 63 56 80 76 72 77 90 94 88 97 90 73 66 67 63 63 71 72 54 48 52
68 67 67 65 64 68 68 68 68 68 66 72 72 70 67 73 76 75 78 86 78 76 92 77 75 80 78 74 83 83 77 86 91 95 94 85 73 65 64 71 72 77 71 69 58 56 52
68 67 67 65 72 70 70 69 68 67 69 69 69 69 69 78 85 82 82 74 80 80 98 92 90 85 79 81 93 74 84 94 91 93 88 80 74 70 72 74 62 78 49 48 58 68 81
69 68 69 68 66 71 74 70 68 69 70 70 73 71 71 72 85 88 75 78 81 88 95 84 90 78 76 84 80 93 87 81 86 93 90 98 82 78 78 68 55 61 49 59 65 74 76
68 69 69 69 70 70 66 74 71 69 71 73 72 72 77 86 93 80 72 73 82 88 96 99 85 91 93 84 87 84 88 85 84 82 85 90 82 88 89 76 62 56 62 68 77 81 90
67 69 67 68 69 68 64 71 67 68 70 74 74 74 79 78 89 76 77 89 93 94 78 94 94 91 88 85 84 76 88 92 96 98 98 95 93 85 89 78 69 64 69 96 93 96 87
66 69 66 68 65 68 67 69 67 68 70 75 78 80 84 80 79 80 86 94 90 82 96 78 79 88 92 76 84 85 92 94 87 87 96 97 99 93 86 86 83 70 75 91 90 97 88
67 68 66 65 67 67 67 66 68 67 76 77 76 96 96 88 80 77 94 97 89 90 67 78 78 91 85 80 81 88 96 85 86 92 88 95 98 87 85 80 83 88 96 78 80 81 91
65 68 65 63 66 71 70 69 70 71 75 74 96 96 91 85 80 87 96 89 92 73 65 62 81 72 94 89 93 87 91 69 80 85 82 88 97 95 90 82 86 91 72 88 94 97 78
68 67 67 68 71 72 71 71 72 72 72 73 96 94 91 84 77 97 97 95 83 63 62 62 67 64 63 72 81 85 93 84 70 78 76 75 85 98 94 98 96 95 99 93 77 82 93
67 68 68 70 70 71 72 73 73 73 73 83 96 98 90 87 99 99 97 87 68 65 62 64 58 62 66 60 64 73 76 68 69 65 72 69 88 95 92 81 78 81 86 73 91 91 87
68 68 68 69 70 72 73 74 74 73 70 95 98 95 93 86 99 93 75 71 69 68 66 62 59 57 58 62 70 71 70 58 57 58 67 61 88 98 95 85 78 97 92 77 78 80 88
68 68 69 69 70 73 74 75 75 73 69 94 96 96 85 96 84 87 84 73 76 71 68 56 58 54 59 63 55 74 74 64 60 58 62 62 79 81 85 77 86 99 92 82 88 98 77
67 68 70 69 70 73 74 76 76 75 68 86 96 94 92 96 76 75 77 75 75 80 70 62 65 61 63 68 63 76 77 73 62 64 66 62 85 82 74 74 79 81 84 84 93 75 83
68 67 70 71 71 74 75 76 76 75 65 80 95 96 93 95 84 74 78 78 82 69 72 66 69 67 61 77 67 65 69 77 71 77 76 76 92 88 84 67 78 81 75 83 78 79 79
69 68 70 72 72 75 76 76 75 75 74 91 96 90 96 84 59 76 63 59 65 70 74 71 79 74 73 75 72 70 58 58 60 69 76 80 92 92 89 79 77 79 74 72 74 70 76
70 69 71 74 73 75 76 75 74 76 81 90 95 97 81 73 67 64 42 45 56 62 74 73 82 67 76 73 62 59 58 62 64 75 70 86 87 92 95 84 93 59 63 60 59 58 59
72 71 74 74 73 75 76 77 74 76 78 93 96 96 95 86 73 54 57 57 64 69 80 75 80 72 79 73 75 78 80 72 66 65 69 70 85 94 95 97 69 57 69 69 70 65 53
72 73 75 74 73 76 76 76 77 75 75 95 96 95 96 95 90 64 69 64 78 69 76 76 66 56 81 91 89 88 92 80 84 77 60 58 61 78 92 83 94 62 67 59 60 84 66
74 74 76 74 74 75 74 74 73 73 75 93 96 89 95 96 87 82 78 73 65 68 65 71 58 73 86 95 93 91 83 70 88 88 86 79 78 88 91 96 78 55 54 60 85 71 70
75 74 76 75 74 75 74 73 71 70 75 90 96 84 85 94 94 76 75 85 79 68 74 68 78 83 95 97 94 92 90 76 81 78 83 86 87 94 91 95 86 58 77 75 67 78 78
75 75 76 77 78 75 74 75 76 74 74 87 96 88 84 97 91 89 83 78 73 70 79 75 82 80 99 99 98 98 97 87 81 83 81 82 73 84 77 76 51 55 66 69 72 70 79

GFSGBSN_sfc_rhum_051.txt.gz
RH
63 64 63 64 61 63 61 64 67 72 70 70 63 63 65 63 66 66 64 60 57 59 59 63 64 66 68 86 80 56 55 50 54 63 74 77 82 80 71 59 75 80 66 56 69 76 74
64 62 63 63 64 64 63 62 60 69 71 70 69 65 65 66 62 65 64 62 59 60 58 61 63 64 71 92 56 57 62 58 60 69 74 73 75 64 78 82 77 76 65 68 73 74 69
66 64 65 65 65 68 66 64 64 60 67 72 72 71 68 68 66 64 65 64 62 60 60 58 58 72 81 79 58 62 64 78 64 63 75 74 62 74 75 84 75 76 76 83 82 76 79
66 64 63 67 67 69 64 70 67 63 62 61 72 76 70 68 68 66 66 64 64 63 64 59 57 74 82 54 73 69 59 75 79 60 76 72 64 77 75 70 69 70 84 84 77 70 62
67 66 63 64 68 64 65 62 63 68 69 64 62 70 70 71 69 71 70 66 63 63 62 60 79 80 84 50 76 60 62 73 85 85 83 63 73 76 76 83 88 82 94 83 70 58 59
68 66 65 64 63 64 62 67 70 69 66 70 68 63 67 71 72 72 71 65 67 71 67 63 67 83 64 57 54 61 65 68 80 92 84 77 83 88 90 87 85 84 88 72 71 60 56
68 68 67 66 65 63 70 70 73 71 68 67 69 74 65 69 74 72 79 76 80 78 76 84 73 69 62 54 57 70 70 73 88 87 95 90 96 87 83 82 70 72 77 78 70 56 56
69 68 67 66 66 67 70 70 68 72 70 63 69 74 64 68 72 74 79 87 81 80 83 69 71 72 68 60 81 78 69 85 87 97 95 95 96 77 70 63 63 68 77 78 65 55 56
69 68 67 64 66 68 69 69 72 72 71 68 73 72 69 67 78 78 79 86 80 78 91 80 78 83 79 80 86 84 76 82 92 98 95 92 74 69 70 72 69 78 76 76 71 60 55
68 69 68 65 67 66 69 69 68 71 71 68 73 68 70 72 85 86 84 70 82 84 98 91 89 88 83 81 91 77 80 84 89 96 94 86 70 74 80 77 71 83 58 59 63 72 82
68 70 69 66 70 68 66 68 68 68 68 70 69 71 69 74 90 88 75 80 84 85 95 81 89 73 76 88 78 87 77 87 93 91 94 96 76 78 81 76 58 68 54 55 69 80 77
69 69 69 66 69 71 69 64 68 69 70 70 72 73 70 85 88 85 74 73 81 89 96 98 87 90 92 88 85 87 92 95 79 87 88 92 88 80 85 72 58 58 65 69 80 81 94
68 68 69 65 68 69 67 65 65 66 70 74 74 75 75 83 91 78 77 84 93 92 77 91 93 90 92 88 83 84 91 93 99 99 100 90 94 92 84 77 72 63 68 95 95 96 94
67 68 68 65 67 68 66 68 66 69 69 77 76 83 83 82 85 79 85 87 94 83 87 70 83 84 88 76 89 84 89 96 88 83 94 98 100 91 90 85 81 71 66 91 89 96 89
66 68 68 65 65 67 68 67 68 68 76 79 78 96 97 90 78 79 87 98 86 89 80 84 81 85 91 82 80 89 86 92 89 88 89 97 97 85 87 88 83 90 92 71 83 84 93
66 67 67 66 70 71 71 70 71 72 77 76 96 95 95 88 76 84 96 91 92 76 68 70 90 90 95 89 84 88 94 82 85 88 83 87 98 83 88 82 87 87 78 87 94 94 86
69 67 66 69 70 72 73 72 73 73 74 75 96 96 94 81 78 97 98 94 83 69 66 67 70 73 82 91 86 92 84 81 75 87 80 80 84 95 91 94 88 94 98 92 83 88 86
69 67 67 69 71 73 74 74 75 75 75 83 95 98 87 93 99 97 99 87 72 68 65 66 62 66 71 70 83 84 93 81 74 75 83 75 86 92 86 83 76 85 86 89 92 95 93
71 67 68 69 72 74 74 75 76 75 71 96 97 95 89 89 98 96 81 74 73 71 69 66 62 60 62 67 77 80 76 63 72 68 72 69 89 97 97 90 83 97 88 84 76 85 90
71 69 69 70 72 74 75 76 76 72 69 94 95 94 84 97 90 87 91 83 76 72 70 60 64 57 62 67 65 76 76 68 62 57 64 60 81 81 87 80 90 98 88 91 95 99 84
71 70 70 70 72 74 76 76 76 74 66 82 96 97 92 96 84 85 87 84 81 80 73 67 66 67 66 73 74 83 81 75 66 65 74 65 87 86 75 69 84 89 91 82 99 93 89
71 71 71 71 72 74 76 76 76 77 65 87 87 84 94 92 85 80 76 90 84 79 72 75 76 76 67 82 74 74 74 77 74 78 79 77 93 87 88 72 84 84 80 87 80 80 83
72 72 73 72 73 74 76 76 77 76 73 93 96 92 96 75 66 77 61 64 67 68 74 68 85 84 80 75 75 75 64 63 67 70 80 80 92 91 88 83 75 80 72 74 83 83 79
73 73 75 73 72 75 77 78 76 76 80 93 97 96 71 68 71 60 58 59 62 72 85 73 88 82 84 83 78 71 65 67 68 78 75 84 85 89 94 83 90 60 60 62 67 58 73
73 74 77 73 73 75 76 77 77 74 78 95 97 95 89 88 80 69 72 68 64 67 81 79 75 61 60 75 73 76 83 77 73 71 79 72 87 95 94 98 72 54 75 72 71 66 58
74 77 78 74 75 75 75 75 74 74 77 94 97 96 95 89 92 73 81 74 87 79 70 74 59 50 78 91 88 88 94 80 86 78 62 64 68 79 95 83 94 58 77 65 65 86 71
76 77 76 74 76 74 74 73 72 74 76 93 96 92 94 94 89 86 85 83 74 82 75 70 64 71 84 90 97 95 88 78 88 86 89 84 82 93 87 96 85 59 55 63 87 66 78
77 76 76 74 77 75 74 75 74 75 76 90 96 87 93 93 92 85 82 87 86 79 80 72 85 83 95 96 98 92 94 82 85 82 84 87 90 95 91 96 91 56 77 76 64 78 78
75 76 77 77 78 75 76 76 75 74 77 86 95 92 84 95 90 91 87 83 81 78 82 81 88 91 97 99 97 96 87 95 84 86 84 84 74 84 83 78 54 56 69 68 74 78 77

GFSGBSN_sfc_rhum_054.txt.gz
RH
66 64 64 63 64 63 67 66 64 59 63 69 71 71 63 69 64 65 65 63 60 60 62 62 63 66 71 87 86 52 61 56 57 70 71 87 80 85 90 87 89 90 78 63 67 63 60
67 65 63 65 62 67 67 69 68 66 61 62 69 72 72 64 66 65 66 65 63 63 62 61 64 64 76 90 61 54 61 56 62 64 77 82 72 70 82 76 79 70 65 67 69 67 68
67 66 64 63 66 61 65 61 63 65 66 64 59 69 73 73 66 67 66 65 64 62 64 62 59 72 92 76 57 69 63 61 73 65 76 77 68 67 78 87 73 69 70 87 89 78 84
68 67 65 64 65 64 69 70 65 66 65 66 70 60 69 72 70 69 71 68 65 62 62 62 59 78 90 55 69 66 66 65 78 71 62 70 76 71 77 75 83 84 82 89 90 83 74
69 68 67 65 63 66 66 70 66 67 69 69 68 70 65 65 72 72 72 70 65 63 62 60 81 87 82 60 74 57 65 68 79 70 73 66 80 74 74 85 92 80 96 90 95 80 89
70 69 68 66 64 66 67 70 69 70 73 72 71 71 70 63 71 75 72 70 66 70 67 65 70 91 62 57 56 62 67 76 79 85 89 97 90 81 90 89 92 90 92 89 88 86 86
69 69 68 67 64 68 73 68 72 70 74 74 75 74 72 64 71 74 82 75 80 77 77 80 74 73 64 56 56 71 65 83 87 78 92 96 95 91 88 86 74 78 78 84 79 66 74
69 70 68 66 64 65 68 66 70 73 74 72 74 76 73 67 68 75 81 79 85 79 90 69 73 74 68 65 82 80 67 82 88 93 93 97 94 72 76 68 69 72 79 84 72 67 71
69 70 69 67 66 68 70 69 68 72 74 72 73 76 72 66 70 82 79 83 83 79 91 76 77 84 80 83 86 88 73 79 88 95 97 95 77 69 74 76 75 81 80 78 77 68 64
70 69 70 68 62 71 70 67 70 72 73 74 74 72 68 66 84 90 86 75 85 81 95 85 89 83 82 82 88 78 79 81 90 96 95 88 70 73 81 77 70 85 65 62 69 75 90
69 69 70 69 65 68 68 70 68 65 71 74 71 69 66 71 92 90 77 84 86 81 94 82 88 72 78 84 83 83 78 77 89 95 96 96 79 84 82 72 59 71 60 62 72 80 79
69 69 70 68 63 71 71 71 70 70 71 67 69 72 69 83 87 86 76 75 84 87 93 98 84 87 91 88 88 86 88 85 80 92 92 92 83 80 81 69 61 62 66 72 80 81 95
70 68 70 68 65 68 66 70 69 71 67 69 71 77 74 85 93 81 79 86 92 91 75 91 87 86 88 87 86 86 92 96 99 100 100 93 92 92 82 79 72 66 72 98 96 97 94
71 69 70 67 67 65 66 67 66 66 69 74 77 86 78 84 82 77 84 86 95 82 82 75 83 86 92 84 88 92 91 99 89 93 98 100 100 94 91 80 81 70 68 91 89 97 89
70 69 69 68 67 69 68 68 68 72 73 75 78 96 97 86 78 81 90 98 87 85 75 86 84 89 88 83 85 82 90 95 84 81 88 96 99 87 86 87 81 88 82 67 84 87 93
70 70 67 68 70 71 71 72 72 73 74 76 96 95 96 88 79 87 99 92 92 73 72 72 94 87 99 87 86 82 89 84 81 85 82 86 97 83 86 87 87 84 72 86 93 93 92
71 70 66 68 70 73 74 74 74 74 74 76 96 95 92 81 81 98 99 94 83 70 70 69 73 72 89 97 77 87 87 84 75 89 74 81 80 98 85 93 93 93 97 88 82 87 90
72 70 67 68 71 74 75 75 74 73 72 82 94 98 86 84 100 98 98 92 74 70 65 66 63 66 73 87 90 95 88 87 76 81 78 80 86 93 89 81 78 80 90 86 94 91 94
72 71 69 68 72 74 75 76 75 73 71 96 97 98 90 90 98 93 87 74 75 73 70 66 64 60 63 66 76 72 72 70 79 72 77 75 90 98 96 83 84 91 86 80 84 90 95
74 72 70 68 71 74 75 76 75 71 72 93 94 96 85 97 94 86 92 92 78 73 71 63 66 61 64 66 72 80 76 66 61 66 74 67 86 83 86 79 89 97 79 76 88 99 86
74 73 72 69 72 74 75 76 76 70 65 77 95 96 93 97 91 80 89 89 92 90 75 68 71 79 73 76 78 84 81 76 65 74 77 74 96 86 80 71 89 92 89 88 97 83 89
74 74 73 71 71 74 77 76 76 71 64 89 81 80 94 90 79 86 65 85 82 75 87 85 87 85 76 82 84 81 80 81 78 78 82 78 95 86 87 75 88 89 86 91 85 82 84
74 75 74 72 73 76 78 77 76 73 70 93 97 94 92 71 73 73 59 56 67 72 75 74 85 87 83 92 92 83 75 68 72 73 82 78 92 92 86 85 81 88 78 82 86 85 74
74 76 77 73 74 76 77 77 75 76 79 93 98 95 69 69 66 59 69 61 66 76 88 76 83 81 88 73 88 78 70 72 70 82 76 84 85 88 91 85 80 53 61 63 70 65 75
75 77 79 73 76 75 75 74 75 79 74 97 98 95 83 89 80 74 75 74 68 67 79 89 77 62 60 77 73 77 83 80 79 78 84 72 85 95 93 97 70 54 78 75 75 68 65
76 78 78 74 77 76 74 72 74 76 79 96 98 95 94 87 94 86 85 78 86 84 75 72 63 49 85 91 88 86 92 84 87 83 71 65 73 80 95 90 89 55 77 68 66 83 70
77 79 75 76 77 76 73 72 74 77 77 93 97 92 92 93 91 88 91 89 82 87 81 77 62 75 82 90 94 95 91 80 88 84 90 87 84 94 92 91 84 64 59 63 86 64 73
78 78 75 77 77 76 75 75 76 76 78 88 97 94 92 96 93 89 85 88 88 84 83 75 88 83 96 94 96 96 95 88 87 83 86 88 93 96 94 94 92 62 77 80 61 77 78
78 77 77 78 79 78 78 76 75 77 80 82 99 94 87 94 91 94 88 86 84 83 86 86 93 95 94 98 94 93 80 97 89 87 81 87 77 85 84 80 58 64 74 68 76 80 79

GFSGBSN_sfc_rhum_057.txt.gz
RH
67 66 65 63 64 66 67 64 62 63 66 63 57 64 68 71 60 64 61 65 62 63 61 63 63 63 73 81 80 52 59 56 56 88 76 87 84 77 81 84 87 81 74 68 62 60 58
68 67 65 64 64 65 67 67 67 66 66 67 64 61 63 70 72 60 64 64 64 62 62 61 60 66 78 88 55 55 61 55 62 86 80 84 74 66 73 83 76 76 68 70 70 62 64
69 68 66 64 61 62 66 67 67 71 68 69 67 66 64 63 70 69 66 67 64 64 62 62 58 71 90 81 56 67 70 62 61 78 79 75 81 68 67 83 67 71 75 84 81 72 73
70 69 67 62 65 63 66 67 68 70 70 70 71 67 64 67 65 70 71 69 67 66 62 60 60 76 92 54 63 66 63 65 62 65 69 74 81 74 74 70 69 79 78 86 82 81 77
72 70 68 67 61 64 65 68 72 70 70 72 72 69 66 67 67 70 75 70 69 65 66 61 80 82 85 62 67 49 64 69 70 79 70 75 94 76 76 83 88 85 90 84 94 78 78
76 70 69 68 67 65 65 69 72 71 70 72 72 70 70 67 69 71 75 72 69 69 66 66 70 86 71 59 60 55 64 70 76 83 83 80 95 86 89 83 84 92 91 81 89 88 83
80 71 70 69 68 65 65 67 71 71 72 73 70 72 71 69 68 72 83 75 76 76 76 76 70 72 65 56 58 66 64 78 79 84 90 85 98 93 81 70 66 70 80 75 66 80 83
80 72 70 69 67 66 67 65 69 72 74 72 71 74 71 67 66 73 80 79 72 68 82 68 72 73 68 66 77 74 66 84 93 89 91 96 98 76 72 64 66 68 76 78 61 76 76
80 72 69 69 68 64 68 68 72 71 72 71 71 74 70 68 66 86 80 79 82 81 93 78 76 82 78 80 85 82 73 89 79 90 99 98 87 64 73 71 70 72 71 75 69 71 59
78 72 70 69 68 66 66 71 70 71 71 72 72 71 70 64 81 92 86 76 85 83 93 91 90 82 77 79 84 77 74 80 88 94 96 88 72 70 80 77 67 75 61 63 72 74 86
83 70 70 70 68 64 66 70 67 70 72 72 69 74 75 61 93 91 78 83 87 79 94 78 90 73 75 80 80 80 78 73 87 92 91 94 81 78 86 78 60 68 60 64 70 72 69
77 70 70 70 68 65 68 65 68 67 68 65 74 70 72 71 85 86 76 76 77 88 97 95 83 92 90 87 86 80 86 82 78 82 86 90 74 77 75 73 57 62 63 67 73 71 84
75 72 70 70 68 68 66 67 65 65 67 70 74 80 75 84 92 79 80 84 93 92 75 86 89 89 95 93 87 85 86 92 97 96 100 96 93 87 78 74 62 60 67 93 89 91 84
75 72 71 70 68 67 69 67 67 67 70 69 80 74 82 85 83 78 84 84 95 80 92 75 82 88 92 90 94 89 95 90 93 93 100 100 99 90 86 76 78 66 65 85 87 90 81
75 72 72 70 68 69 70 70 67 71 74 75 79 93 96 87 78 80 90 97 90 84 80 77 78 79 92 81 90 93 96 95 86 90 99 98 100 88 83 82 72 77 79 59 80 78 80
75 73 72 69 68 70 72 72 72 72 74 77 96 96 97 88 80 88 97 92 88 65 73 80 92 88 88 86 85 95 98 80 85 87 73 79 98 86 86 81 81 73 66 82 89 90 84
74 72 71 70 69 72 73 73 73 74 72 80 95 96 94 82 81 97 100 92 79 66 72 69 72 85 97 97 87 88 88 80 74 82 68 75 79 95 79 88 92 84 91 85 74 76 80
73 72 72 71 70 72 73 74 74 73 70 81 95 97 88 84 100 98 99 86 73 68 70 68 61 64 85 86 91 89 89 83 72 75 75 77 80 97 96 83 77 74 79 75 85 87 88
74 73 72 72 72 72 74 75 74 71 69 95 97 92 90 91 98 92 82 75 73 76 75 70 66 63 64 72 86 88 81 76 76 71 75 71 88 96 92 80 74 85 83 80 84 86 95
74 74 73 72 73 72 73 75 74 69 75 90 95 97 90 97 92 85 89 89 82 75 73 66 72 63 67 71 74 80 78 70 71 78 70 65 83 81 85 78 86 98 78 76 81 92 71
75 74 74 72 73 72 73 75 74 68 72 78 93 93 92 98 95 81 84 85 92 90 82 76 73 84 78 76 79 86 78 74 67 74 79 78 93 86 75 72 89 88 88 82 85 73 86
76 75 74 74 73 74 75 76 74 69 67 88 79 89 94 85 74 87 65 78 81 74 89 86 86 86 83 86 88 85 78 81 77 70 82 73 95 83 86 74 82 87 83 89 79 72 73
76 76 74 74 74 76 77 75 74 71 66 95 98 94 79 75 74 76 55 57 99 84 79 84 91 85 92 96 95 91 82 71 73 74 84 80 90 91 85 79 72 72 70 79 86 85 79
76 77 74 75 76 77 76 75 73 72 77 93 98 88 69 72 64 64 73 59 72 90 88 84 83 83 87 68 85 80 72 74 72 83 75 82 83 83 89 76 88 56 60 67 74 68 72
77 78 75 74 76 76 74 75 75 75 76 97 99 90 77 92 73 78 75 76 64 65 72 83 78 62 61 82 71 76 81 80 76 77 79 71 82 96 93 92 69 60 74 72 71 66 62
78 79 75 76 76 75 74 74 75 76 78 97 99 95 87 86 96 88 83 81 82 84 78 66 64 53 82 90 86 87 93 84 89 81 69 64 65 76 94 93 83 48 72 66 65 79 61
78 78 75 76 76 75 75 76 77 74 75 93 98 90 87 96 93 87 91 91 84 87 81 84 64 78 85 94 96 96 90 81 90 80 90 88 85 91 90 93 76 61 60 61 81 62 66
82 80 76 76 77 76 75 77 76 76 75 89 98 96 85 98 95 90 86 89 87 85 84 77 89 84 95 97 96 98 94 90 88 83 88 88 93 97 91 96 89 61 72 75 68 78 76
83 80 78 78 77 77 78 76 76 77 75 84 96 93 84 93 93 92 88 87 84 85 89 87 91 95 96 99 95 92 78 95 92 88 80 88 80 82 83 79 60 65 69 70 78 76 78

GFSGBSN_sfc_rhum_060.txt.gz
RH
70 68 67 65 62 65 66 64 65 68 67 66 65 64 62 62 69 63 58 60 64 60 62 61 62 63 58 62 51 44 57 50 52 84 80 90 79 61 48 50 61 78 51 47 37 44 41
73 70 68 67 64 62 62 65 66 68 68 68 68 66 64 63 64 70 62 65 62 61 61 62 60 65 58 63 41 39 48 47 52 82 73 92 72 50 40 44 61 54 59 55 50 54 44
75 72 69 68 64 65 65 64 68 68 68 67 68 66 65 66 65 65 69 66 65 63 62 62 59 56 67 47 37 42 50 50 50 70 75 83 76 55 39 49 40 45 60 60 71 57 57
77 74 75 68 68 64 65 65 69 72 69 68 71 69 67 66 62 61 69 72 67 67 65 61 60 59 60 43 40 49 44 52 54 65 70 88 82 64 42 43 50 50 53 70 59 60 54
80 76 76 70 68 67 66 66 69 71 68 68 72 70 67 68 66 62 67 73 70 67 64 63 63 63 56 53 50 44 44 56 56 61 74 80 89 63 59 53 59 57 46 50 59 51 56
83 79 77 71 69 68 66 66 69 71 71 70 71 70 70 68 69 64 68 74 62 66 56 54 54 75 52 49 51 52 45 58 58 77 78 83 90 74 57 54 59 51 42 40 49 63 56
88 84 81 73 70 69 67 66 67 70 72 70 70 71 71 68 70 67 73 55 63 64 63 54 52 55 50 51 59 58 51 54 67 81 94 90 99 90 49 40 33 34 41 46 41 57 63
91 87 81 75 71 68 65 66 70 70 72 71 68 72 72 68 68 70 70 55 55 58 66 55 55 58 52 55 78 60 59 65 84 96 80 91 97 84 50 46 46 42 43 45 50 58 57
92 89 79 74 71 68 66 66 70 71 72 71 71 73 68 68 66 73 67 56 63 60 73 71 70 68 63 69 70 76 80 76 88 92 71 78 84 81 56 48 51 45 44 54 48 68 56
91 89 77 74 71 69 66 66 68 71 73 73 72 69 71 71 73 68 64 58 66 63 96 78 83 74 70 69 73 72 85 81 88 88 73 87 82 87 62 49 44 61 44 50 63 53 48
91 84 78 73 72 70 66 69 65 67 72 67 69 72 72 69 70 70 66 67 66 65 90 77 88 66 67 67 69 80 85 69 74 84 90 93 95 87 64 52 39 54 48 46 51 40 44
92 84 75 73 73 70 67 66 67 65 66 66 71 75 72 65 69 65 65 68 64 93 94 95 82 86 78 73 70 64 76 60 58 69 88 88 74 58 54 56 47 46 48 48 46 44 68
92 81 74 73 72 69 68 68 66 67 66 68 77 75 67 63 67 68 67 70 97 90 71 76 84 95 94 86 73 72 68 76 83 94 100 92 74 68 61 59 50 44 47 77 73 84 58
90 78 75 73 72 69 69 69 67 66 68 71 79 69 77 70 69 71 72 73 95 79 82 65 68 84 86 88 82 80 78 82 82 77 83 99 100 74 63 49 59 55 40 56 62 55 43
87 79 75 73 72 70 69 70 70 70 72 74 74 72 73 74 70 72 74 96 94 78 71 65 65 66 96 93 91 93 85 80 78 81 79 99 98 81 68 60 48 60 68 41 57 52 56
87 81 75 73 72 71 71 70 70 72 73 77 71 73 75 76 72 78 86 89 92 61 66 75 76 88 78 95 98 91 89 78 78 72 64 66 98 78 71 62 58 52 44 62 74 81 56
87 80 74 73 73 73 73 72 72 72 69 79 73 71 74 76 72 92 97 97 78 56 59 56 75 96 80 87 74 82 91 83 73 79 64 58 63 97 67 74 76 62 63 59 49 54 56
88 84 74 74 73 74 74 73 73 70 74 72 78 87 74 78 95 94 93 79 74 57 54 52 63 65 80 75 74 73 81 86 73 64 75 57 65 98 98 70 60 53 51 47 58 73 58
90 82 76 74 75 76 75 74 73 68 73 67 78 81 84 82 88 82 74 70 65 62 56 53 58 52 48 62 76 76 65 64 72 57 59 52 68 95 98 70 64 72 60 50 53 63 76
88 79 77 75 76 76 75 74 71 65 76 63 70 92 86 94 80 75 78 75 68 63 60 53 54 48 50 56 56 67 75 62 61 63 67 57 60 68 60 71 56 70 60 61 61 86 60
89 81 76 75 76 76 75 74 70 65 78 55 59 68 73 92 69 68 73 70 77 73 63 57 58 59 53 55 58 66 70 69 63 66 62 56 92 80 55 64 70 69 62 58 79 61 71
87 80 77 75 75 76 76 74 68 68 71 51 51 60 62 54 58 67 70 70 75 72 72 65 66 67 56 61 66 62 60 60 76 62 67 60 88 72 82 60 63 70 60 60 59 55 53
87 82 76 76 76 77 77 75 68 70 58 57 74 71 46 60 60 60 56 67 93 80 70 71 76 64 69 75 70 68 60 52 51 64 70 68 80 88 79 61 58 65 53 53 55 57 54
88 84 76 76 77 79 76 73 71 70 60 57 67 56 43 53 51 53 55 56 95 89 80 74 62 64 64 52 63 63 49 52 51 57 51 60 68 73 82 63 71 45 40 46 48 45 45
88 82 76 76 78 77 77 73 72 75 75 67 74 50 44 56 51 54 53 56 53 80 87 72 65 51 51 65 56 59 59 57 59 58 53 48 54 76 76 63 48 53 55 52 52 55 47
88 82 76 77 78 76 76 76 71 73 77 73 80 70 51 50 63 62 53 56 48 55 73 70 53 53 66 62 61 66 65 62 69 67 56 54 48 54 64 71 58 45 48 48 47 58 52
87 81 76 77 76 76 76 75 75 75 75 75 86 74 57 64 69 63 58 56 59 56 54 61 57 69 72 72 71 65 66 56 66 61 69 67 65 71 65 67 48 41 47 46 64 62 55
89 82 80 77 76 77 78 77 72 75 76 73 89 77 58 67 75 70 67 63 62 55 55 56 72 72 94 83 74 76 63 60 60 59 63 62 63 64 64 72 71 49 53 58 61 46 46
86 81 81 80 76 76 78 77 76 75 77 74 76 76 64 70 69 72 69 67 66 66 60 65 80 88 83 98 80 74 69 71 65 59 57 70 60 57 60 54 55 49 54 56 43 43 41

GFSGBSN_sfc_rhum_063.txt.gz
RH
76 74 71 68 68 66 64 63 67 68 66 68 67 69 65 66 64 65 70 59 65 63 61 62 62 63 52 48 40 37 47 43 41 70 78 79 83 79 57 41 61 67 56 38 43 42 37
78 76 74 70 69 67 66 66 65 68 69 66 67 68 67 66 67 63 66 73 65 64 62 62 62 65 47 51 31 30 36 39 40 61 75 83 80 56 41 32 54 53 74 57 46 51 42
80 79 76 74 72 69 67 66 66 69 72 69 68 72 69 67 68 63 64 68 72 65 65 62 60 47 52 46 28 32 38 43 38 54 68 78 76 96 44 33 30 47 76 77 51 61 39
89 82 79 78 74 70 69 67 68 69 70 68 68 72 71 67 67 68 62 64 71 69 67 64 59 45 53 32 32 36 36 43 43 51 59 81 81 92 79 28 36 50 62 97 54 55 46
91 86 83 81 78 73 70 69 68 68 71 71 70 69 70 69 69 71 62 66 73 69 66 64 59 51 48 49 44 35 38 46 47 60 80 77 82 89 51 48 56 56 55 90 77 46 46
93 91 87 86 80 75 70 69 68 68 71 71 70 69 70 70 70 71 65 69 65 66 56 42 40 64 47 40 40 48 41 50 56 70 91 94 90 94 58 55 64 48 40 39 64 53 49
92 93 92 87 86 78 71 69 69 70 70 71 71 68 71 71 69 67 70 59 65 66 54 49 44 45 41 42 44 53 43 51 62 78 96 91 100 91 47 38 26 27 30 26 34 42 54
92 94 93 88 89 77 71 68 68 69 70 70 70 70 71 67 68 67 70 59 45 57 60 47 48 48 44 55 68 55 52 66 84 96 88 94 100 65 43 31 32 27 33 34 31 50 49
94 96 92 88 90 75 70 69 68 68 70 71 71 72 68 69 71 68 66 48 49 50 66 59 59 59 54 62 74 69 66 70 91 96 80 83 92 71 56 42 37 29 34 40 45 43 48
92 95 92 89 83 75 72 69 69 67 67 71 70 66 69 75 74 57 58 47 54 51 95 71 76 65 58 63 84 80 77 75 96 90 61 68 76 74 82 41 34 42 29 30 37 53 52
94 96 93 88 83 75 72 68 68 68 68 68 65 69 73 76 65 61 58 52 54 58 96 71 81 54 56 64 80 83 65 70 69 73 58 82 78 95 88 41 31 39 33 38 48 48 34
95 96 92 89 79 75 72 69 68 67 69 67 68 75 76 61 62 55 55 57 62 93 90 81 70 72 59 60 70 73 68 52 54 74 76 81 66 84 65 40 37 40 46 45 44 38 64
94 97 93 87 79 75 73 70 69 67 66 70 76 67 70 52 60 55 55 66 98 91 62 68 94 90 85 60 59 62 63 66 80 96 100 95 94 84 61 53 45 37 44 70 67 79 58
96 97 92 82 80 75 73 70 69 67 66 72 75 72 75 58 56 59 65 77 94 71 63 53 70 87 86 79 74 60 66 74 70 59 100 100 100 59 48 44 52 41 35 51 56 52 41
95 95 92 85 81 74 73 72 70 70 71 74 74 62 63 62 60 62 84 100 93 68 62 56 56 91 100 93 72 82 76 64 52 62 91 99 95 67 56 48 42 53 65 38 48 36 43
96 96 92 85 83 75 74 73 72 71 72 78 60 60 64 61 62 72 97 80 77 58 62 62 66 87 97 92 88 95 76 69 67 60 53 78 99 73 61 51 48 48 37 52 64 70 43
96 95 90 88 86 77 74 74 73 72 71 78 63 68 71 62 65 84 96 94 69 51 53 53 68 85 82 97 75 69 84 80 66 64 52 50 70 96 59 65 60 56 58 50 43 49 55
96 94 91 91 88 79 75 75 74 73 75 79 67 86 68 65 90 80 81 71 73 51 48 48 56 57 70 66 68 63 89 84 59 56 58 50 69 95 96 64 55 45 43 40 53 66 46
96 94 92 92 88 80 76 76 76 73 78 60 62 67 67 73 86 72 64 64 59 54 49 47 54 50 43 54 70 60 68 66 65 58 62 51 77 94 94 65 57 61 48 44 41 57 67
96 93 93 92 87 80 77 76 77 73 73 64 61 86 76 78 64 63 61 62 61 56 50 47 46 43 44 48 48 60 70 73 62 55 63 54 54 64 65 62 48 64 49 46 50 80 53
94 93 93 91 84 78 77 77 76 71 72 62 53 50 58 87 60 52 61 55 59 59 51 46 47 48 45 50 51 60 66 67 61 62 55 52 85 76 50 55 60 59 50 47 70 59 65
94 94 92 90 85 77 76 77 74 71 76 54 44 49 55 52 51 53 64 58 60 64 59 54 53 50 44 51 57 56 61 59 58 54 58 51 86 69 90 53 55 63 51 49 48 48 48
94 94 92 87 83 76 77 77 72 75 66 43 50 47 41 55 50 50 48 58 67 68 64 60 59 50 59 66 55 52 48 43 46 58 57 60 74 91 77 52 50 56 44 44 47 44 46
94 94 90 88 79 77 77 75 73 75 64 43 45 40 37 48 48 50 51 61 83 72 70 63 52 52 58 49 51 46 41 42 43 46 45 58 66 69 81 58 71 44 34 38 40 40 38
94 93 89 87 78 78 77 72 73 71 68 50 51 41 34 42 42 48 50 53 73 78 73 66 58 50 50 54 51 56 54 52 51 48 45 42 49 68 76 57 39 52 48 45 47 62 49
93 92 88 86 80 77 75 74 76 74 72 53 57 55 36 43 46 40 46 47 57 70 73 64 50 48 58 52 52 56 58 51 62 63 48 47 43 51 56 66 52 49 43 40 42 60 50
93 91 87 83 78 78 75 73 73 72 68 58 65 64 42 51 55 46 44 46 44 48 56 57 56 62 62 58 61 53 55 46 58 58 65 61 55 65 64 64 46 45 44 41 58 67 47
93 91 89 84 78 77 77 76 76 73 68 60 72 61 47 53 65 55 53 50 48 44 47 53 62 63 80 73 67 58 52 47 50 46 50 52 57 56 57 71 66 48 50 55 53 43 42
93 92 89 83 80 76 76 75 74 75 69 59 66 54 46 54 67 54 54 56 59 58 48 60 68 68 71 93 68 61 60 54 52 59 49 61 53 52 50 54 50 40 45 46 41 46 48

GFSGBSN_sfc_rhum_066.txt.gz
RH
79 79 78 75 72 70 68 68 67 67 68 70 67 66 69 68 67 67 63 64 71 64 63 62 63 63 57 54 44 42 43 37 40 65 80 84 84 81 79 65 59 84 57 49 50 64 46
82 82 86 80 76 73 70 69 68 68 68 73 70 68 71 72 67 67 66 62 65 74 65 64 61 64 62 61 28 28 35 38 38 64 84 83 77 72 61 60 58 65 64 52 65 70 65
88 85 89 85 78 78 72 71 69 70 69 71 69 68 71 72 69 65 68 59 65 68 67 66 62 53 59 53 27 29 33 39 40 45 76 78 68 88 83 59 41 58 77 78 74 77 55
89 90 88 89 86 82 80 75 70 69 69 71 71 70 69 70 69 69 71 60 65 69 73 66 63 57 64 31 35 34 32 39 42 48 62 82 76 90 92 54 39 61 73 91 65 77 75
90 90 91 91 91 86 84 79 71 70 69 71 71 71 68 70 70 71 70 62 64 70 67 64 67 66 57 45 44 33 37 46 42 56 72 69 89 85 82 88 56 66 89 84 78 68 84
88 89 91 93 93 89 86 81 72 71 68 71 71 71 67 69 71 71 68 64 67 68 63 47 43 60 50 43 43 46 43 46 54 70 84 84 92 92 91 86 78 66 80 80 77 73 90
88 90 90 91 94 89 87 81 72 70 68 72 71 71 70 70 69 68 68 73 77 76 61 58 49 49 40 38 42 54 44 56 66 72 96 92 100 98 91 73 44 50 53 91 78 70 88
89 90 92 93 95 89 89 78 72 70 68 70 72 72 71 68 64 70 68 78 54 60 72 50 45 48 42 64 69 51 49 68 78 90 92 99 100 83 85 67 40 39 44 48 66 63 67
90 90 90 92 93 90 90 81 72 70 68 67 71 70 65 67 72 69 68 67 51 50 77 58 55 58 52 64 77 68 61 70 84 96 94 93 92 84 82 55 40 34 37 49 76 68 84
91 90 90 90 94 92 89 80 72 70 70 68 71 66 67 72 78 66 62 47 56 56 99 78 73 64 56 66 84 72 71 79 92 98 93 85 86 86 75 75 39 45 33 45 54 64 77
86 90 90 91 94 92 89 77 72 70 69 68 66 64 69 73 72 66 60 55 59 67 99 66 78 51 57 67 73 83 63 81 96 89 77 94 94 85 72 42 34 43 35 45 54 59 52
84 88 91 93 94 93 89 79 71 70 68 69 70 73 74 67 68 64 56 59 71 98 88 80 65 68 60 59 68 70 74 85 59 70 76 85 80 84 88 47 42 42 47 52 57 63 88
82 91 93 93 94 93 90 78 73 71 68 67 73 67 70 52 76 59 60 78 100 98 59 72 80 78 71 82 67 58 64 77 82 95 99 91 94 76 78 63 56 51 58 90 91 92 83
85 88 87 92 95 94 90 78 73 70 68 70 74 73 70 55 59 63 73 95 93 64 64 55 70 82 80 72 59 54 64 78 65 77 100 100 98 88 62 57 62 62 52 82 70 86 70
88 86 92 94 95 94 89 77 73 72 72 76 76 74 71 64 62 70 93 100 94 76 56 55 93 100 95 76 65 74 70 72 58 65 99 94 100 84 59 51 58 59 78 51 68 56 78
82 84 90 95 94 92 88 80 75 74 76 80 78 73 70 64 66 81 99 87 79 58 61 57 69 82 96 80 78 82 70 66 63 58 60 76 96 72 62 60 59 65 48 69 88 77 60
84 86 88 93 94 93 91 82 75 75 76 79 83 79 76 64 73 94 100 96 66 50 51 58 66 77 94 93 81 67 76 76 60 60 60 70 76 91 73 75 68 68 83 62 58 76 90
78 83 87 92 94 91 92 85 77 76 76 82 78 92 74 71 98 84 96 67 70 50 50 50 55 62 74 74 67 74 83 78 60 60 65 61 84 98 91 72 58 66 54 53 81 79 72
77 85 90 95 93 92 91 87 78 76 76 77 75 81 71 78 90 80 66 62 58 51 51 48 54 51 47 57 72 70 74 68 59 62 69 62 88 98 98 74 64 74 59 52 53 75 87
82 88 89 94 93 92 90 87 78 76 76 86 73 89 85 83 69 75 62 60 63 63 51 47 48 47 48 53 50 67 73 70 66 56 68 63 74 84 92 82 71 80 60 53 64 94 72
85 87 92 94 93 91 89 86 80 77 77 85 74 74 68 90 73 64 65 56 54 61 55 49 52 51 47 58 58 69 67 74 70 69 68 64 86 84 61 62 73 70 62 57 73 68 80
86 87 94 94 92 90 88 86 81 78 78 83 67 67 69 60 53 60 67 63 54 63 65 54 57 51 49 62 63 62 62 65 73 65 70 64 95 84 89 62 64 79 61 58 56 58 55
85 86 88 93 92 90 87 84 80 77 75 74 63 57 60 66 62 59 58 59 62 64 65 60 58 58 68 68 60 56 54 50 60 67 68 70 87 93 87 63 62 78 61 58 60 59 58
86 84 90 91 91 89 86 82 76 82 76 66 60 57 63 61 60 57 56 67 75 72 63 62 56 60 65 58 58 60 58 53 51 56 53 74 81 94 92 82 91 58 43 46 47 48 49
84 82 90 92 91 88 84 79 75 82 79 70 65 65 56 56 56 52 57 74 74 79 74 62 59 57 60 64 68 69 70 66 59 56 59 53 66 89 95 90 58 64 57 57 61 70 58
87 91 93 92 89 86 82 76 74 74 77 69 69 73 68 56 61 47 55 69 84 81 83 68 58 60 71 75 66 71 77 62 74 74 58 52 56 71 76 85 78 63 51 48 53 84 59
87 92 90 92 88 86 85 75 74 75 72 72 78 74 68 68 67 61 60 62 55 69 73 70 69 74 74 80 79 70 76 60 74 70 80 77 71 84 82 86 70 58 54 52 78 82 53
85 87 93 91 89 84 80 76 75 74 69 75 82 72 72 74 73 59 59 62 58 57 70 67 77 77 90 90 79 84 81 66 72 72 74 77 83 82 76 88 83 55 64 75 64 55 56
82 87 89 90 89 82 81 74 73 72 68 67 80 59 58 76 74 59 60 59 65 65 76 74 79 78 86 93 82 77 73 73 70 80 69 79 76 80 68 77 59 52 61 53 53 60 66

GFSGBSN_sfc_rhum_069.txt.gz
RH
87 86 86 83 83 81 80 73 71 70 69 68 71 71 68 72 71 66 66 66 60 64 73 65 63 62 68 76 71 52 44 38 42 66 74 81 89 83 77 72 77 84 74 58 51 62 71
87 88 88 88 87 85 83 78 76 72 70 68 70 70 69 70 71 68 65 66 59 63 66 70 66 61 79 90 39 39 39 42 43 60 81 90 75 82 84 77 75 70 71 66 69 66 77
87 87 88 89 90 89 85 84 81 76 70 70 69 71 71 70 70 69 68 67 60 61 67 71 63 61 76 82 39 38 37 43 48 52 75 85 73 89 84 76 58 63 84 78 80 72 74
87 88 88 89 90 91 92 88 85 80 72 70 70 72 71 68 70 70 70 68 63 59 65 71 63 72 88 44 45 40 39 48 48 52 65 78 83 85 87 78 65 72 76 92 85 87 81
90 88 88 88 88 90 93 91 86 82 72 70 71 72 70 66 69 71 70 69 63 63 68 64 80 78 78 44 49 43 45 50 46 66 78 68 84 91 91 93 88 84 87 83 90 81 82
88 90 89 88 88 89 90 92 88 85 73 70 71 72 72 69 70 70 68 64 67 70 68 56 61 79 56 51 53 52 50 48 60 79 85 85 89 96 97 95 96 84 86 75 88 83 80
77 88 90 91 88 88 89 93 89 82 76 70 71 72 71 70 68 61 76 86 89 92 82 72 68 65 51 57 50 59 47 64 75 84 88 88 99 99 96 88 82 56 65 83 69 71 76
74 76 88 90 91 88 89 92 91 82 78 70 70 72 69 66 64 69 79 94 66 70 89 66 58 53 45 68 76 57 60 80 87 90 90 98 97 80 75 76 78 57 85 87 76 75 72
76 76 76 84 88 91 92 92 91 89 77 70 68 70 66 65 69 78 85 77 64 65 92 64 57 63 61 69 78 80 74 76 89 95 94 98 84 78 86 86 84 64 72 79 75 74 76
69 77 78 78 83 93 93 92 92 87 79 72 69 67 61 67 82 75 76 66 64 68 98 79 79 69 64 78 83 70 75 79 87 95 99 97 86 83 83 83 67 69 44 56 74 89 98
69 72 75 84 83 88 94 92 92 86 80 72 69 65 64 68 86 77 69 67 68 80 94 73 84 60 60 74 71 82 79 84 89 92 95 96 96 89 86 70 58 52 50 64 76 87 68
70 71 76 83 85 88 92 93 91 86 80 70 70 71 73 76 78 69 66 69 81 94 88 84 72 76 71 72 79 76 86 89 84 79 82 88 90 89 84 75 43 56 57 64 70 67 90
74 72 75 83 87 89 88 93 90 84 75 71 74 72 76 61 82 70 68 89 99 96 65 80 77 84 82 83 75 74 82 85 89 92 99 97 93 80 81 67 60 54 65 95 90 90 80
80 76 77 85 87 90 90 94 88 82 78 73 75 73 74 58 73 72 83 99 86 61 71 69 76 82 78 74 64 58 74 85 73 84 95 98 94 93 74 64 69 66 56 82 85 94 75
70 79 82 89 85 88 90 92 88 81 76 77 77 90 86 77 70 81 97 94 90 81 59 77 94 96 89 81 76 78 80 79 67 79 96 99 100 83 73 64 61 66 81 56 67 68 85
69 77 81 74 78 86 94 91 88 84 80 79 97 94 85 74 76 88 99 88 84 61 64 67 88 90 89 70 86 94 83 75 70 67 82 87 98 83 67 62 58 64 57 69 87 73 70
65 72 76 70 77 88 86 91 87 82 82 80 93 95 86 75 87 98 97 92 70 54 58 62 75 89 77 86 89 84 88 80 70 66 67 79 79 86 74 87 81 74 78 68 68 82 86
68 67 74 73 82 90 86 92 86 81 82 88 94 98 80 86 99 95 98 68 65 58 58 56 60 65 92 82 76 88 90 89 70 68 73 73 91 95 95 80 69 77 67 61 82 78 79
65 67 73 78 88 85 93 92 84 82 84 94 89 99 80 87 98 92 73 74 63 60 60 51 60 57 59 66 78 79 85 71 66 66 82 74 91 95 92 74 69 83 70 62 70 77 88
69 71 78 85 87 86 93 92 86 82 83 84 83 97 98 97 89 91 84 80 78 68 61 53 55 56 58 65 60 76 73 75 72 66 68 67 85 84 91 82 76 86 70 64 73 93 79
70 72 75 84 85 94 93 91 85 85 82 86 87 90 86 98 96 91 80 70 71 75 65 57 61 60 54 67 65 75 66 79 74 72 72 73 86 83 70 66 76 74 72 71 79 72 80
68 76 77 83 88 94 93 92 87 86 82 92 86 89 84 88 79 90 78 73 64 75 73 64 65 62 70 76 81 70 69 72 81 78 82 72 92 84 88 65 66 79 67 67 66 66 67
68 74 82 85 85 94 93 90 88 85 80 90 74 70 72 79 86 84 85 70 71 75 74 67 71 74 80 77 73 70 60 58 67 76 78 79 87 94 91 68 68 76 65 66 68 64 63
68 76 79 84 87 94 92 87 88 86 74 71 68 76 74 84 83 74 76 78 76 80 78 69 66 72 74 66 66 66 61 59 58 64 63 79 84 94 94 82 82 59 52 54 62 67 62
70 77 86 88 87 92 91 87 84 83 77 72 77 72 70 82 74 77 83 89 86 84 81 76 66 68 73 74 74 79 78 72 69 65 66 66 82 95 94 93 68 70 62 61 69 82 67
75 81 88 87 93 91 92 85 83 79 78 74 85 86 76 72 76 67 91 88 91 91 89 76 64 69 83 89 79 83 88 75 84 82 65 58 64 79 87 88 84 69 57 52 53 89 62
76 80 87 91 91 91 90 88 78 79 77 76 84 83 76 85 84 73 78 87 77 88 92 82 80 83 83 92 87 80 84 67 86 85 87 84 80 85 86 92 78 67 60 56 70 73 61
76 76 85 86 94 91 88 88 75 78 75 74 83 78 78 93 86 78 78 80 69 77 88 76 81 83 93 92 87 91 86 74 79 75 79 82 89 89 87 95 93 58 69 77 70 65 67
75 82 88 89 89 89 89 84 74 79 69 74 78 66 66 85 85 70 73 74 77 79 81 86 85 89 93 94 91 88 82 85 81 87 75 79 75 79 77 79 61 62 66 70 70 77 81

GFSGBSN_sfc_rhum_072.txt.gz
RH
88 85 86 87 88 89 89 88 87 83 76 72 69 69 72 69 70 69 68 66 65 60 62 68 70 62 72 84 77 54 46 39 45 68 74 78 85 77 93 84 82 89 77 68 58 62 71
84 88 89 87 88 88 91 90 89 87 83 77 70 70 72 73 70 71 70 67 63 60 61 67 69 61 83 91 48 49 43 43 46 68 78 78 83 69 83 86 81 78 73 72 70 65 77
75 78 87 89 88 87 87 91 93 89 87 80 72 71 72 73 70 68 69 67 66 59 60 66 72 67 83 79 49 48 42 46 49 56 80 78 82 94 85 83 70 68 84 80 78 74 71
68 71 76 84 90 89 87 87 94 92 88 84 74 71 73 72 68 67 70 69 68 62 59 64 69 76 93 51 54 49 44 49 50 53 62 78 85 86 88 82 76 76 78 89 73 76 78
61 64 70 73 80 88 88 87 86 94 90 88 76 74 72 71 68 69 71 68 64 64 64 68 84 87 88 46 58 46 46 52 50 62 74 71 85 86 93 92 88 89 87 86 89 76 94
63 61 65 73 75 77 83 89 89 96 91 88 80 80 73 72 70 70 65 66 68 69 69 60 65 88 68 57 56 52 50 54 64 80 86 86 90 96 98 93 98 82 91 76 94 92 86
61 62 64 67 75 77 77 85 93 94 90 89 82 77 73 71 70 63 77 85 88 93 83 81 74 72 58 56 54 61 50 65 76 85 87 84 99 99 96 81 89 86 81 80 88 83 81
64 65 64 67 71 73 78 84 88 95 90 88 81 75 72 68 65 66 81 91 74 71 84 69 70 63 55 68 75 62 61 79 88 95 90 95 98 79 84 84 86 86 75 89 73 85 79
67 68 65 67 70 71 76 81 87 93 92 90 84 73 72 65 67 81 87 80 70 68 94 72 68 66 68 66 84 78 73 74 85 83 86 95 82 69 80 82 94 92 74 87 89 78 81
66 67 67 65 68 72 77 85 87 93 91 88 81 73 70 66 81 83 86 66 72 70 94 85 85 72 72 71 84 71 76 78 91 94 96 98 85 78 82 90 86 98 70 69 87 93 96
69 65 65 72 73 72 80 84 85 92 92 89 81 71 67 67 86 85 71 71 72 76 94 75 83 62 67 79 77 83 80 86 95 97 98 98 92 88 92 91 76 60 63 64 77 97 96
62 62 69 68 74 74 76 80 85 93 91 91 75 72 71 81 85 75 69 72 81 88 88 88 78 79 78 78 82 84 88 91 82 95 87 92 82 81 82 72 69 58 75 78 76 86 98
57 61 64 67 80 74 73 81 88 88 92 86 75 75 77 66 84 72 74 89 92 89 61 90 84 83 84 83 83 86 88 91 93 98 99 98 96 90 86 80 74 67 78 99 98 98 88
61 60 62 65 72 86 70 72 88 88 90 85 78 76 74 65 77 76 89 93 84 66 82 75 81 79 88 81 75 73 72 82 78 83 100 99 99 96 74 73 87 69 62 84 88 92 78
57 61 62 65 68 86 69 76 82 89 89 82 80 87 86 82 74 86 92 96 84 80 66 88 87 89 90 82 83 82 84 82 77 83 93 95 100 83 73 68 63 69 81 60 70 72 76
56 61 62 64 66 74 70 79 92 92 88 83 92 93 89 80 80 94 91 92 87 67 71 90 95 91 91 82 90 89 89 82 74 72 80 89 96 87 76 62 61 60 54 70 86 79 73
61 61 61 62 66 72 74 80 90 89 86 84 92 95 91 81 87 99 99 94 74 60 62 66 84 80 88 88 87 89 90 82 74 67 74 80 81 86 78 91 92 74 74 72 72 83 79
63 62 62 63 68 72 74 80 89 91 87 94 93 98 86 85 98 96 98 74 65 62 62 62 62 75 86 88 91 91 94 92 81 74 80 87 87 97 95 81 77 82 82 70 78 77 85
64 66 63 69 71 74 81 82 86 86 89 97 97 98 90 86 98 91 76 72 65 65 61 57 64 60 72 88 90 90 88 82 74 75 85 77 91 96 83 71 70 84 71 64 72 82 86
66 64 65 71 71 77 81 85 86 87 85 96 92 98 100 99 87 86 83 85 77 66 62 53 57 54 62 65 76 87 82 74 77 72 67 71 86 80 88 79 78 87 79 71 72 90 80
68 66 66 70 76 80 86 88 91 88 90 97 87 91 86 95 96 91 83 80 78 76 69 62 65 62 60 76 71 77 76 82 76 71 73 76 86 85 80 74 80 81 78 77 82 74 76
70 68 68 71 79 85 87 90 91 88 89 95 96 94 89 94 89 90 83 85 76 83 70 69 68 76 72 80 81 78 73 76 86 84 84 77 94 84 86 68 68 80 74 75 77 72 74
70 70 70 75 83 82 83 93 88 88 92 96 86 75 76 87 94 86 84 78 73 79 76 72 74 79 81 78 76 76 64 70 75 81 84 82 88 92 92 73 64 75 66 72 73 72 68
72 70 70 80 82 84 89 92 89 89 84 74 70 77 80 93 91 82 77 81 79 83 83 74 71 73 76 71 71 62 56 61 64 71 73 82 86 94 93 79 85 62 55 60 71 75 71
71 69 74 82 87 91 93 90 88 90 83 75 79 72 78 93 86 89 87 89 79 85 85 77 70 74 75 75 75 79 83 77 74 63 60 74 87 96 91 93 70 70 66 65 77 87 69
71 68 76 84 91 93 91 86 87 91 85 77 85 89 76 75 86 77 91 88 92 94 89 81 69 75 83 87 82 87 93 84 90 84 73 64 75 80 91 89 85 68 62 60 61 89 66
71 71 76 87 90 93 89 86 88 88 78 75 86 87 76 89 93 81 92 88 88 90 93 86 82 85 84 92 88 82 87 75 90 87 85 83 76 88 88 92 79 70 67 62 71 68 73
72 75 78 90 93 91 90 88 84 79 69 73 83 83 79 96 91 83 83 76 73 87 91 82 81 83 93 90 88 90 87 78 84 81 83 84 90 92 90 95 94 65 74 72 71 78 77
71 74 81 90 91 89 88 86 82 79 70 70 80 69 69 88 89 74 76 79 78 80 86 91 85 91 92 94 94 91 85 88 84 89 79 84 78 84 80 82 69 81 77 82 72 80 86

GFSGBSN_sfc_rhum_075.txt.gz
RH
74 73 75 77 83 86 88 88 87 91 92 87 86 80 73 73 72 71 70 70 66 64 63 62 70 69 71 87 80 50 51 46 54 71 74 80 90 86 85 89 81 83 81 64 69 62 74
65 65 66 71 74 80 87 86 90 88 90 90 91 84 79 72 76 70 68 68 66 64 61 62 68 66 82 94 46 44 53 46 48 72 79 82 87 84 78 70 87 77 74 73 67 73 70
64 62 63 64 69 75 76 83 88 91 90 94 91 87 80 78 76 70 66 66 64 64 60 59 66 69 82 81 52 51 51 49 50 59 84 80 78 87 80 76 64 78 92 75 73 80 73
61 59 60 62 62 68 75 78 81 86 88 89 94 89 80 82 73 68 67 67 67 67 62 61 67 75 90 54 61 57 51 55 50 56 67 78 76 78 90 79 87 92 86 85 65 81 73
63 67 64 61 61 64 66 76 81 82 88 89 91 88 89 78 71 69 69 68 65 63 62 62 81 87 88 53 65 53 48 54 54 62 67 67 81 91 92 98 98 86 98 86 82 76 85
68 68 68 68 63 64 65 72 75 80 83 90 91 89 86 78 72 69 65 65 67 67 71 64 70 92 77 60 58 55 54 57 71 74 84 85 90 99 98 99 94 85 93 77 80 82 78
58 65 70 68 66 66 68 70 70 73 82 90 93 89 86 81 71 69 77 81 89 93 83 84 78 78 62 57 59 64 58 73 75 83 89 86 100 99 96 94 84 72 88 78 88 81 87
58 58 64 69 67 69 68 67 69 74 81 87 94 89 88 78 68 65 81 88 76 71 84 74 76 73 61 68 80 68 64 80 91 97 88 90 97 80 82 91 92 74 91 86 86 86 88
57 56 58 57 66 67 69 72 70 72 82 87 94 91 86 72 65 81 88 78 74 69 92 72 74 72 72 71 81 82 75 80 91 82 78 94 79 69 84 87 94 90 86 91 85 85 76
56 56 58 61 63 64 68 72 71 72 79 88 94 89 81 72 78 85 87 68 74 68 92 81 88 74 73 72 85 72 79 79 94 93 86 98 84 76 82 88 79 85 78 79 87 94 99
54 54 60 60 59 60 67 68 73 75 80 89 93 89 79 74 83 86 74 76 77 66 89 69 85 63 72 79 80 84 85 83 89 92 98 98 97 87 78 80 72 78 69 86 84 96 98
54 55 54 59 60 62 65 71 74 78 78 84 91 88 79 80 87 78 74 75 77 87 81 89 79 83 86 79 81 89 87 89 83 97 98 97 81 76 71 75 78 75 77 83 88 99 99
55 53 54 56 58 63 65 76 82 75 77 88 92 85 84 74 84 74 78 87 93 91 61 94 87 85 86 84 82 83 86 92 98 99 99 96 92 87 77 95 80 80 92 99 98 98 94
59 55 56 56 58 63 65 67 78 72 78 88 90 88 83 63 78 76 86 94 87 66 83 80 83 85 92 86 78 79 77 99 80 96 100 94 99 89 77 82 86 78 64 93 92 93 79
60 57 60 61 62 60 62 65 74 81 85 92 89 97 93 84 75 83 92 96 83 76 78 86 82 90 90 82 86 84 87 87 79 86 97 98 99 87 80 75 69 76 82 58 72 69 86
58 63 68 65 63 62 64 65 76 83 90 88 97 96 92 79 81 91 95 88 91 72 90 79 85 83 91 86 88 90 90 83 82 70 77 82 94 77 74 65 62 64 56 70 86 88 76
64 65 67 65 64 66 67 67 74 83 90 89 96 97 91 83 85 98 95 94 78 63 67 86 89 93 90 88 87 90 92 80 81 74 77 79 83 82 78 91 93 71 69 73 74 80 84
68 74 67 68 66 67 69 68 74 79 91 95 98 99 90 87 98 98 99 87 68 69 67 68 75 76 84 88 79 93 95 95 82 81 89 87 87 96 90 84 85 85 83 71 78 75 86
67 72 70 69 72 70 70 74 71 81 90 99 98 98 93 86 99 99 86 71 70 64 64 67 74 75 79 86 92 90 89 85 79 79 85 77 90 94 81 71 70 84 79 73 75 82 86
76 69 70 70 72 73 75 75 76 84 86 97 98 100 100 99 95 86 85 75 77 66 59 59 65 59 79 83 85 91 87 82 80 75 70 72 87 77 88 79 80 87 83 74 74 89 84
72 69 70 72 71 74 70 79 78 85 88 97 98 97 84 97 97 95 79 71 75 72 65 65 68 63 66 86 86 89 87 88 80 74 76 73 88 86 80 75 83 84 82 80 84 76 76
71 70 72 74 77 71 81 80 81 88 88 99 97 94 84 94 90 92 84 82 71 82 76 73 70 75 70 79 78 81 82 87 88 80 83 80 95 83 87 70 69 80 80 81 81 77 79
74 73 76 79 75 79 82 84 84 90 89 99 98 86 84 84 96 87 83 84 78 79 78 76 73 79 80 80 81 80 70 79 80 84 85 82 89 90 90 75 66 77 70 78 79 78 74
76 74 76 75 76 86 89 85 92 87 91 97 86 80 89 95 94 79 72 82 81 83 83 77 74 74 79 74 72 54 54 67 72 79 77 82 87 91 92 78 85 68 63 61 77 79 86
73 73 74 77 87 93 87 91 92 86 75 94 82 78 86 97 92 86 84 85 78 84 85 79 75 80 74 72 76 76 81 76 74 67 71 75 87 96 90 92 71 72 67 78 78 85 76
74 76 74 80 94 92 89 90 92 85 70 81 88 95 81 82 92 89 92 77 84 90 89 82 76 81 83 85 81 88 91 86 90 81 62 62 79 83 90 91 88 69 68 64 71 81 68
73 72 73 82 92 92 90 89 87 91 74 79 85 89 80 92 96 91 92 84 85 87 94 88 86 86 83 91 86 83 90 81 92 89 89 79 75 87 88 93 78 67 73 64 78 71 73
74 73 74 83 91 91 91 91 91 88 71 79 80 81 82 98 93 89 88 80 84 89 91 84 83 82 92 89 86 91 86 84 86 82 84 86 90 92 87 89 93 72 77 70 71 84 78
74 73 74 84 90 90 89 87 87 78 69 70 72 73 71 88 90 78 80 85 84 82 89 91 84 90 91 94 94 93 89 89 85 88 83 84 78 85 81 83 78 89 84 86 76 80 86

GFSGBSN_sfc_rhum_078.txt.gz
RH
61 61 61 63 64 67 74 78 79 80 83 85 86 91 90 85 82 76 76 69 68 66 65 62 62 74 62 87 76 47 52 48 64 73 73 79 92 90 93 90 87 92 78 73 64 60 66
64 65 63 62 61 62 63 72 77 78 79 85 84 86 91 88 85 85 72 68 65 67 65 59 60 78 75 93 50 46 49 52 53 74 78 83 86 84 94 87 77 81 78 71 70 68 65
67 67 64 64 65 62 61 63 73 79 77 79 82 88 93 90 86 83 72 66 65 65 65 55 58 74 82 81 55 52 52 54 54 67 81 79 80 81 84 83 68 70 86 83 69 65 78
64 64 69 67 66 66 63 61 72 73 74 74 82 88 92 89 86 82 69 65 67 65 66 60 59 73 91 56 65 58 57 58 55 57 70 78 80 76 85 73 81 90 77 96 74 66 78
63 56 64 68 67 65 64 69 66 64 64 68 74 86 90 89 85 80 73 68 66 63 63 59 82 76 82 54 72 61 53 54 57 58 69 68 78 82 86 97 99 87 97 92 80 65 72
58 59 54 60 63 63 67 66 70 68 66 69 77 83 93 90 85 79 76 62 69 68 71 64 69 93 80 64 60 57 52 60 70 75 78 85 93 99 99 99 96 87 97 98 79 81 78
57 56 59 58 55 57 60 61 68 69 68 69 79 85 94 89 88 80 76 83 89 91 87 79 77 81 65 59 60 66 64 75 76 83 96 89 99 98 92 94 91 98 80 88 85 86 84
56 57 54 55 59 60 58 59 64 67 68 70 79 86 92 88 83 77 79 84 78 68 88 81 81 79 69 67 78 70 66 80 94 96 90 95 98 78 77 93 97 99 84 97 92 77 83
54 53 55 54 52 56 58 60 63 72 70 71 77 84 91 88 82 89 86 77 72 68 83 75 77 76 72 73 74 84 74 82 93 97 89 92 76 73 78 95 98 94 85 94 88 85 83
56 52 56 52 53 52 58 58 60 67 70 74 76 77 91 86 86 85 88 73 74 64 92 83 88 77 76 73 85 74 78 83 86 93 87 92 71 85 91 99 84 91 90 83 87 92 98
58 61 59 59 55 54 55 57 57 68 72 73 75 76 89 77 86 86 78 76 75 61 86 67 91 67 74 90 82 85 82 84 90 90 96 95 88 90 94 81 78 92 80 82 87 96 96
61 63 64 60 57 58 57 59 59 65 70 82 78 81 90 91 92 83 76 73 69 86 82 93 85 91 97 87 80 82 88 88 84 99 100 98 85 78 65 76 87 82 83 85 94 94 96
58 62 61 60 62 62 63 60 63 64 67 74 76 83 90 83 92 82 76 79 94 91 62 94 90 87 89 88 83 87 91 98 100 100 99 98 91 83 83 88 82 81 82 99 97 98 98
61 60 63 63 65 68 67 66 65 64 69 80 81 86 88 82 85 81 82 87 92 67 87 82 83 87 93 88 83 82 93 99 96 97 100 97 97 89 85 90 95 82 86 93 93 93 92
62 64 69 67 66 67 67 65 66 69 78 87 88 98 97 88 84 81 90 97 83 76 80 89 82 90 88 84 90 84 93 95 85 86 94 99 100 92 90 76 70 73 86 61 75 68 92
60 64 67 71 69 67 69 67 65 69 86 87 99 95 96 92 76 81 96 86 88 74 85 76 86 84 85 87 89 89 90 83 84 82 85 92 98 82 72 70 67 62 55 70 88 88 79
61 67 68 68 71 70 69 70 68 72 82 89 95 97 98 89 84 96 98 93 85 70 81 83 91 88 89 87 90 91 92 80 87 82 83 83 84 83 74 92 94 71 72 76 73 80 77
65 68 68 69 70 67 71 72 70 77 79 92 96 100 98 87 99 95 98 86 71 75 71 74 76 77 86 88 80 93 95 96 85 87 90 86 87 97 89 83 85 88 82 66 78 76 84
68 67 71 72 74 72 74 72 76 69 81 98 98 99 97 94 99 98 91 81 74 70 71 72 81 73 78 88 93 92 91 85 82 81 87 77 87 92 80 71 74 82 80 76 75 78 86
68 70 73 74 76 76 75 74 70 75 84 97 98 99 99 99 90 91 89 83 85 70 65 60 67 73 84 87 87 92 88 83 82 78 73 71 86 77 86 76 81 86 84 79 73 87 84
71 70 75 76 75 75 72 78 76 79 86 95 97 99 96 99 97 97 91 78 79 80 67 63 70 69 76 90 89 90 89 84 79 76 78 73 89 87 82 79 84 84 84 82 84 76 73
74 74 74 75 75 84 78 75 76 81 87 96 98 98 93 88 83 94 85 75 75 87 75 79 73 79 77 80 80 88 85 87 89 79 83 80 94 84 86 71 66 81 78 85 83 81 77
76 77 77 81 82 85 85 86 87 83 89 99 99 90 77 81 91 95 84 77 74 75 79 79 74 79 77 82 80 80 81 83 83 87 86 83 88 90 90 77 68 75 76 82 84 83 81
77 77 81 83 90 91 88 89 88 82 88 96 95 82 79 88 95 92 75 75 80 84 83 80 75 77 80 76 77 67 62 73 74 83 79 82 88 90 91 78 82 66 70 68 78 83 86
75 77 81 85 91 88 89 86 83 88 81 94 88 76 90 98 93 83 82 85 84 87 87 83 80 83 78 73 77 79 82 76 77 72 82 78 87 95 90 94 71 74 76 83 81 80 82
73 76 78 87 92 85 88 84 82 82 73 82 91 94 88 93 87 86 86 78 86 92 89 84 80 82 82 83 79 87 89 86 88 83 66 69 74 85 89 91 88 74 76 73 75 78 75
70 74 75 88 89 92 92 90 80 72 70 79 87 89 85 97 96 88 86 85 84 85 95 90 87 84 82 90 83 85 90 83 87 88 90 86 81 85 81 94 79 75 74 67 81 72 78
72 73 76 85 86 88 91 90 84 73 72 75 81 85 85 98 90 89 86 80 84 82 90 85 83 80 91 87 85 90 87 87 87 84 86 85 89 91 84 83 92 85 76 75 71 85 83
71 74 77 89 86 86 87 86 83 70 71 66 77 76 75 90 90 81 84 76 88 86 90 91 83 88 90 93 93 94 87 90 86 87 85 85 79 84 83 78 80 90 86 86 80 83 86

GFSGBSN_sfc_rhum_081.txt.gz
RH
64 66 67 66 64 70 67 64 68 74 79 78 80 81 82 87 89 84 88 80 68 65 66 64 61 65 63 78 68 41 51 49 66 68 67 72 83 84 89 82 79 86 69 62 63 64 62
64 63 63 62 66 65 65 68 70 70 71 71 75 74 79 85 91 87 86 75 67 63 64 64 57 71 70 91 51 45 48 53 56 67 74 76 77 78 87 86 81 68 71 65 61 60 62
61 63 61 63 61 69 66 67 67 68 62 61 69 69 77 86 91 88 84 73 64 68 62 61 54 73 80 77 49 56 52 55 54 67 74 76 72 76 78 72 73 69 80 67 63 72 61
62 63 65 63 61 60 59 64 66 68 66 64 66 69 78 88 89 88 83 75 70 67 64 63 57 74 88 57 62 59 53 56 54 57 67 72 78 79 80 70 69 76 81 86 52 64 59
56 62 60 61 62 63 62 64 63 62 66 64 73 70 76 82 92 88 81 76 72 67 62 59 82 78 83 52 73 62 53 56 51 56 66 62 80 81 80 91 86 80 85 83 66 63 58
57 59 60 60 59 57 61 63 64 64 64 62 70 70 80 83 92 87 80 69 72 70 73 64 68 85 70 64 59 56 58 54 65 70 73 80 88 99 96 99 95 78 91 77 75 64 67
58 59 55 55 59 54 54 58 63 62 64 69 67 73 77 88 88 85 84 91 88 90 87 83 79 76 64 58 57 66 65 72 68 76 81 85 100 95 94 87 90 99 97 81 66 59 71
62 58 60 63 61 57 54 54 55 59 61 69 67 71 75 92 87 83 78 87 82 75 93 81 77 77 70 66 75 68 65 81 92 92 91 91 96 72 71 93 97 96 92 90 87 55 69
64 61 63 62 65 63 58 55 54 54 54 62 68 71 72 81 85 92 90 84 80 69 83 74 80 80 72 71 76 82 73 78 93 96 93 95 72 70 76 96 100 99 94 84 94 80 80
56 62 62 60 63 62 61 59 59 56 58 61 68 72 71 82 90 91 91 75 74 64 92 79 88 76 77 71 85 70 70 77 86 91 91 90 74 80 81 99 99 90 75 70 78 84 99
58 61 63 61 62 62 62 63 64 61 62 66 67 70 72 79 90 89 82 78 80 65 97 76 92 67 78 84 80 85 76 81 84 87 98 87 95 88 95 99 87 94 78 83 84 90 86
56 60 62 64 64 66 65 69 68 66 67 68 68 69 82 92 92 88 84 76 67 89 94 93 90 96 98 91 82 86 90 85 91 99 100 98 81 90 77 75 88 82 76 82 88 87 95
56 58 60 65 67 65 71 67 70 66 66 68 70 73 79 88 94 90 84 80 96 97 64 97 95 90 90 90 89 91 91 99 100 100 99 96 89 84 82 80 80 86 74 95 93 95 95
56 57 59 63 66 66 73 69 68 67 67 74 86 85 78 79 93 90 92 96 98 69 79 82 85 88 91 86 84 85 89 99 97 89 99 97 94 89 83 90 91 84 92 85 89 90 92
59 60 67 68 72 76 71 71 69 70 71 84 87 96 94 97 92 90 96 99 88 74 78 91 78 87 87 84 88 83 88 97 84 85 98 98 96 83 85 83 86 87 92 64 75 70 81
62 66 66 73 70 70 70 66 70 71 79 84 98 95 95 93 90 93 99 90 81 67 81 74 82 82 83 84 87 88 86 95 96 85 82 95 100 79 73 79 78 70 57 68 85 86 94
64 65 66 68 71 72 73 71 70 74 81 85 97 96 99 92 94 98 100 90 80 71 80 80 91 91 85 87 89 90 93 78 85 84 85 82 83 94 74 91 94 69 70 69 69 77 81
64 69 71 73 74 74 73 72 75 74 79 89 97 99 98 93 99 99 97 81 72 82 78 78 74 83 84 88 89 94 98 95 84 89 88 84 79 96 90 79 81 87 75 60 72 74 75
66 75 83 81 80 77 75 74 72 72 82 99 99 98 98 97 100 99 80 84 73 72 77 78 83 73 80 88 91 92 91 82 84 84 89 78 84 91 79 68 71 81 75 72 69 71 79
69 78 77 77 77 77 74 76 81 76 78 96 98 99 99 98 94 86 87 76 80 69 66 64 79 80 83 88 85 90 88 84 82 83 72 66 84 75 82 75 80 80 77 70 65 79 72
71 76 74 78 79 81 83 78 73 73 78 95 98 99 97 100 98 94 93 78 78 80 68 66 71 78 80 90 90 90 88 80 75 76 77 72 89 88 78 74 80 80 80 78 79 69 66
76 78 81 85 87 88 90 87 79 76 81 96 98 98 93 92 84 94 87 77 78 87 77 75 76 81 78 80 79 86 86 85 91 78 83 78 95 81 84 68 65 78 78 82 75 70 70
78 78 82 88 86 84 86 88 84 82 88 97 98 87 80 86 94 89 83 75 76 78 82 83 78 79 83 83 81 82 82 86 87 87 84 80 86 89 88 74 66 70 71 73 79 80 73
76 78 83 88 88 90 89 90 85 85 84 96 97 89 88 92 92 87 77 77 78 82 84 84 80 78 82 77 74 68 69 73 73 82 80 82 86 87 90 74 81 60 65 66 70 78 83
74 78 81 89 86 86 86 87 86 77 74 94 90 80 94 81 94 81 83 85 78 86 88 89 87 86 81 74 77 77 80 75 77 76 81 77 84 93 90 92 67 69 69 77 76 74 80
71 76 79 88 85 87 87 79 72 68 67 82 91 93 88 93 88 86 87 80 90 92 89 87 82 84 80 81 75 86 88 86 87 82 69 70 77 82 86 90 83 66 70 71 70 68 73
71 73 77 85 90 86 81 78 76 68 64 77 87 90 86 98 90 90 90 90 88 90 94 91 87 82 80 87 80 85 90 85 85 87 89 87 86 89 82 93 78 67 67 67 78 63 72
73 74 77 87 88 90 87 82 77 72 66 76 85 88 86 97 92 84 85 90 87 89 88 85 83 81 89 85 83 89 87 88 88 84 87 83 88 90 86 91 88 81 76 72 68 82 76
75 75 78 90 85 86 86 83 74 74 66 68 78 78 77 90 90 76 76 85 88 86 91 91 81 87 90 92 93 94 84 91 86 85 86 86 78 82 78 75 74 85 84 83 78 78 81

GFSGBSN_sfc_rhum_084.txt.gz
RH
61 63 62 61 60 61 64 65 66 64 65 64 62 65 67 70 78 82 88 86 81 66 63 67 61 64 58 68 60 32 49 50 48 42 44 45 44 46 47 46 52 54 37 31 31 41 43
59 64 62 62 62 62 61 61 63 67 67 69 69 69 68 74 77 87 89 86 74 64 66 67 61 70 60 72 40 35 37 44 45 41 49 46 43 50 50 51 53 36 48 47 43 40 41
59 55 62 61 61 62 62 63 65 64 65 68 66 70 71 73 80 90 90 83 72 68 68 67 64 58 68 55 36 41 44 44 44 40 47 49 45 53 47 49 40 50 59 45 43 43 46
59 58 59 58 58 59 58 61 63 66 62 66 67 65 68 70 76 86 87 80 74 70 68 64 58 59 69 48 41 47 37 46 43 43 45 46 49 55 58 44 48 51 48 72 32 34 43
57 59 59 58 56 58 63 58 59 60 63 61 66 65 69 74 79 90 86 76 74 70 65 62 65 60 64 46 56 40 38 44 47 46 51 49 55 62 64 80 72 61 59 52 47 36 40
65 65 67 62 63 63 64 58 54 55 60 60 62 66 70 72 84 90 80 76 72 78 65 54 59 71 62 53 48 45 46 42 49 56 64 64 68 80 76 88 87 64 82 56 49 36 44
57 57 63 64 66 65 64 62 60 53 52 55 62 67 66 73 91 84 83 93 90 86 75 67 67 58 55 47 45 51 48 54 56 66 77 65 90 92 79 69 69 73 86 87 60 38 46
56 57 59 64 67 62 60 64 63 63 59 54 59 65 68 71 84 80 82 83 72 75 84 70 64 63 58 53 61 58 51 59 63 74 66 87 93 56 51 59 82 96 87 72 56 50 51
55 55 57 60 65 65 63 64 64 62 61 60 59 66 69 70 88 87 78 84 84 67 66 71 68 64 59 58 61 62 59 62 66 82 75 79 52 52 58 67 99 97 96 79 85 59 53
57 55 54 57 62 66 66 67 67 66 66 64 64 68 68 74 95 89 79 79 77 61 92 76 79 68 68 61 70 58 56 58 70 74 73 82 59 70 76 87 97 96 85 90 96 93 82
58 54 58 57 61 65 67 71 78 73 69 66 68 68 70 76 94 90 69 76 77 62 93 74 84 58 62 72 70 76 59 74 75 74 96 74 79 95 99 98 95 74 63 92 96 86 70
59 55 65 63 65 65 68 72 86 69 69 68 69 73 76 82 86 76 77 80 73 92 83 93 82 81 85 73 70 85 86 81 87 99 100 90 62 80 84 62 72 59 65 92 71 70 92
59 56 70 68 67 68 71 70 69 70 70 71 73 78 75 88 91 85 82 86 98 95 65 94 83 80 72 75 77 83 94 99 100 98 98 76 82 69 71 79 71 76 75 94 90 85 83
58 61 70 70 65 69 69 69 69 68 71 74 80 80 76 72 91 91 91 98 98 75 68 68 68 71 71 67 68 76 95 97 96 88 89 97 90 74 68 72 89 76 74 76 74 80 90
58 63 66 67 73 72 72 68 68 72 78 86 85 92 91 83 92 93 94 98 88 73 64 70 70 79 81 67 66 68 93 96 82 87 99 99 94 66 71 72 79 73 79 48 62 59 62
60 66 73 80 76 76 69 72 72 75 84 87 98 90 90 77 88 92 99 93 82 61 64 54 56 56 61 61 65 65 91 95 96 88 81 96 98 76 88 80 77 80 51 66 70 77 79
64 68 72 77 74 73 73 73 71 76 87 82 96 96 99 86 86 97 100 88 71 60 61 56 64 60 56 65 62 67 91 87 71 70 66 60 66 89 65 75 75 58 55 51 51 54 52
66 72 76 74 72 73 74 70 72 74 83 86 94 99 99 89 99 98 97 77 74 72 67 60 58 59 55 63 65 68 76 76 62 66 61 55 58 82 68 53 55 66 58 47 50 55 48
68 75 77 78 80 81 82 78 75 78 77 86 98 99 95 96 99 99 71 69 82 72 61 62 61 54 60 66 68 67 71 60 62 64 65 52 60 81 69 55 53 57 53 48 46 48 58
72 75 80 86 88 87 85 82 82 72 76 85 95 100 97 96 91 69 78 95 90 61 54 56 63 57 60 61 59 67 64 64 61 62 69 52 56 64 58 69 64 62 57 51 46 63 40
76 79 83 86 88 84 84 85 72 71 79 83 94 98 89 100 86 64 76 91 68 69 52 49 56 57 57 59 60 63 62 55 57 63 56 50 80 74 57 56 62 63 61 54 63 49 50
78 79 84 88 86 84 87 84 78 76 80 86 87 85 87 78 72 61 68 82 67 70 64 56 59 60 51 54 52 58 57 57 64 53 58 55 85 65 82 48 53 62 58 59 56 52 46
77 80 86 87 84 84 84 82 80 81 83 88 88 72 52 77 71 59 68 74 67 63 66 64 57 55 60 64 57 58 55 58 59 60 58 57 69 82 74 53 49 51 49 55 60 58 52
76 79 86 85 84 85 84 83 84 83 80 85 82 59 51 69 60 65 70 70 72 70 65 66 60 56 60 52 52 45 45 47 48 54 52 56 63 70 78 54 68 48 44 51 51 59 58
73 77 82 86 84 85 85 79 73 70 69 80 70 56 56 64 63 66 70 68 65 64 72 74 69 64 56 51 52 55 52 54 54 53 52 50 54 70 71 57 50 52 52 55 55 56 59
72 74 82 83 82 82 82 79 72 67 64 61 70 70 57 55 69 76 72 66 64 66 65 71 62 63 57 50 48 62 57 61 62 58 51 52 50 53 59 66 51 49 51 51 53 46 55
73 74 82 86 85 83 83 81 71 70 66 62 69 73 59 68 74 74 68 70 65 66 67 69 66 60 57 53 54 54 59 61 54 56 63 59 56 64 58 63 52 45 47 50 55 45 53
75 75 80 85 86 89 88 84 80 73 64 61 66 69 62 70 75 75 74 70 68 65 57 67 63 61 66 61 58 59 55 58 59 57 59 58 57 54 58 63 54 53 56 52 48 54 52
75 75 79 88 84 83 84 85 80 76 66 60 59 61 59 66 72 64 64 64 69 70 69 69 62 67 63 66 63 57 53 59 59 47 61 58 51 49 51 45 51 55 57 56 55 52 57

GFSGBSN_sfc_rhum_087.txt.gz
RH
61 62 61 62 62 64 62 61 62 64 65 61 66 66 69 70 67 74 78 81 89 77 68 67 66 67 60 54 45 35 47 53 40 36 35 34 34 34 39 28 32 37 35 28 23 24 26
61 62 61 60 60 60 60 58 60 60 67 64 61 66 65 69 66 74 82 86 85 74 70 72 65 68 54 55 34 29 28 44 39 38 37 36 33 34 39 34 36 28 31 33 34 32 30
62 64 68 66 65 60 58 63 62 60 58 65 59 62 67 68 69 74 75 90 84 74 69 68 67 52 55 45 31 31 32 32 38 35 37 38 36 44 35 39 29 32 44 40 33 30 35
57 56 58 66 68 67 64 67 64 60 56 56 60 60 67 66 69 73 77 90 78 74 74 68 67 48 51 40 34 40 34 36 37 34 37 38 41 48 50 41 42 44 40 48 28 24 26
59 57 56 58 60 68 68 66 65 62 57 56 55 58 63 66 69 76 88 84 77 75 69 64 61 53 49 50 49 35 31 39 40 39 41 38 48 53 54 70 75 57 67 44 34 25 27
60 55 54 57 60 67 70 66 67 67 64 59 57 57 62 67 80 84 84 82 83 72 66 57 51 63 48 47 42 38 34 36 45 45 54 58 66 72 64 85 78 52 56 48 44 31 28
62 59 54 54 57 63 68 68 66 68 66 63 62 59 61 66 73 84 82 79 86 88 70 63 57 49 47 40 37 44 41 44 47 54 64 57 93 87 63 50 53 58 59 55 41 35 52
75 67 56 54 60 61 67 70 67 68 66 65 65 63 64 67 71 84 83 78 67 74 84 60 52 52 43 41 56 52 44 60 60 67 54 78 91 52 43 45 54 66 76 70 52 42 47
78 66 56 58 60 63 65 66 79 78 69 69 67 64 68 70 83 94 92 78 82 74 70 67 58 53 51 50 54 59 53 54 60 61 64 82 53 46 50 57 73 80 95 79 87 54 54
74 71 57 68 64 64 65 66 70 75 73 71 68 67 68 71 90 90 93 70 85 66 96 73 71 58 57 53 62 45 49 54 58 66 63 71 55 59 68 86 90 97 65 88 95 84 74
77 65 59 67 66 67 67 70 72 74 76 73 69 69 67 71 74 94 86 66 74 68 99 68 69 48 56 61 64 68 49 62 75 88 84 68 59 68 85 95 93 82 88 83 79 73 88
67 59 63 67 67 70 70 70 71 69 70 77 76 74 70 66 66 60 69 67 67 98 98 92 73 80 72 61 64 76 81 80 88 98 98 92 60 65 66 66 73 76 96 96 81 93 95
62 61 66 69 70 72 72 73 71 70 71 75 78 78 76 65 72 67 71 85 100 99 64 87 76 71 58 66 67 81 95 99 100 100 100 65 63 59 59 94 68 78 97 96 98 99 72
60 62 66 67 72 75 73 71 72 72 75 82 81 80 73 59 71 81 83 99 100 74 87 57 58 58 58 57 66 90 96 98 88 88 85 90 87 62 54 67 82 74 76 95 84 78 80
61 66 67 70 76 73 70 72 73 79 86 86 86 81 81 70 74 93 96 100 99 82 57 56 56 65 70 56 70 69 76 83 79 70 99 95 95 59 65 70 77 75 98 70 94 65 78
66 68 72 77 78 77 72 73 72 82 76 77 95 90 83 65 87 94 99 98 80 60 49 42 48 42 56 54 75 68 74 94 89 80 75 86 97 81 83 71 68 83 62 71 70 86 72
69 71 76 80 82 85 83 78 74 75 79 74 76 93 90 86 88 97 100 100 92 57 44 47 45 45 45 56 55 58 72 83 78 72 66 60 69 84 88 84 68 64 54 46 46 47 70
70 74 77 83 85 85 84 82 77 76 78 69 74 99 92 86 99 97 99 92 80 69 53 49 45 41 43 49 56 54 65 59 52 55 55 46 54 71 58 46 48 55 45 39 50 48 40
72 78 83 86 87 88 83 80 78 77 75 56 97 98 93 86 89 98 70 89 89 74 56 52 48 44 48 52 57 54 57 51 51 55 55 45 52 76 61 52 49 47 41 36 36 43 43
78 80 85 86 87 87 83 81 79 72 74 59 80 100 96 91 78 61 67 96 92 55 48 47 51 46 46 46 44 56 53 52 49 51 66 55 48 60 64 69 59 58 46 36 42 61 38
80 81 86 86 87 85 85 76 72 74 75 63 71 88 75 94 67 50 67 84 56 58 46 42 47 46 44 46 45 48 48 44 44 58 46 46 72 72 48 48 54 53 52 45 56 37 44
80 82 86 84 81 85 81 78 77 79 81 62 58 66 62 57 51 47 70 52 51 57 54 48 50 44 37 48 42 45 42 42 46 41 46 44 81 61 85 43 47 51 45 45 48 43 38
78 82 85 85 82 82 82 85 84 84 81 57 64 54 39 59 50 46 63 60 57 53 55 52 47 44 54 60 50 47 44 44 46 49 46 49 63 81 70 45 45 50 45 47 51 48 50
76 80 83 82 84 84 84 80 76 73 75 56 59 41 41 54 44 54 59 55 59 58 56 54 51 46 55 44 43 39 39 40 40 42 40 47 54 63 79 53 68 46 39 47 46 50 49
72 76 83 81 78 84 81 78 76 70 68 56 52 48 40 48 48 56 52 55 52 53 61 62 58 51 45 46 46 47 45 50 46 45 43 42 45 61 74 46 43 47 45 47 50 45 48
73 75 82 82 83 88 87 83 80 71 67 50 60 60 44 50 52 58 52 52 47 50 55 61 51 50 51 42 39 51 46 50 48 47 44 43 42 50 49 63 43 45 45 44 45 46 45
75 75 82 84 85 86 86 87 84 78 68 54 60 63 53 54 60 61 52 52 54 52 52 56 53 53 50 45 43 43 48 50 45 44 48 48 44 55 48 54 44 41 43 44 52 50 47
74 75 78 86 84 83 84 84 83 80 70 58 60 56 62 56 64 64 62 58 58 55 48 57 56 55 55 56 49 46 43 43 47 43 42 45 45 42 45 53 51 43 48 49 45 45 45
73 76 76 81 85 83 81 82 77 78 72 65 54 50 50 59 65 56 56 55 60 61 59 57 55 53 52 56 48 43 43 44 43 35 47 46 42 44 43 41 42 44 47 48 46 45 48

GFSGBSN_sfc_rhum_090.txt.gz
RH
68 63 66 68 70 68 64 59 64 64 60 59 61 66 68 68 65 67 68 74 78 81 78 72 68 67 64 60 50 52 60 58 42 37 35 35 39 39 44 36 34 38 36 31 32 32 28
58 58 58 57 64 65 66 66 65 64 62 58 56 63 62 62 68 66 68 76 74 87 79 75 68 68 67 58 34 35 38 50 38 36 38 39 38 38 44 42 40 32 36 35 34 36 38
59 60 58 56 55 59 64 67 68 66 64 59 56 56 56 59 66 66 67 72 76 88 76 72 68 56 59 48 31 30 28 41 39 36 38 39 40 50 46 50 35 36 49 44 41 39 40
63 60 59 55 54 58 62 66 69 68 68 64 62 58 57 59 63 67 78 74 88 78 78 73 68 53 59 39 35 36 32 34 38 35 38 44 46 52 56 47 49 54 52 65 41 36 34
71 70 64 60 55 56 59 66 69 69 69 68 63 62 62 60 66 82 82 87 82 80 81 75 68 63 55 51 47 35 32 39 41 39 46 36 52 60 58 76 82 68 80 62 47 32 33
86 88 83 70 56 60 62 63 66 67 68 67 66 64 63 61 66 83 85 84 87 78 68 55 52 67 50 48 43 37 33 36 48 50 54 58 70 81 72 92 94 72 67 58 54 39 38
89 82 81 77 64 63 60 62 66 68 72 71 67 65 65 64 67 71 88 88 91 96 83 70 63 49 44 39 38 43 38 44 46 50 65 64 94 92 71 67 70 72 78 71 56 40 44
77 76 78 75 65 65 64 63 64 75 77 72 67 68 65 66 69 79 92 98 80 75 94 60 50 46 41 40 54 50 43 58 61 77 61 75 88 61 50 53 59 63 76 81 62 52 54
70 71 65 63 66 64 64 65 66 70 69 68 73 69 66 67 71 91 91 96 92 73 80 75 64 56 52 50 50 57 54 55 64 61 58 72 59 49 56 65 80 83 87 87 87 71 65
73 60 61 64 64 64 67 68 70 70 71 72 72 68 68 67 79 93 92 92 88 75 98 87 79 56 54 52 59 48 51 55 62 66 60 70 58 60 64 84 88 97 68 83 95 98 93
61 61 62 65 67 68 70 71 70 70 69 68 70 68 67 67 73 89 90 91 86 87 96 74 64 45 50 62 65 66 48 59 70 67 89 76 61 72 86 83 79 95 84 94 90 95 91
62 63 63 64 64 67 70 71 72 70 72 73 68 72 68 68 72 70 88 81 81 97 98 96 74 78 69 67 65 68 73 75 84 98 90 90 68 76 72 57 65 88 96 84 78 95 98
64 66 68 68 70 74 75 72 71 72 75 79 80 77 68 67 85 75 76 85 99 98 74 85 77 66 60 66 70 74 85 92 99 99 99 79 69 61 62 77 67 83 100 98 98 98 98
67 71 78 78 80 81 79 73 74 80 78 79 79 76 73 64 74 78 80 98 97 98 90 60 62 65 88 57 64 78 87 97 91 88 98 90 92 65 56 72 85 82 92 99 96 97 96
69 74 79 83 81 80 81 77 74 75 75 82 77 86 81 71 75 84 93 99 100 99 63 59 59 74 73 58 61 74 81 75 72 77 100 97 97 66 68 71 76 82 99 91 99 96 99
71 80 83 86 84 82 80 78 78 74 85 73 91 86 82 75 80 90 98 98 99 73 46 48 54 46 67 60 71 85 82 86 75 73 73 81 96 78 76 70 75 89 73 84 95 97 94
76 82 85 85 86 83 82 79 77 76 74 73 72 94 96 82 85 96 100 100 88 53 49 52 43 46 53 60 67 68 79 83 75 75 71 76 88 88 84 83 72 79 68 65 55 66 96
80 83 85 85 89 86 82 79 78 77 78 70 81 98 94 90 98 98 99 83 81 69 52 47 44 43 50 56 57 60 64 64 57 58 67 59 70 88 70 56 55 60 56 48 80 71 69
81 85 84 87 88 86 81 79 76 76 78 70 97 99 88 88 97 98 84 91 85 58 50 46 48 48 49 53 64 58 58 56 57 60 67 63 75 92 80 69 59 60 48 46 47 66 68
82 86 83 86 87 84 80 76 77 77 76 76 84 99 92 93 84 71 86 90 74 59 48 46 49 49 48 53 51 64 58 59 56 57 67 68 62 80 90 82 70 75 57 49 64 88 71
80 85 82 80 78 79 80 82 82 81 84 87 69 86 76 95 71 63 72 73 56 58 50 46 53 48 48 56 52 54 54 49 52 63 64 61 82 83 61 55 63 61 58 56 65 51 72
77 83 81 81 82 82 84 83 82 80 82 82 74 77 76 60 50 58 70 55 56 58 61 51 53 47 48 61 63 55 53 56 59 53 59 54 89 81 88 51 57 62 53 57 60 58 49
75 82 80 80 79 77 79 80 79 78 81 70 67 60 63 63 55 58 65 61 59 59 59 55 58 54 64 68 60 55 55 51 58 60 58 62 82 91 91 61 58 78 56 56 61 60 66
72 79 81 77 80 82 82 82 79 76 76 73 70 69 58 63 58 62 57 55 60 62 63 58 59 58 64 50 50 51 50 51 50 55 50 59 68 85 96 78 86 62 52 56 55 54 60
72 78 82 82 84 83 84 83 81 74 72 68 69 77 66 62 60 57 54 58 58 63 68 68 62 59 56 61 66 60 64 63 54 54 56 53 63 84 92 89 57 58 58 62 68 66 59
72 75 82 83 85 89 89 87 82 72 71 67 75 77 79 65 75 58 58 58 61 66 71 68 61 60 66 64 55 70 70 66 66 57 54 50 55 71 78 84 75 64 57 55 57 75 61
74 76 78 84 84 83 84 87 84 77 70 72 78 74 84 74 73 68 72 70 65 67 72 70 66 68 65 70 63 65 72 62 70 70 71 64 61 72 74 80 64 56 55 57 75 74 61
72 76 77 80 84 83 82 84 83 81 74 72 76 67 82 79 78 67 64 74 72 69 72 73 72 72 76 80 70 66 66 64 69 59 66 62 69 71 65 76 73 56 63 71 62 61 61
68 75 77 78 79 83 80 81 80 78 74 67 74 61 60 80 81 61 61 61 67 72 85 72 70 66 77 84 73 64 64 62 57 58 67 67 60 73 60 65 55 61 66 63 59 61 66

GFSGBSN_sfc_rhum_093.txt.gz
RH
64 60 61 61 60 57 60 60 69 70 64 62 60 56 59 61 60 64 65 64 71 73 80 88 74 69 70 78 67 56 57 54 51 50 47 44 44 48 54 50 48 50 46 39 39 40 38
66 67 66 61 58 56 56 63 66 70 68 66 64 58 56 57 57 59 63 63 68 75 85 80 72 70 74 72 55 54 60 59 40 47 46 46 50 48 54 52 52 43 45 43 42 42 41
84 83 80 85 79 62 56 58 62 68 70 68 67 64 61 60 59 60 66 73 69 74 83 81 78 58 63 58 36 38 45 58 48 46 49 50 50 58 60 62 50 50 62 58 50 45 46
77 90 90 86 83 77 69 65 65 66 69 68 67 65 63 62 62 66 74 80 74 74 89 85 72 63 70 48 39 35 35 43 43 41 49 50 51 60 65 58 61 68 67 82 53 49 46
78 75 70 76 82 75 64 62 60 62 66 67 67 64 64 64 64 67 83 83 84 86 78 75 79 80 72 48 49 44 38 49 48 49 51 37 58 68 68 84 92 82 91 79 63 47 47
70 67 68 71 71 70 63 64 64 63 67 67 70 67 65 65 65 72 88 90 92 85 78 65 53 74 59 58 52 42 38 47 57 61 65 64 77 93 88 95 92 82 86 70 72 54 50
70 64 63 66 66 65 63 64 64 65 70 73 70 67 67 64 66 73 91 86 88 91 92 74 72 56 51 47 43 48 45 52 49 55 72 69 93 98 86 80 80 84 89 92 73 60 60
68 60 60 64 65 64 66 67 68 68 70 69 67 70 66 66 67 83 91 94 98 94 94 77 54 50 45 46 61 57 49 66 58 76 70 83 92 69 65 64 74 80 90 87 70 58 66
61 60 65 65 65 66 69 71 71 69 71 69 73 69 67 66 69 87 93 97 93 87 94 84 60 54 55 56 56 67 60 59 66 68 61 72 67 53 60 73 84 87 93 87 88 78 78
64 63 68 69 68 67 70 72 69 69 69 68 70 70 68 68 81 93 94 93 95 87 98 97 81 62 54 62 63 54 59 59 66 69 67 72 62 68 74 81 90 98 70 74 99 99 97
68 69 71 78 83 87 76 74 71 70 70 69 68 67 64 69 86 89 84 91 93 97 97 83 73 50 59 70 74 70 61 63 75 75 83 78 84 83 88 89 77 88 80 96 99 91 90
74 71 73 76 79 80 83 80 72 76 79 78 78 70 66 80 81 81 90 92 90 94 99 98 76 82 79 68 77 69 77 75 84 87 84 85 75 84 82 65 64 71 97 100 90 93 99
72 73 78 79 80 81 81 80 75 82 82 85 76 71 68 73 90 85 89 94 98 95 92 90 89 78 73 77 84 75 85 94 94 94 95 83 86 75 70 86 73 81 100 98 98 98 94
74 80 83 81 77 78 79 75 74 75 79 77 74 73 74 74 88 86 90 99 93 96 90 65 74 68 91 68 81 80 90 87 86 82 92 98 86 74 65 77 91 89 99 99 97 97 98
80 85 84 83 77 77 76 75 77 78 81 78 78 94 90 89 82 89 94 98 100 96 71 69 72 95 83 69 73 77 81 76 77 88 95 100 88 68 73 74 81 81 99 88 100 99 97
83 83 86 81 78 78 76 75 76 77 76 72 95 91 98 90 88 93 95 99 98 93 68 60 73 65 86 77 74 92 84 85 71 74 77 85 98 76 77 78 78 89 80 92 96 97 96
84 82 81 79 80 82 78 74 75 72 66 72 86 96 92 88 91 96 99 100 86 67 59 76 55 58 68 77 82 87 87 87 74 74 75 79 98 82 87 87 79 83 88 83 74 80 94
85 80 78 79 82 83 81 78 78 78 78 81 89 98 89 95 97 99 99 85 82 77 64 54 54 59 63 63 61 66 67 73 72 61 81 76 85 98 77 60 64 70 74 61 82 76 81
84 77 78 78 82 82 82 79 78 78 85 91 96 98 89 94 99 95 85 87 84 74 60 53 58 59 59 64 72 70 72 61 60 67 77 74 83 94 73 62 62 72 59 56 62 73 85
83 80 78 80 84 84 84 83 78 78 80 91 96 98 94 96 95 88 87 92 85 66 56 54 58 57 62 63 61 73 69 64 58 62 68 67 74 83 92 83 75 81 66 63 67 86 87
80 78 81 76 75 77 78 79 76 77 81 95 93 94 86 95 84 87 83 81 72 74 64 51 55 57 60 68 64 65 58 60 62 66 72 70 81 83 71 58 66 66 66 69 77 71 82
77 81 79 78 74 77 80 80 79 80 83 92 92 91 90 92 65 78 76 75 74 71 70 69 74 67 73 83 81 80 68 70 76 62 68 64 86 84 92 56 58 66 59 66 69 69 66
72 78 80 79 79 82 85 83 80 80 83 93 92 82 72 69 72 78 81 72 71 70 68 64 71 70 78 77 74 69 70 61 64 74 67 69 86 93 93 79 69 79 64 65 71 71 74
72 76 82 82 85 86 88 84 80 79 78 92 90 92 81 76 78 74 68 68 74 75 74 71 70 72 70 62 63 62 64 58 59 64 59 68 76 92 95 78 84 65 59 61 63 65 70
70 74 81 83 84 86 86 88 85 78 78 84 90 92 94 80 75 69 68 72 75 76 79 77 74 68 72 75 70 69 73 68 62 59 68 62 74 86 87 94 65 64 62 69 72 75 69
71 75 77 82 84 85 86 86 84 83 78 85 93 94 94 85 84 77 76 70 81 84 82 74 66 70 75 78 69 72 72 74 67 59 58 58 64 79 83 86 76 63 64 60 61 80 67
70 76 77 80 83 84 84 87 84 83 80 81 82 84 94 89 88 86 85 87 81 84 86 80 72 72 75 84 74 73 80 68 76 76 72 69 69 75 82 87 68 62 60 59 77 58 67
68 73 77 78 80 83 83 86 84 84 82 84 80 78 90 93 88 77 74 83 83 86 88 81 75 77 85 86 79 78 75 68 70 64 68 65 72 77 75 80 68 56 67 64 59 70 64
67 70 76 78 79 80 82 81 78 79 79 78 80 74 75 90 85 70 69 68 72 75 88 88 80 82 88 90 89 80 71 73 69 65 70 63 58 69 59 62 54 63 68 68 64 64 66

GFSGBSN_sfc_rhum_096.txt.gz
RH
68 73 75 79 82 87 83 63 61 65 66 67 66 65 65 55 56 56 58 61 63 64 71 86 86 72 70 84 74 59 50 52 50 48 47 46 48 52 59 56 49 54 46 40 41 42 41
73 72 71 76 80 76 82 83 74 67 66 68 64 65 64 65 59 59 58 61 63 64 72 85 80 76 70 68 63 58 60 53 43 46 47 52 58 50 56 56 56 51 58 55 52 49 47
68 67 63 67 70 73 74 73 67 64 65 68 70 64 68 63 62 61 65 68 70 70 71 89 77 57 60 59 58 64 62 60 49 47 56 57 55 59 66 66 58 59 65 62 54 54 52
65 63 64 64 67 67 66 65 65 66 64 66 69 70 66 64 65 66 67 69 80 71 72 86 74 67 69 48 41 35 38 50 46 48 53 54 53 61 66 63 66 73 72 82 55 55 52
67 67 62 62 64 65 62 62 64 63 66 65 66 75 72 66 65 69 87 85 78 72 84 77 83 75 67 48 47 41 42 54 52 51 52 41 58 71 68 86 86 80 86 82 69 53 55
64 62 60 61 63 62 63 63 64 65 66 69 69 69 69 66 66 78 84 82 80 89 78 66 63 81 65 61 54 50 45 50 57 63 66 66 84 92 90 93 81 81 86 78 75 59 59
62 64 61 64 62 66 66 68 68 69 69 69 64 71 67 66 67 86 88 98 88 91 89 83 74 64 66 54 46 50 49 57 57 66 82 78 93 97 84 84 74 82 92 94 74 60 69
66 68 66 68 64 69 70 72 69 68 69 68 71 69 66 66 79 82 94 93 98 84 95 70 60 53 46 49 62 59 51 66 67 79 73 84 94 72 70 74 80 85 91 88 74 62 77
68 73 75 75 78 78 75 73 70 68 68 68 69 69 67 65 81 90 92 98 95 92 95 87 61 52 58 56 67 68 58 64 61 66 70 76 68 58 63 76 87 90 96 89 89 71 74
71 75 77 78 78 83 78 83 74 67 68 68 68 68 64 67 80 94 94 95 96 93 99 99 81 64 58 64 71 55 58 65 68 67 71 81 67 68 78 86 85 95 74 76 86 98 96
77 80 78 78 80 82 81 82 73 73 71 69 70 67 68 73 83 89 86 93 93 96 96 96 84 55 63 74 74 74 65 65 73 73 82 78 86 86 90 86 82 85 78 82 97 99 99
80 80 81 80 76 76 78 75 78 78 78 77 70 72 68 81 89 87 91 93 91 88 99 97 76 82 75 74 78 76 76 74 85 86 80 86 79 89 84 72 72 64 82 97 99 99 100
83 82 78 73 76 74 73 74 80 78 75 74 73 71 74 79 89 88 90 91 90 95 94 95 91 86 80 80 90 79 83 91 86 88 90 82 92 84 76 88 78 83 100 98 95 98 94
83 79 72 74 72 75 76 75 78 75 75 73 74 80 83 84 93 89 92 88 91 92 93 73 73 71 79 79 82 78 88 90 87 82 88 93 83 78 75 81 87 91 98 99 97 97 98
83 77 76 74 72 73 76 78 78 75 75 74 76 95 95 92 89 90 92 95 97 90 70 75 78 88 92 74 84 78 83 76 77 82 90 96 88 70 69 74 82 86 99 91 100 100 98
79 75 77 76 74 72 71 72 74 73 71 76 94 95 94 90 95 92 95 93 98 87 69 74 82 73 91 86 80 93 86 86 71 77 76 87 99 73 78 78 79 87 81 95 96 98 96
75 72 76 78 78 80 78 76 74 68 65 75 95 95 86 91 89 94 98 96 91 75 63 71 67 72 75 80 82 92 88 83 72 73 75 87 92 83 86 88 79 84 91 90 82 79 96
74 75 77 78 80 82 80 77 78 82 77 80 94 96 82 93 96 95 99 88 85 82 73 64 61 61 68 72 83 82 84 80 74 75 94 77 89 97 81 65 68 76 77 77 87 77 87
79 79 78 78 83 82 80 77 77 78 81 92 96 98 88 92 97 96 87 85 89 73 65 59 63 62 63 69 75 76 81 68 74 73 84 78 88 95 70 59 63 79 70 67 70 77 92
81 80 78 79 81 82 81 78 78 78 78 87 92 91 90 95 96 94 90 90 82 64 58 58 60 58 62 65 68 79 74 69 67 67 69 68 82 82 91 78 79 82 68 70 72 90 90
77 80 80 78 81 84 84 82 81 82 80 83 92 92 88 96 86 89 88 81 76 76 63 64 66 75 67 77 71 78 70 65 63 68 74 72 83 84 74 70 66 72 65 72 82 83 82
73 81 80 81 81 83 87 84 81 82 83 90 89 85 92 92 77 80 81 79 78 73 73 73 77 72 78 84 81 83 80 78 79 65 76 72 86 86 92 66 65 66 59 67 76 74 73
73 76 83 82 84 85 88 88 82 82 78 94 95 88 76 70 79 82 84 78 75 73 71 69 74 77 78 78 77 75 72 72 74 75 70 74 86 92 81 80 73 78 64 72 79 80 82
70 74 80 82 84 84 86 88 86 82 79 91 94 93 77 76 83 79 73 72 74 78 76 75 75 79 75 69 70 70 74 70 68 63 65 74 79 93 92 79 78 69 65 63 69 73 80
71 70 74 79 84 84 84 86 86 82 74 86 94 91 86 81 85 75 74 76 79 78 81 79 76 70 76 78 68 67 71 68 67 65 69 68 81 87 89 93 64 66 62 67 73 72 71
66 74 72 76 83 85 85 85 83 82 77 87 92 95 94 83 83 77 83 81 85 86 81 77 70 72 74 82 70 73 68 75 68 61 62 64 72 80 89 88 75 58 67 64 61 67 64
63 70 76 77 80 82 84 86 84 84 79 78 82 88 94 88 87 85 85 77 84 87 89 85 77 76 78 88 80 77 81 73 67 77 70 68 75 83 85 92 75 61 64 61 74 39 70
65 67 73 78 79 80 82 84 82 82 82 81 82 83 88 92 88 78 77 84 86 89 86 79 76 76 88 87 83 82 80 72 77 68 70 60 74 79 81 84 73 64 69 61 49 76 68
68 66 69 77 80 80 80 82 78 75 78 74 75 77 82 90 85 76 72 74 79 76 86 88 80 82 88 91 91 91 75 83 74 73 68 75 61 62 63 61 48 65 61 67 64 63 71

GFSGBSN_sfc_rhum_099.txt.gz
RH
65 64 63 65 67 71 71 72 76 70 68 62 68 69 69 64 58 56 55 60 61 65 65 80 90 79 70 74 78 61 49 50 46 45 47 46 50 54 62 60 51 57 52 52 50 52 47
68 62 65 66 62 65 68 69 70 67 66 64 64 69 68 68 64 60 59 58 67 64 65 76 88 84 74 66 64 60 53 46 43 46 55 56 56 51 64 62 59 63 62 62 56 54 53
64 67 68 61 64 60 63 62 65 66 65 65 65 69 66 66 64 64 63 66 69 75 73 76 85 70 62 73 68 65 56 58 50 48 61 59 56 58 66 65 62 64 68 65 58 57 53
61 63 62 60 64 59 62 60 62 62 62 63 62 66 68 68 66 65 65 72 80 71 74 78 80 78 77 49 50 57 49 52 50 51 56 56 55 62 64 67 68 77 74 76 49 56 54
62 64 61 61 61 60 66 64 63 64 64 66 66 67 69 70 65 67 77 84 83 76 74 86 91 83 67 45 44 42 49 55 54 53 53 45 61 74 71 84 76 76 81 80 69 56 58
66 69 71 71 70 67 68 68 66 68 67 68 63 66 72 66 67 84 84 77 74 80 85 80 71 80 61 60 55 49 52 51 59 63 67 69 85 91 92 90 76 72 87 80 82 61 62
68 71 74 76 77 82 82 72 70 67 68 67 70 70 66 73 76 84 89 90 90 96 87 85 78 72 64 54 46 54 54 58 61 63 86 78 92 94 77 84 71 78 90 94 76 62 74
73 76 77 77 77 81 84 80 71 68 66 68 69 68 66 75 75 82 91 92 98 94 94 78 64 74 50 50 62 60 54 68 70 81 78 83 96 72 70 74 82 90 96 91 76 66 69
78 77 76 77 75 78 84 82 77 68 66 67 70 66 65 72 73 88 95 99 95 90 96 91 68 63 59 55 69 69 59 68 67 77 78 85 68 62 72 79 90 92 96 89 89 71 68
79 77 74 75 75 76 84 76 73 69 69 69 66 66 70 76 80 94 95 94 96 94 98 99 83 61 59 66 78 60 62 71 73 78 83 83 69 71 77 87 87 95 76 76 84 96 98
76 69 72 73 74 75 77 73 73 70 71 69 71 70 72 68 88 93 95 95 96 90 94 98 82 59 64 79 78 77 64 67 76 73 77 78 84 91 93 87 82 82 78 87 86 98 99
74 72 71 72 73 74 76 77 73 73 74 73 75 72 72 82 87 94 94 94 95 86 98 98 79 83 82 81 79 78 74 72 79 81 76 84 80 87 88 76 77 67 86 93 93 97 97
75 74 71 71 71 72 74 75 73 73 72 74 75 77 83 84 98 91 90 93 91 96 91 96 93 85 82 76 90 78 82 90 84 92 92 81 91 86 82 90 82 86 98 97 93 94 92
76 75 71 72 74 74 74 74 72 72 73 74 74 79 85 82 93 93 88 86 91 89 91 75 78 74 79 83 77 85 86 93 88 77 93 94 82 85 79 84 89 94 96 99 97 100 96
74 75 75 71 71 71 71 70 71 71 72 76 76 94 94 88 92 90 90 96 97 84 75 78 76 81 94 74 84 89 88 81 77 76 94 91 91 65 76 75 82 90 98 90 100 93 98
73 75 76 78 77 74 71 69 69 69 71 76 95 94 90 87 93 92 94 96 96 89 72 79 84 83 76 85 89 91 91 78 71 71 73 88 97 78 76 82 82 90 86 96 99 97 95
78 76 76 77 79 80 78 78 79 79 76 76 93 88 78 88 88 92 98 96 90 82 68 76 76 80 82 86 82 94 89 81 77 74 74 82 91 79 79 87 82 86 88 90 92 90 97
79 77 73 76 81 79 78 79 80 80 77 80 93 92 81 91 93 97 99 96 84 81 75 73 69 64 74 77 88 92 88 84 75 81 89 84 89 94 81 71 75 80 83 83 93 80 88
81 80 79 80 86 86 83 79 80 80 80 88 95 95 85 86 96 98 87 85 89 73 67 64 68 65 66 72 81 75 79 70 78 81 85 85 89 94 65 57 62 80 79 73 80 82 93
78 81 81 82 86 87 87 84 83 82 80 86 87 90 90 94 95 92 91 86 79 68 66 62 71 63 68 76 76 80 79 71 77 74 69 68 86 80 85 69 78 80 75 68 80 92 89
72 79 82 81 84 86 87 87 83 83 82 80 91 92 90 94 83 84 88 84 78 80 70 68 72 78 82 80 77 82 80 69 71 69 80 76 89 86 80 74 77 74 70 66 86 83 83
72 72 83 82 83 84 88 88 85 82 79 91 87 86 93 88 83 80 82 82 82 75 78 73 79 76 82 82 81 81 84 80 80 73 79 79 88 88 88 80 78 72 66 64 76 81 82
71 69 75 82 82 84 86 88 87 84 78 95 97 90 72 73 83 85 86 81 76 80 73 76 78 80 74 80 80 78 76 77 79 80 74 77 87 92 84 75 76 79 71 66 77 79 77
70 71 71 77 80 83 85 88 87 85 79 91 95 91 76 76 86 83 78 76 79 83 81 76 80 81 76 76 77 83 86 83 83 80 74 76 81 94 95 75 70 63 68 64 67 68 78
65 72 70 73 77 84 85 85 85 84 75 87 95 89 82 80 84 82 79 81 78 78 81 81 78 71 79 75 69 64 70 67 72 75 77 74 83 90 93 94 62 69 65 70 76 66 72
66 66 75 76 80 82 85 85 83 83 78 85 93 95 92 84 78 82 81 82 84 86 82 77 73 73 77 81 70 72 63 74 62 55 71 74 78 83 90 91 72 51 74 72 61 65 71
71 66 69 77 79 80 81 85 82 80 78 81 83 89 92 88 84 82 85 82 84 89 89 87 80 80 79 88 81 78 82 73 76 75 71 71 80 90 90 94 79 65 70 65 66 41 73
78 69 67 74 79 80 80 83 82 77 81 81 83 88 87 91 86 83 79 83 87 90 87 78 78 78 89 85 87 83 84 74 83 74 68 61 73 83 86 90 79 67 72 60 51 76 76
84 74 69 69 77 80 79 79 82 76 78 75 80 79 85 93 85 80 76 78 79 80 88 89 81 83 90 91 93 92 82 88 79 73 72 74 59 56 68 66 51 63 60 68 64 66 73

GFSGBSN_sfc_rhum_102.txt.gz
RH
62 64 71 70 60 62 65 66 68 69 66 65 66 67 70 77 66 55 56 55 59 62 62 65 89 86 81 69 80 62 53 47 43 46 48 48 52 58 63 61 54 59 62 57 55 57 54
62 66 60 60 62 59 60 62 65 66 68 64 64 66 72 72 66 62 60 59 59 62 56 68 89 75 78 84 60 55 46 42 46 53 60 56 54 53 61 67 60 73 66 65 59 57 56
65 63 65 62 61 66 64 62 63 64 63 64 62 64 70 74 65 63 64 63 65 67 68 74 87 81 79 91 67 60 54 57 49 55 61 60 56 58 66 64 68 70 64 61 56 59 54
65 66 72 72 73 71 72 68 64 62 64 63 64 66 68 72 65 64 65 67 70 72 67 75 86 93 95 78 60 47 48 54 52 52 57 58 57 63 66 69 62 75 69 58 43 57 53
70 74 75 76 77 78 88 79 70 65 67 68 64 67 74 65 66 76 76 79 78 76 68 82 89 90 96 54 51 45 48 55 56 58 56 49 63 76 71 74 68 72 70 76 66 59 60
74 76 75 75 77 89 88 82 72 67 66 66 71 69 67 74 76 74 80 82 79 79 88 79 74 79 63 62 53 50 53 53 61 61 69 70 82 90 91 83 67 73 82 80 80 63 65
73 70 71 70 78 78 80 77 68 68 68 69 68 67 70 72 77 81 85 85 89 97 86 88 88 81 60 54 48 56 54 56 57 64 88 78 86 82 77 80 63 79 90 92 79 64 77
68 68 70 71 79 78 74 74 69 68 68 68 67 66 72 73 75 79 88 92 98 92 97 80 63 61 50 51 62 59 52 65 67 81 81 81 91 72 70 74 82 90 97 94 80 69 71
69 70 71 72 79 73 74 75 69 69 70 68 67 71 70 70 73 85 94 99 95 92 95 90 77 72 64 56 69 68 60 68 71 78 82 85 70 64 71 84 90 95 98 92 90 69 67
67 74 73 72 73 73 72 72 70 71 71 71 71 73 71 71 80 95 95 95 96 97 96 99 88 65 60 67 82 63 64 73 74 80 89 85 73 74 82 85 86 100 78 78 80 93 96
68 70 70 73 73 74 72 71 72 73 73 76 73 71 77 72 93 94 97 95 94 94 94 94 80 58 68 78 76 76 65 67 72 81 75 77 86 90 94 89 80 81 77 82 85 98 98
70 68 67 67 73 72 71 71 72 72 74 74 79 76 70 82 88 95 94 95 93 85 98 95 81 81 81 83 85 77 72 71 78 76 76 81 81 86 85 82 78 69 88 90 90 89 98
74 71 71 71 72 72 71 70 69 70 71 73 75 77 81 85 95 92 93 89 89 96 90 95 91 86 77 83 88 78 86 84 84 88 92 79 88 88 83 92 86 83 99 98 92 96 89
74 77 77 74 72 70 69 69 68 69 74 77 73 77 84 83 94 92 89 85 92 87 87 80 83 72 67 84 84 90 92 96 88 76 97 98 81 86 84 84 88 88 91 99 99 98 94
76 76 77 76 78 78 76 72 71 72 73 78 74 93 91 83 90 90 89 94 96 88 79 79 81 85 94 83 87 89 92 87 76 73 93 90 90 68 80 77 84 92 95 85 94 88 99
76 74 74 74 76 77 78 79 80 82 84 78 94 94 88 82 93 90 94 92 94 88 73 79 83 86 86 92 90 88 92 77 72 69 77 85 98 76 77 84 84 90 87 93 88 99 96
79 76 76 77 80 80 79 79 80 81 83 75 91 85 75 87 90 92 98 97 90 84 69 76 81 84 84 88 86 96 92 81 77 73 71 81 92 79 82 88 82 88 88 87 90 96 98
78 79 79 80 84 85 83 79 78 84 81 78 88 90 78 86 92 97 98 98 84 81 78 78 73 70 80 81 88 92 92 82 77 83 89 82 85 91 81 78 75 83 84 84 95 84 90
76 81 81 82 87 88 87 85 80 81 79 86 90 89 81 83 96 97 86 84 87 76 70 68 70 66 72 80 85 88 82 75 80 85 86 86 92 95 60 54 70 81 82 80 84 86 90
72 76 83 83 86 88 87 87 85 79 80 83 86 89 88 94 93 89 90 86 77 69 71 68 76 66 74 79 78 79 80 74 83 81 71 74 88 84 80 60 76 80 78 74 83 95 87
72 72 79 82 83 84 85 88 86 83 82 78 92 92 89 92 84 85 87 86 80 80 74 71 73 79 86 80 78 79 79 71 82 70 84 79 91 91 84 78 78 76 75 76 84 81 84
71 70 73 80 82 83 84 89 88 84 75 91 86 89 93 88 84 81 82 84 83 80 82 78 81 80 84 83 81 83 84 81 80 77 81 83 89 90 93 79 85 82 75 75 70 80 81
70 72 70 77 78 83 85 89 89 84 77 95 97 90 74 77 83 84 86 82 79 84 76 78 81 83 80 77 78 77 76 77 79 83 77 80 90 92 89 78 75 78 77 74 71 79 76
69 70 73 70 75 84 85 87 88 85 78 90 96 87 76 77 88 84 81 76 72 79 81 78 79 82 75 80 82 85 88 88 88 87 84 81 82 93 96 80 72 53 71 69 70 67 77
73 68 72 76 76 83 85 86 82 83 74 88 96 88 81 77 86 81 82 80 80 80 81 78 72 69 80 79 71 62 64 70 76 83 86 82 84 91 94 98 64 59 70 68 71 60 72
79 70 68 73 79 81 83 85 83 79 76 84 94 95 90 85 73 78 81 83 85 87 84 78 77 77 79 80 69 67 55 73 62 62 82 81 82 86 93 93 63 39 73 74 64 65 62
84 76 69 69 77 80 81 83 84 78 78 82 88 90 91 89 84 83 85 83 84 89 90 88 81 82 80 87 77 79 80 73 73 71 69 81 84 94 93 95 81 65 71 68 70 35 76
84 83 73 70 73 79 80 80 83 78 79 82 88 90 88 92 85 83 80 83 89 91 87 78 81 79 91 83 87 85 85 80 85 76 73 65 75 87 92 94 84 69 74 62 49 73 73
84 86 80 73 71 77 80 80 80 79 75 76 85 81 88 93 83 83 80 78 78 78 86 89 83 81 88 92 94 93 87 91 82 76 74 67 59 59 68 66 53 64 64 62 62 63 72

GFSGBSN_sfc_rhum_105.txt.gz
RH
65 64 64 64 61 62 55 60 62 66 65 64 63 67 68 72 76 84 56 56 55 58 60 69 92 88 85 80 83 63 50 41 43 48 49 46 48 53 55 52 49 50 55 52 50 55 53
67 67 70 72 73 72 75 68 63 63 62 62 62 65 65 72 81 82 60 60 59 63 56 80 90 87 80 92 66 48 43 43 48 53 58 52 48 50 55 59 52 61 60 60 56 52 52
74 75 75 73 74 78 89 82 66 62 64 65 62 65 68 68 82 75 62 61 62 74 67 87 83 80 81 92 61 49 48 53 53 52 58 57 50 53 53 62 61 61 48 50 44 51 49
67 66 65 73 81 86 85 82 67 66 68 68 64 68 70 66 70 63 64 62 61 75 67 85 84 83 98 79 74 44 46 52 52 52 59 58 56 63 63 58 50 60 50 38 40 52 50
63 68 69 74 76 78 82 79 70 68 67 67 69 70 68 68 69 73 73 74 71 74 74 85 83 78 98 69 51 48 47 56 57 58 58 46 62 71 62 59 56 58 44 56 54 51 54
67 68 73 75 74 74 72 71 67 66 67 68 67 70 73 74 77 77 78 78 76 83 86 70 69 74 82 76 52 54 53 53 59 59 66 67 75 78 76 76 58 51 59 65 68 55 60
68 67 76 70 70 72 68 65 65 64 65 66 66 70 73 73 75 79 86 85 85 91 91 90 84 79 81 52 51 59 54 54 54 65 76 74 80 73 65 60 53 67 76 80 71 60 71
68 69 68 69 71 72 67 66 67 67 66 67 70 71 69 69 78 76 85 93 98 91 98 81 62 56 50 52 64 60 53 64 64 78 73 74 83 65 67 71 73 80 91 88 71 67 69
68 69 67 69 69 69 68 69 69 70 70 71 72 73 69 69 72 84 92 99 96 93 96 92 71 66 64 58 70 68 61 66 68 73 74 74 66 63 67 76 84 89 96 85 80 68 69
64 65 66 68 67 70 68 72 70 72 76 74 74 74 70 72 80 95 96 94 95 96 96 99 82 65 64 66 80 65 67 70 68 80 83 79 69 70 75 80 82 98 76 76 81 90 91
69 68 69 70 70 70 70 69 71 72 74 78 74 73 78 77 90 96 96 94 93 92 92 93 81 57 70 74 73 67 66 68 78 77 72 73 79 83 89 86 77 72 71 76 78 96 97
74 73 71 70 70 70 70 70 71 73 73 77 76 75 74 82 88 94 95 94 86 84 97 94 81 82 82 81 84 77 73 70 78 74 74 76 76 82 78 78 76 73 86 87 86 90 94
75 75 77 76 76 74 72 71 71 72 76 75 76 78 82 85 90 92 93 79 89 94 91 92 91 80 70 87 80 80 83 81 86 81 90 76 79 83 80 88 84 81 97 94 89 95 86
74 74 74 75 75 76 78 79 79 80 78 76 75 78 85 82 94 91 83 83 90 95 89 80 76 65 81 86 85 89 92 98 85 81 94 95 78 82 84 80 83 82 89 97 95 97 91
74 76 75 76 77 78 77 78 79 81 86 86 75 92 88 82 91 88 88 93 95 88 80 82 85 85 94 74 85 90 91 86 78 76 90 92 89 67 83 76 77 88 87 84 99 88 95
77 77 77 79 79 80 79 77 79 83 85 79 93 91 86 83 92 89 93 93 95 87 75 80 83 85 91 93 92 93 92 77 79 71 78 91 94 75 78 81 82 89 84 84 91 93 96
74 78 78 79 82 82 81 79 78 84 80 78 86 85 79 91 88 92 99 97 88 83 72 79 82 84 83 87 86 94 91 79 78 80 76 81 87 77 76 93 81 95 91 89 83 88 95
75 76 80 82 84 85 82 83 79 83 73 77 87 90 78 91 92 97 98 95 85 80 80 82 74 73 78 83 87 91 91 82 76 80 79 77 89 88 83 71 71 80 79 76 86 82 85
72 75 80 82 86 87 85 84 82 78 77 83 86 86 80 80 92 98 86 85 84 78 76 72 72 70 71 81 81 88 84 74 80 81 86 86 87 96 57 51 69 77 78 72 80 82 92
73 73 76 81 84 86 86 87 86 79 80 81 85 84 86 93 92 86 84 85 81 73 75 74 80 70 72 78 82 82 82 75 83 82 73 77 90 85 83 56 64 73 77 72 78 90 81
73 72 74 79 78 82 86 88 89 81 77 77 92 92 90 91 84 87 86 85 83 82 77 74 75 79 85 81 80 80 80 75 86 73 86 79 94 94 88 81 80 77 74 76 83 75 83
73 72 72 75 77 80 85 89 89 84 73 92 84 86 90 90 84 83 83 86 81 82 77 80 75 82 80 80 72 77 81 80 76 78 84 87 93 89 95 78 80 89 81 81 75 73 82
76 73 73 73 74 80 85 89 88 85 75 95 97 91 73 82 85 84 84 83 77 84 78 76 76 81 82 69 75 75 73 74 73 78 78 83 92 93 91 76 76 67 64 77 72 71 71
83 74 72 74 77 81 84 86 85 85 78 90 96 86 73 71 87 83 85 83 80 82 80 77 84 83 71 78 81 86 91 90 89 88 82 86 86 91 96 77 52 36 62 63 67 66 72
82 77 72 72 76 80 82 84 83 80 74 89 96 85 80 74 84 79 82 82 82 81 86 84 78 74 81 74 75 62 61 69 82 90 94 86 84 92 94 97 57 36 63 65 65 57 62
82 83 75 72 74 80 81 82 84 79 78 85 95 95 88 83 66 78 82 83 85 86 84 79 78 78 77 82 72 68 51 59 60 71 89 87 84 87 94 92 60 32 62 65 56 55 46
81 82 82 74 72 76 80 81 83 81 79 83 88 91 91 87 83 81 83 81 85 89 89 88 83 84 81 88 76 78 78 75 69 71 89 90 91 97 96 95 81 60 67 64 65 32 59
88 86 85 79 74 73 78 81 80 82 78 84 90 92 89 91 85 82 76 84 90 90 87 77 79 81 92 87 86 85 87 82 85 75 73 73 81 91 95 97 87 64 71 58 47 60 62
89 88 86 85 78 74 75 80 79 81 77 75 91 82 89 92 76 83 79 80 74 74 86 89 82 81 88 91 94 93 88 92 84 80 75 71 55 57 69 68 53 63 59 60 55 58 61

GFSGBSN_sfc_rhum_108.txt.gz
RH
69 67 64 70 70 75 88 85 67 64 62 61 64 66 68 71 70 73 74 57 54 57 58 80 88 79 77 69 74 47 46 39 31 33 33 32 27 30 32 34 34 32 36 36 34 38 34
68 66 72 73 82 81 84 84 67 64 64 64 64 67 66 71 73 79 79 59 60 58 55 86 88 91 80 89 57 36 32 32 34 34 36 31 29 30 33 37 32 37 40 34 36 32 35
66 70 72 73 74 76 76 70 68 67 66 65 65 67 65 70 72 87 67 60 64 65 74 87 90 89 82 90 53 34 36 39 38 32 38 38 31 30 30 39 42 38 29 29 32 34 34
68 69 68 71 72 71 70 68 67 65 67 67 67 67 67 68 76 72 62 62 61 69 75 88 92 91 94 75 48 34 33 40 38 38 41 40 34 42 39 36 30 29 27 19 28 37 40
70 68 71 69 65 66 64 64 65 66 66 67 68 67 68 70 70 69 69 70 67 70 83 85 88 74 92 59 44 37 33 42 41 41 40 36 41 44 38 32 31 25 18 24 26 40 41
70 68 70 69 62 63 63 62 62 62 64 65 68 70 72 73 78 78 74 71 77 84 85 77 84 79 83 70 47 43 38 39 43 45 46 47 46 46 39 52 56 23 26 33 36 36 43
70 72 71 68 66 63 64 64 64 64 66 69 70 71 70 76 78 76 78 90 76 91 81 88 82 81 75 51 40 44 42 39 41 44 48 53 76 63 52 38 41 47 50 50 35 42 54
64 68 72 71 71 66 68 67 68 68 70 70 71 70 69 76 75 75 79 81 95 85 97 67 63 62 45 42 51 47 39 44 47 55 52 55 73 52 52 55 56 57 59 49 45 48 54
65 65 64 66 66 64 66 69 71 73 74 74 71 68 69 70 72 77 87 97 86 79 95 88 59 56 54 45 58 56 48 48 50 58 54 48 54 52 53 61 67 62 71 59 70 57 46
70 69 67 67 68 69 70 70 71 73 77 73 76 74 70 67 71 83 90 86 82 85 95 98 70 52 51 52 57 51 51 54 52 64 62 59 56 56 58 62 63 73 54 59 70 81 79
73 74 74 73 72 71 70 71 72 74 75 76 71 76 76 67 74 83 83 76 75 82 89 94 70 47 54 55 54 51 52 50 56 58 57 68 62 64 69 76 56 60 58 63 71 86 84
72 73 73 74 75 77 78 78 77 76 76 74 77 76 68 68 68 73 75 74 72 89 95 86 69 64 58 61 63 56 55 52 58 60 59 61 60 61 59 61 58 56 73 77 76 79 92
74 74 75 74 75 76 77 78 79 80 82 78 74 76 68 68 68 74 71 60 95 92 82 76 67 64 60 64 65 60 64 64 74 93 99 60 59 63 62 69 68 74 82 89 90 95 73
76 76 76 77 77 77 77 78 79 80 82 85 76 71 74 61 68 74 63 64 90 82 75 67 61 61 67 66 64 67 64 65 60 58 77 86 84 61 65 64 62 60 66 87 95 79 68
77 76 78 79 79 79 79 77 79 83 85 83 70 68 64 63 74 67 56 96 94 68 64 64 64 65 75 63 60 60 62 60 57 55 79 92 91 53 62 56 62 68 78 74 94 81 85
75 79 79 78 80 81 80 79 78 85 79 76 74 67 65 67 71 67 78 93 76 63 58 61 60 58 62 65 62 61 66 57 60 56 55 69 97 57 62 64 63 67 71 75 81 88 79
71 74 79 79 82 83 81 82 79 82 76 70 58 62 65 73 74 63 100 83 61 60 56 55 58 57 56 62 61 64 63 58 55 60 53 59 64 59 57 64 60 80 74 72 60 62 72
72 72 76 77 82 83 82 84 82 79 73 59 65 83 69 76 77 81 88 62 73 54 60 59 50 53 54 59 62 63 61 59 51 54 58 62 64 75 57 52 51 54 52 50 53 59 59
75 72 73 77 79 86 84 84 84 79 79 54 69 74 66 71 87 84 67 67 63 60 58 57 56 52 50 56 58 62 59 54 58 56 58 62 67 80 45 50 53 57 54 53 54 60 67
76 74 73 74 76 84 86 88 88 81 78 56 52 86 61 67 68 54 58 63 62 59 58 57 53 52 52 56 56 57 57 59 61 58 70 65 64 64 47 36 42 51 48 55 54 70 45
77 76 74 73 76 81 84 89 87 85 76 57 59 76 69 80 60 61 60 59 60 60 56 55 57 54 51 52 54 54 52 53 65 67 67 63 80 72 63 55 56 59 58 53 65 57 56
81 75 76 75 76 80 84 88 86 85 72 64 56 57 62 58 61 56 64 62 60 60 58 52 54 57 57 52 46 44 50 52 45 62 66 67 82 70 84 48 53 65 55 55 55 53 52
83 77 75 75 76 79 83 88 86 85 68 62 75 62 47 66 60 50 55 61 61 64 58 58 58 55 57 54 54 50 49 53 54 54 58 64 74 81 70 52 53 50 40 45 51 51 50
84 79 74 74 75 78 81 84 85 84 72 62 71 56 44 46 55 51 64 61 59 62 61 57 59 57 50 55 53 56 58 60 59 58 55 62 68 72 85 60 48 31 38 42 46 42 44
82 82 77 73 75 77 81 81 84 80 76 63 71 60 51 37 47 55 62 63 60 60 64 61 55 49 56 53 49 43 36 44 55 67 66 62 61 73 82 66 38 28 45 48 50 37 36
83 82 84 76 73 76 79 81 82 81 80 61 72 77 62 53 42 49 56 60 57 57 58 61 57 56 57 52 49 47 31 32 35 50 66 70 63 72 66 76 42 23 40 44 44 36 30
85 84 85 84 74 74 76 81 81 83 79 68 68 79 65 60 53 56 52 52 59 62 57 62 60 66 61 57 51 45 44 46 40 44 66 74 80 88 75 78 54 37 43 45 43 24 33
90 89 88 86 82 74 74 77 81 81 79 72 73 74 63 62 56 61 58 63 70 63 49 56 58 67 68 65 57 50 55 47 54 44 46 50 61 69 70 80 79 42 53 40 30 34 37
94 92 90 88 88 81 74 75 79 79 81 70 70 69 72 66 58 64 59 58 58 55 54 65 58 59 56 60 61 57 61 60 50 46 48 50 36 33 43 40 34 41 36 38 39 41 42

GFSGBSN_sfc_rhum_111.txt.gz
RH
68 70 69 70 73 76 77 75 63 63 63 64 66 66 69 69 74 71 69 56 54 57 61 85 87 81 80 67 71 39 38 35 28 28 25 22 20 21 26 24 24 22 24 25 26 29 25
67 67 71 66 65 67 67 64 67 65 63 64 65 64 67 68 71 71 70 58 62 57 59 87 81 85 81 86 46 28 28 27 28 27 29 22 20 20 23 24 24 24 28 24 26 24 25
70 65 70 61 65 64 64 65 64 64 63 63 64 64 69 68 75 79 67 59 66 62 67 83 79 63 78 90 40 26 29 32 29 25 31 26 22 23 22 28 27 24 25 24 26 27 28
68 70 71 62 62 63 63 64 66 66 65 66 66 66 67 66 68 78 63 60 65 73 86 82 71 70 89 58 48 27 26 30 29 30 33 28 25 31 26 23 22 23 21 22 25 29 33
69 70 69 64 62 63 63 63 63 63 64 67 69 69 71 71 69 66 63 64 67 83 90 75 70 72 83 59 40 30 27 33 32 31 30 27 30 30 30 27 27 19 19 17 30 31 34
68 71 71 70 68 64 64 65 65 65 67 69 71 70 72 72 75 76 70 71 81 86 83 69 81 77 85 70 43 35 30 32 34 36 35 34 33 36 28 48 66 23 18 20 22 31 36
64 66 70 68 68 64 65 68 70 71 68 70 70 71 75 75 81 77 76 82 82 90 84 85 83 81 79 53 37 37 35 33 33 35 35 38 71 64 39 30 33 31 31 30 24 34 48
67 66 66 66 67 68 68 70 72 73 73 68 70 73 76 76 75 77 83 82 88 82 97 79 76 72 52 38 43 41 32 37 38 41 39 46 66 41 42 45 45 44 42 36 37 41 46
73 73 71 70 70 69 68 71 74 76 74 74 69 70 72 72 73 75 69 82 72 72 92 85 66 57 50 38 50 51 40 39 39 44 37 43 44 44 43 50 55 48 58 52 64 52 41
69 71 70 72 73 75 76 76 73 74 78 73 74 70 67 65 75 82 82 73 69 67 94 84 61 51 44 45 50 42 44 47 45 49 48 50 45 46 46 52 53 62 46 53 61 71 73
70 72 72 72 73 74 76 77 78 78 75 77 74 77 70 68 63 76 68 66 63 72 94 72 58 42 42 47 48 45 42 39 48 49 51 60 53 54 58 70 48 58 52 57 64 74 74
72 70 71 73 72 74 75 77 79 80 82 76 75 74 68 57 55 60 62 60 65 92 96 70 54 53 48 46 50 44 44 41 45 49 48 51 49 52 52 51 50 51 64 69 63 64 91
76 76 75 75 76 77 77 76 80 81 82 84 74 73 62 55 58 63 59 58 95 94 64 62 56 47 47 52 50 48 50 55 66 94 100 51 52 53 53 60 58 62 73 91 87 93 75
76 76 78 77 78 78 78 78 77 82 84 83 75 68 66 52 56 63 56 56 92 77 64 52 50 48 56 52 51 51 50 57 49 46 67 83 86 54 54 56 61 52 57 84 87 73 64
73 78 80 78 79 80 80 79 79 81 80 79 69 49 52 54 61 61 48 98 90 59 51 51 52 51 62 50 48 50 50 51 50 46 69 88 88 48 51 47 55 57 67 57 86 61 79
72 76 79 77 79 81 81 80 80 80 80 74 48 48 54 56 59 63 67 81 66 48 48 48 44 44 48 50 51 48 52 49 52 48 46 55 86 48 55 55 55 61 53 68 80 78 72
73 72 75 77 78 82 81 82 81 79 82 73 52 44 58 57 64 48 95 67 54 46 47 46 46 44 45 51 47 50 49 48 45 47 44 46 57 56 50 59 54 72 64 62 48 48 63
77 73 73 75 77 82 82 82 82 78 82 68 56 73 57 56 67 57 74 50 59 50 50 49 43 44 44 47 47 47 45 45 40 44 49 47 49 64 46 40 45 48 46 41 50 44 47
78 76 74 76 80 84 84 83 83 78 77 52 42 49 56 60 80 72 57 56 52 52 49 49 47 45 43 45 47 46 46 42 46 50 47 46 55 66 50 41 42 52 43 44 42 45 55
80 77 77 75 80 84 84 87 86 79 76 49 40 80 44 43 47 41 47 52 53 53 49 48 45 43 45 46 44 45 45 50 48 50 68 58 53 57 51 37 38 43 40 44 47 65 47
83 78 77 77 75 78 82 87 86 83 74 53 47 59 58 66 46 45 46 46 49 51 48 46 47 46 43 42 42 42 40 42 53 64 58 57 68 60 52 46 46 47 46 43 49 51 60
82 80 76 77 76 76 81 87 86 84 79 50 45 43 45 43 47 44 53 47 46 50 48 46 51 44 43 45 41 44 42 40 36 52 57 55 74 58 82 45 39 46 41 41 43 44 43
83 82 76 76 77 76 81 87 87 85 68 47 52 46 42 57 42 39 36 43 46 50 49 46 45 44 43 39 39 37 36 36 38 41 52 55 65 75 68 39 46 48 34 36 38 36 38
85 84 78 76 77 78 79 82 86 84 71 50 54 46 38 32 42 36 47 47 48 48 44 43 47 45 41 42 43 44 46 43 40 41 40 46 60 62 79 56 63 32 29 30 32 32 31
84 83 82 78 76 78 78 80 82 81 77 52 55 53 42 32 31 34 47 48 47 47 55 51 42 39 44 46 43 37 36 40 44 46 48 46 50 66 75 57 38 29 39 42 43 30 27
86 85 84 85 76 77 78 79 80 82 80 54 59 66 52 45 34 34 40 41 44 38 43 49 49 47 50 44 41 43 29 24 31 54 53 53 54 58 52 69 49 23 36 36 40 41 28
89 88 88 87 84 76 76 77 80 82 80 64 62 67 58 52 37 39 38 37 41 44 42 47 50 59 54 48 47 37 36 34 31 33 67 69 74 82 73 67 48 30 38 39 40 28 29
93 93 91 89 87 82 75 76 78 81 82 68 68 64 64 54 46 48 46 47 54 52 40 50 52 58 62 58 43 40 42 33 42 27 36 45 57 67 59 65 74 34 45 38 27 29 30
92 94 94 92 89 88 81 76 76 79 80 71 62 61 58 67 54 51 44 42 46 44 43 47 44 48 44 54 48 42 47 42 38 36 30 39 29 29 39 43 29 35 26 30 33 35 34

GFSGBSN_sfc_rhum_114.txt.gz
RH
65 66 63 57 62 63 64 66 68 65 64 64 65 67 69 73 68 63 65 58 58 59 68 90 89 91 90 71 66 31 40 33 28 33 31 30 28 34 36 30 30 35 32 28 31 36 30
66 64 60 61 62 62 64 67 65 64 63 64 64 67 68 68 68 69 67 62 68 59 84 89 86 85 81 88 51 26 27 28 27 32 34 28 26 27 26 28 35 30 36 30 32 30 29
66 66 62 62 62 62 61 62 64 68 64 64 65 68 66 72 73 71 63 63 68 60 84 83 80 66 79 84 54 33 28 32 32 30 34 35 30 33 28 35 32 28 38 33 32 34 36
68 67 66 66 65 64 63 62 62 63 66 65 66 67 67 66 69 69 65 67 78 84 85 76 63 64 88 56 51 39 26 32 32 33 38 39 33 36 34 29 26 30 31 40 35 36 42
66 68 66 65 63 67 69 69 65 64 67 69 68 70 73 70 69 67 68 73 83 90 81 64 69 66 84 58 39 30 27 32 33 33 35 25 36 39 39 41 45 30 39 28 43 38 42
65 66 66 66 68 70 72 73 72 67 68 69 73 74 72 71 74 71 75 82 85 83 72 62 65 70 71 62 44 32 33 32 38 42 45 45 45 56 44 85 87 50 30 29 34 44 41
71 70 70 68 68 67 72 74 73 71 68 71 78 79 78 78 78 78 84 84 84 87 84 90 78 73 72 55 40 38 35 36 38 42 48 48 91 83 48 43 43 42 41 41 33 43 56
69 69 71 73 74 74 74 73 74 74 72 69 74 74 75 76 76 75 76 77 82 79 96 80 75 76 67 51 45 45 37 45 47 53 48 67 78 47 45 49 53 54 57 60 53 46 54
74 75 70 76 76 76 75 76 72 74 74 72 72 73 73 73 75 80 82 90 78 75 94 91 76 70 60 43 51 53 46 44 46 47 52 66 52 42 42 56 63 64 79 69 73 59 55
68 71 69 69 72 77 78 76 76 74 76 77 72 70 68 74 73 91 90 81 79 73 98 94 78 54 44 48 53 42 46 53 52 55 56 59 46 44 53 66 63 81 54 58 67 83 95
74 74 73 75 76 74 75 76 78 80 75 77 76 74 75 69 72 79 70 68 67 82 93 70 58 42 44 50 49 49 44 46 52 49 61 69 58 62 68 79 53 70 60 65 70 75 82
74 74 76 77 77 76 76 78 78 82 82 75 75 73 73 63 65 66 64 64 75 98 96 67 49 49 49 48 47 45 48 47 50 54 56 60 55 59 61 52 53 53 72 72 66 74 92
74 73 76 76 75 78 77 79 79 81 84 81 70 69 63 54 73 66 66 72 97 94 59 62 56 45 47 50 50 48 55 63 80 94 98 65 60 59 54 69 65 70 95 98 95 95 95
70 74 74 78 78 78 77 79 80 82 79 81 73 70 66 52 63 68 73 85 90 75 63 48 49 48 55 50 53 53 57 78 57 53 90 95 89 63 59 67 74 64 70 94 94 96 91
73 73 76 76 76 79 80 79 80 82 81 79 77 67 65 62 64 73 79 95 90 67 48 51 50 61 66 50 55 55 57 60 55 53 80 98 92 55 55 52 65 69 77 67 90 82 91
75 74 75 76 79 80 80 80 80 80 84 74 68 63 65 60 64 78 87 82 74 47 42 46 51 48 58 55 58 57 61 57 56 53 54 65 90 55 59 64 63 76 62 87 86 96 90
77 76 74 78 80 82 82 81 81 80 81 72 73 67 70 63 74 72 99 76 56 44 48 50 49 46 52 57 54 56 57 52 50 50 51 55 70 73 61 73 78 85 85 75 63 68 91
78 78 77 76 79 82 82 82 81 80 82 81 78 88 70 66 85 70 91 57 59 52 52 51 49 46 48 52 54 54 52 51 45 52 58 61 64 85 65 52 52 63 64 63 84 64 69
80 78 79 77 80 82 82 83 82 80 78 73 63 63 74 74 95 90 64 59 53 55 54 52 51 50 47 51 58 54 54 48 50 56 70 61 73 90 76 58 56 62 56 58 56 63 79
82 78 78 79 79 80 82 85 86 81 78 80 64 93 68 61 57 53 56 58 60 61 53 48 48 48 52 51 51 56 51 61 52 57 70 67 67 75 78 62 61 66 53 50 59 89 74
81 80 77 78 78 75 80 86 86 83 80 78 64 72 70 88 60 56 58 54 54 58 55 51 53 51 50 53 49 52 49 56 60 69 71 70 84 76 68 58 58 61 58 54 58 61 73
83 81 78 77 78 76 80 87 86 83 81 69 71 65 60 54 52 52 65 57 51 52 54 51 58 48 51 56 48 54 50 49 49 69 75 69 90 78 83 60 58 65 55 52 52 50 50
85 84 81 78 78 79 80 85 87 84 75 67 64 57 58 66 52 52 52 51 52 54 54 48 50 52 51 50 49 47 49 47 49 55 72 70 88 87 90 68 66 77 51 49 46 46 49
88 87 84 81 78 79 79 82 86 84 81 69 70 68 61 55 51 45 51 52 54 54 59 49 54 56 58 48 48 52 58 54 52 50 50 61 74 80 86 80 93 54 38 38 46 40 40
90 88 85 84 80 78 79 78 81 82 79 70 69 77 68 64 42 37 46 52 52 54 60 55 51 52 54 58 63 53 54 57 52 52 55 56 67 84 93 91 62 48 43 49 50 44 37
92 91 90 88 85 81 80 78 80 82 80 73 78 78 75 72 52 38 46 45 57 54 53 59 59 57 67 65 58 71 54 40 63 74 62 62 63 70 80 91 81 46 46 45 50 64 38
92 92 92 91 89 84 79 79 79 81 82 81 82 78 83 78 54 51 52 55 51 59 60 60 64 75 68 73 72 63 64 46 48 54 87 85 72 84 78 80 71 41 47 49 62 41 39
90 91 94 94 91 89 82 78 77 81 82 83 85 76 86 83 71 54 53 58 64 69 58 67 69 75 81 83 71 64 63 49 64 44 69 78 91 90 78 88 88 50 57 49 41 45 39
91 90 90 93 95 92 88 81 76 78 80 82 82 68 67 86 74 62 55 57 59 67 69 59 62 61 64 78 75 67 67 59 57 60 45 50 47 57 63 66 45 47 44 44 44 46 47

GFSGBSN_sfc_rhum_117.txt.gz
RH
61 60 62 60 59 60 63 66 65 63 63 64 68 72 76 71 67 67 63 64 61 71 85 85 82 89 85 67 71 54 40 35 35 38 35 32 36 37 41 36 30 37 37 31 36 37 35
66 65 66 66 64 62 61 62 67 64 62 63 66 67 68 69 70 69 65 68 63 80 81 82 84 74 75 81 51 52 40 33 35 38 37 38 32 31 31 32 38 38 34 35 34 34 33
64 64 64 64 69 71 66 63 63 67 66 64 66 66 70 74 70 66 67 72 64 86 83 82 72 61 75 76 59 54 45 40 42 40 42 42 38 34 33 39 34 31 37 39 39 37 41
64 65 65 69 71 72 73 65 65 66 67 68 68 68 67 69 69 68 73 80 80 82 82 82 72 70 86 55 57 51 35 38 36 36 44 38 40 38 34 36 28 35 33 46 40 41 46
70 69 69 68 69 72 74 69 66 67 67 70 68 66 69 70 70 71 82 85 87 87 74 65 70 76 82 59 51 36 35 40 41 37 38 27 36 39 40 48 56 38 47 42 47 40 46
69 68 70 73 75 73 74 73 67 67 71 76 78 76 74 71 73 79 78 78 83 83 77 59 61 77 72 61 58 41 38 37 44 50 47 43 57 67 64 87 79 60 52 34 44 47 49
75 74 74 73 74 76 71 74 70 69 72 76 80 78 77 76 82 76 80 87 86 90 76 82 73 73 69 60 52 48 42 45 46 48 49 53 79 81 72 60 51 52 54 55 52 48 60
73 73 74 76 74 74 74 72 72 72 73 74 77 80 76 76 74 72 77 89 87 79 91 77 70 76 65 58 56 53 50 54 54 55 54 71 82 60 52 53 58 59 69 78 60 54 61
76 69 76 78 77 74 73 74 74 76 73 73 74 78 76 74 74 82 91 95 87 82 93 83 86 73 64 51 59 59 58 56 53 63 65 74 62 48 50 61 74 74 78 81 81 70 66
77 74 71 77 78 77 72 76 76 75 77 77 75 74 73 74 79 95 92 84 90 86 94 89 68 53 53 58 62 48 50 61 56 67 67 64 52 53 59 67 75 80 64 67 76 86 90
76 76 77 70 77 77 76 77 80 78 75 78 76 78 77 70 84 86 76 78 78 90 94 78 63 47 53 59 54 53 47 51 61 58 66 72 65 68 72 68 59 76 66 74 78 86 89
72 75 76 76 73 73 75 78 81 83 81 77 75 75 74 74 80 79 70 72 82 89 97 76 60 58 59 55 56 53 55 52 58 68 64 68 61 66 69 59 59 61 78 81 68 72 96
70 73 74 74 74 76 74 79 81 80 83 79 71 69 67 64 88 77 78 89 88 95 65 71 65 57 56 61 58 59 65 73 84 65 92 78 70 67 61 78 72 77 95 98 95 99 93
73 73 72 75 76 76 77 78 80 82 81 82 74 74 75 58 76 80 86 80 91 77 79 58 60 58 67 62 63 61 70 86 63 67 98 91 64 72 66 76 80 82 78 92 70 97 93
76 74 76 78 79 79 80 80 80 81 83 79 77 82 79 77 72 86 83 96 89 78 58 62 61 74 75 60 64 65 68 70 65 63 83 96 89 64 64 59 69 79 86 73 91 90 95
77 77 74 76 78 80 80 80 80 81 83 81 93 86 79 73 77 92 90 86 79 56 52 56 68 58 77 68 71 70 71 64 64 60 63 74 91 65 65 68 70 80 76 87 92 93 92
79 78 77 73 75 79 80 80 81 80 81 74 89 85 76 77 88 83 94 82 64 52 60 65 59 58 67 69 65 66 69 62 57 59 60 66 76 78 71 84 86 89 91 85 78 84 92
80 78 79 79 76 78 80 81 81 80 81 81 91 83 77 85 88 95 94 68 62 62 60 65 62 57 60 60 63 65 65 64 52 55 70 68 75 90 76 59 65 76 78 75 88 73 80
81 78 78 80 82 80 79 82 82 80 79 92 76 77 80 78 92 95 76 71 65 63 62 61 60 57 56 60 67 61 61 58 56 62 76 73 80 90 74 60 62 68 65 67 68 75 85
82 81 79 82 84 81 81 85 86 81 80 90 80 84 84 74 76 71 72 68 72 66 62 57 59 56 60 63 59 66 61 64 57 62 68 70 81 73 52 55 68 77 64 62 72 92 71
84 83 80 79 80 82 81 84 86 83 85 83 82 78 79 90 72 70 71 64 66 70 64 60 63 60 63 68 60 64 55 70 68 71 74 76 91 86 78 73 72 70 69 66 68 62 79
85 84 83 80 79 80 82 84 85 83 83 80 80 80 77 71 64 71 73 66 61 63 60 62 66 58 58 66 63 65 58 59 58 87 81 82 90 89 91 72 73 78 66 64 64 61 57
89 87 85 83 80 80 83 84 85 84 79 84 86 76 71 73 68 66 68 64 62 59 60 56 63 64 62 59 66 62 60 55 57 76 87 82 92 89 91 76 75 79 60 56 60 60 56
92 91 86 85 82 81 83 83 84 84 86 89 90 92 73 67 61 56 58 59 61 63 67 58 62 68 62 60 58 60 71 67 66 66 71 73 85 87 93 83 89 45 46 37 51 49 46
92 92 89 86 85 82 81 81 82 82 81 85 91 94 86 73 58 49 54 60 61 68 66 62 60 63 67 63 71 63 57 61 62 74 70 64 76 89 92 96 66 61 48 48 47 45 43
90 91 92 91 89 86 83 81 80 80 79 87 94 94 93 80 60 46 54 56 65 72 63 67 67 68 73 74 70 76 62 52 52 79 66 69 71 79 89 97 86 49 52 51 46 50 39
88 88 90 92 93 89 84 81 80 81 80 88 92 88 94 90 68 54 56 58 63 71 69 74 75 80 78 86 81 79 74 50 49 60 90 90 85 87 78 81 75 55 50 51 54 37 45
91 89 88 90 92 93 89 81 78 81 82 86 90 83 85 94 82 62 56 60 67 74 65 64 65 75 88 87 84 77 72 57 65 58 80 83 92 90 84 81 89 54 57 47 42 46 41
91 91 90 90 88 92 94 88 80 77 80 82 91 76 78 89 71 79 67 61 55 59 68 68 63 71 78 87 85 79 73 69 62 62 65 66 59 74 71 68 51 54 47 44 45 41 45